Time,TemperatureF,DewpointF,PressureIn,WindDirection,WindDirectionDegrees,WindSpeedMPH,WindSpeedGustMPH,Humidity,HourlyPrecipIn,Conditions,Clouds,dailyrainin,SolarRadiationWatts/m^2,SoftwareType,DateUTC
2013-02-10 00:00:00,56.0,46.7,30.26,ENE,72,4.0,9.0,71,0.00,,---,0.00,0.00,VWS V14.00,2013-02-10 05:00:00,
2013-02-10 00:01:00,56.0,46.7,30.26,ENE,72,4.0,6.0,71,0.00,,---,0.00,0.00,VWS V14.00,2013-02-10 05:01:00,
2013-02-10 00:02:00,56.0,46.7,30.26,ENE,72,5.0,7.0,71,0.00,,---,0.00,0.00,VWS V14.00,2013-02-10 05:02:00,
2013-02-10 00:03:00,56.0,47.1,30.26,ENE,72,4.0,7.0,72,0.00,,---,0.00,0.00,VWS V14.00,2013-02-10 05:03:00,
2013-02-10 00:04:00,56.0,47.1,30.26,ENE,72,5.0,7.0,72,0.00,,---,0.00,0.00,VWS V14.00,2013-02-10 05:04:00,
2013-02-10 00:05:00,56.0,47.1,30.26,ENE,72,5.0,7.0,72,0.00,,---,0.00,0.00,VWS V14.00,2013-02-10 05:05:00,
2013-02-10 00:06:00,56.0,47.1,30.26,ENE,72,4.0,7.0,72,0.00,,---,0.00,0.00,VWS V14.00,2013-02-10 05:06:00,
2013-02-10 00:07:00,56.0,47.1,30.26,ENE,69,6.0,7.0,72,0.00,,---,0.00,0.00,VWS V14.00,2013-02-10 05:07:00,
2013-02-10 00:08:00,56.0,47.1,30.26,ENE,69,6.0,7.0,72,0.00,,---,0.00,0.00,VWS V14.00,2013-02-10 05:08:00,
2013-02-10 00:09:00,56.0,47.1,30.26,ENE,69,5.0,7.0,72,0.00,,---,0.00,0.00,VWS V14.00,2013-02-10 05:09:00,
2013-02-10 00:10:00,56.0,47.1,30.26,ENE,74,6.0,7.0,72,0.00,,---,0.00,0.00,VWS V14.00,2013-02-10 05:10:00,
2013-02-10 00:11:00,56.0,47.1,30.26,ENE,74,6.0,7.0,72,0.00,,---,0.00,0.00,VWS V14.00,2013-02-10 05:11:00,
2013-02-10 00:12:00,56.0,46.7,30.26,ENE,72,6.0,7.0,71,0.00,,---,0.00,0.00,VWS V14.00,2013-02-10 05:12:00,
2013-02-10 00:13:00,56.0,47.1,30.26,ENE,73,6.0,7.0,72,0.00,,---,0.00,0.00,VWS V14.00,2013-02-10 05:13:00,
2013-02-10 00:14:00,56.1,47.2,30.26,East,80,6.0,7.0,72,0.00,,---,0.00,0.00,VWS V14.00,2013-02-10 05:14:00,
2013-02-10 00:15:00,56.0,47.1,30.26,East,79,5.0,7.0,72,0.00,,---,0.00,0.00,VWS V14.00,2013-02-10 05:15:00,
2013-02-10 00:16:00,56.1,47.2,30.26,ENE,78,5.0,7.0,72,0.00,,---,0.00,0.00,VWS V14.00,2013-02-10 05:16:00,
2013-02-10 00:17:00,56.1,47.2,30.26,ENE,77,5.0,7.0,72,0.00,,---,0.00,0.00,VWS V14.00,2013-02-10 05:17:00,
2013-02-10 00:18:00,56.1,47.2,30.26,ENE,75,5.0,7.0,72,0.00,,---,0.00,0.00,VWS V14.00,2013-02-10 05:18:00,
2013-02-10 00:19:00,56.1,47.2,30.26,ENE,75,5.0,7.0,72,0.00,,---,0.00,0.00,VWS V14.00,2013-02-10 05:19:00,
2013-02-10 00:20:00,56.1,47.2,30.26,ENE,75,5.0,7.0,72,0.00,,---,0.00,0.00,VWS V14.00,2013-02-10 05:20:00,
2013-02-10 00:21:00,56.1,47.2,30.26,ENE,74,5.0,7.0,72,0.00,,---,0.00,0.00,VWS V14.00,2013-02-10 05:21:00,
2013-02-10 00:22:00,56.1,47.2,30.26,ENE,74,4.0,7.0,72,0.00,,---,0.00,0.00,VWS V14.00,2013-02-10 05:22:00,
2013-02-10 00:23:00,56.1,47.2,30.26,ENE,74,5.0,7.0,72,0.00,,---,0.00,0.00,VWS V14.00,2013-02-10 05:23:00,
2013-02-10 00:24:00,56.1,47.2,30.26,ENE,74,4.0,7.0,72,0.00,,---,0.00,0.00,VWS V14.00,2013-02-10 05:24:00,
2013-02-10 00:25:00,56.1,47.2,30.26,ENE,74,3.0,7.0,72,0.00,,---,0.00,0.00,VWS V14.00,2013-02-10 05:25:00,
2013-02-10 00:26:00,56.1,47.6,30.26,ENE,74,3.0,7.0,73,0.00,,---,0.00,0.00,VWS V14.00,2013-02-10 05:26:00,
2013-02-10 00:27:00,56.1,47.2,30.26,ENE,74,4.0,7.0,72,0.00,,---,0.00,0.00,VWS V14.00,2013-02-10 05:27:00,
2013-02-10 00:28:00,56.1,47.2,30.26,ENE,74,4.0,7.0,72,0.00,,---,0.00,0.00,VWS V14.00,2013-02-10 05:28:00,
2013-02-10 00:29:00,56.1,47.2,30.26,ENE,74,5.0,7.0,72,0.00,,---,0.00,0.00,VWS V14.00,2013-02-10 05:29:00,
2013-02-10 00:30:00,56.1,47.2,30.26,ENE,74,4.0,7.0,72,0.00,,---,0.00,0.00,VWS V14.00,2013-02-10 05:30:00,
2013-02-10 00:31:00,56.1,47.6,30.25,ENE,74,4.0,5.0,73,0.00,,---,0.00,0.00,VWS V14.00,2013-02-10 05:31:00,
2013-02-10 00:32:00,56.1,47.6,30.25,ENE,74,5.0,5.0,73,0.00,,---,0.00,0.00,VWS V14.00,2013-02-10 05:32:00,
2013-02-10 00:33:00,56.1,47.6,30.25,ENE,74,5.0,7.0,73,0.00,,---,0.00,0.00,VWS V14.00,2013-02-10 05:33:00,
2013-02-10 00:34:00,56.2,47.7,30.25,ENE,71,5.0,8.0,73,0.00,,---,0.00,0.00,VWS V14.00,2013-02-10 05:34:00,
2013-02-10 00:35:00,56.2,48.0,30.25,ENE,76,6.0,8.0,74,0.00,,---,0.00,0.00,VWS V14.00,2013-02-10 05:35:00,
2013-02-10 00:36:00,56.2,47.7,30.25,ENE,76,4.0,8.0,73,0.00,,---,0.00,0.00,VWS V14.00,2013-02-10 05:36:00,
2013-02-10 00:37:00,56.2,48.0,30.25,ENE,75,4.0,8.0,74,0.00,,---,0.00,0.00,VWS V14.00,2013-02-10 05:37:00,
2013-02-10 00:38:00,56.2,48.0,30.25,ENE,75,6.0,8.0,74,0.00,,---,0.00,0.00,VWS V14.00,2013-02-10 05:38:00,
2013-02-10 00:39:00,56.2,47.7,30.25,ENE,75,6.0,8.0,73,0.00,,---,0.00,0.00,VWS V14.00,2013-02-10 05:39:00,
2013-02-10 00:40:00,56.2,47.7,30.25,ENE,74,5.0,8.0,73,0.00,,---,0.00,0.00,VWS V14.00,2013-02-10 05:40:00,
2013-02-10 00:41:00,56.2,47.7,30.26,East,81,5.0,8.0,73,0.00,,---,0.00,0.00,VWS V14.00,2013-02-10 05:41:00,
2013-02-10 00:42:00,56.1,47.9,30.25,ENE,75,7.0,8.0,74,0.00,,---,0.00,0.00,VWS V14.00,2013-02-10 05:42:00,
2013-02-10 00:43:00,56.1,47.6,30.25,ENE,74,7.0,8.0,73,0.00,,---,0.00,0.00,VWS V14.00,2013-02-10 05:43:00,
2013-02-10 00:44:00,56.1,47.9,30.25,ENE,76,6.0,8.0,74,0.00,,---,0.00,0.00,VWS V14.00,2013-02-10 05:44:00,
2013-02-10 00:45:00,56.1,47.6,30.26,East,81,5.0,8.0,73,0.00,,---,0.00,0.00,VWS V14.00,2013-02-10 05:45:00,
2013-02-10 00:46:00,56.1,47.9,30.26,East,81,5.0,8.0,74,0.00,,---,0.00,0.00,VWS V14.00,2013-02-10 05:46:00,
2013-02-10 00:47:00,56.1,47.9,30.26,East,81,5.0,8.0,74,0.00,,---,0.00,0.00,VWS V14.00,2013-02-10 05:47:00,
2013-02-10 00:48:00,56.1,47.9,30.26,East,80,6.0,8.0,74,0.00,,---,0.00,0.00,VWS V14.00,2013-02-10 05:48:00,
2013-02-10 00:49:00,56.1,47.9,30.26,East,81,6.0,8.0,74,0.00,,---,0.00,0.00,VWS V14.00,2013-02-10 05:49:00,
2013-02-10 00:50:00,56.1,48.3,30.26,East,80,5.0,8.0,75,0.00,,---,0.00,0.00,VWS V14.00,2013-02-10 05:50:00,
2013-02-10 00:51:00,56.1,48.3,30.26,East,80,5.0,8.0,75,0.00,,---,0.00,0.00,VWS V14.00,2013-02-10 05:51:00,
2013-02-10 00:52:00,56.1,48.3,30.25,East,80,5.0,8.0,75,0.00,,---,0.00,0.00,VWS V14.00,2013-02-10 05:52:00,
2013-02-10 00:53:00,56.1,48.3,30.26,East,79,6.0,8.0,75,0.00,,---,0.00,0.00,VWS V14.00,2013-02-10 05:53:00,
2013-02-10 00:54:00,56.1,48.3,30.26,East,80,4.0,8.0,75,0.00,,---,0.00,0.00,VWS V14.00,2013-02-10 05:54:00,
2013-02-10 00:55:00,56.2,48.4,30.26,East,80,3.0,8.0,75,0.00,,---,0.00,0.00,VWS V14.00,2013-02-10 05:55:00,
2013-02-10 00:56:00,56.1,48.3,30.26,East,79,4.0,8.0,75,0.00,,---,0.00,0.00,VWS V14.00,2013-02-10 05:56:00,
2013-02-10 00:57:00,56.1,48.3,30.26,East,79,5.0,8.0,75,0.00,,---,0.00,0.00,VWS V14.00,2013-02-10 05:57:00,
2013-02-10 00:58:00,56.1,48.3,30.26,East,79,5.0,8.0,75,0.00,,---,0.00,0.00,VWS V14.00,2013-02-10 05:58:00,
2013-02-10 00:59:00,56.1,48.3,30.26,East,80,5.0,8.0,75,0.00,,---,0.00,0.00,VWS V14.00,2013-02-10 05:59:00,
2013-02-10 01:00:00,56.1,48.3,30.26,East,80,3.0,8.0,75,0.00,,---,0.00,0.00,VWS V14.00,2013-02-10 06:00:00,
2013-02-10 01:01:00,56.1,48.3,30.26,East,80,4.0,5.0,75,0.00,,---,0.00,0.00,VWS V14.00,2013-02-10 06:01:00,
2013-02-10 01:02:00,56.1,48.3,30.26,ENE,74,4.0,7.0,75,0.00,,---,0.00,0.00,VWS V14.00,2013-02-10 06:02:00,
2013-02-10 01:03:00,56.1,48.3,30.26,ENE,74,3.0,7.0,75,0.00,,---,0.00,0.00,VWS V14.00,2013-02-10 06:03:00,
2013-02-10 01:04:00,56.1,48.3,30.26,ENE,74,3.0,7.0,75,0.00,,---,0.00,0.00,VWS V14.00,2013-02-10 06:04:00,
2013-02-10 01:05:00,56.1,48.3,30.26,ENE,74,2.0,7.0,75,0.00,,---,0.00,0.00,VWS V14.00,2013-02-10 06:05:00,
2013-02-10 01:06:00,56.1,48.7,30.26,ENE,74,4.0,7.0,76,0.00,,---,0.00,0.00,VWS V14.00,2013-02-10 06:06:00,
2013-02-10 01:07:00,56.1,48.7,30.26,ENE,74,5.0,7.0,76,0.00,,---,0.00,0.00,VWS V14.00,2013-02-10 06:07:00,
2013-02-10 01:08:00,56.1,48.3,30.26,ENE,74,5.0,7.0,75,0.00,,---,0.00,0.00,VWS V14.00,2013-02-10 06:08:00,
2013-02-10 01:09:00,56.1,48.7,30.26,ENE,74,3.0,7.0,76,0.00,,---,0.00,0.00,VWS V14.00,2013-02-10 06:09:00,
2013-02-10 01:10:00,56.1,48.7,30.26,ENE,74,4.0,7.0,76,0.00,,---,0.00,0.00,VWS V14.00,2013-02-10 06:10:00,
2013-02-10 01:11:00,56.0,48.5,30.26,ENE,74,2.0,7.0,76,0.00,,---,0.00,0.00,VWS V14.00,2013-02-10 06:11:00,
2013-02-10 01:12:00,56.1,48.7,30.25,ENE,74,4.0,7.0,76,0.00,,---,0.00,0.00,VWS V14.00,2013-02-10 06:12:00,
2013-02-10 01:13:00,56.1,48.7,30.26,ENE,74,5.0,7.0,76,0.00,,---,0.00,0.00,VWS V14.00,2013-02-10 06:13:00,
2013-02-10 01:14:00,56.1,49.0,30.26,ENE,74,3.0,7.0,77,0.00,,---,0.00,0.00,VWS V14.00,2013-02-10 06:14:00,
2013-02-10 01:15:00,56.0,48.5,30.26,ENE,74,2.0,7.0,76,0.00,,---,0.00,0.00,VWS V14.00,2013-02-10 06:15:00,
2013-02-10 01:16:00,56.0,48.5,30.26,ENE,74,3.0,7.0,76,0.00,,---,0.00,0.00,VWS V14.00,2013-02-10 06:16:00,
2013-02-10 01:17:00,56.0,48.9,30.26,ENE,74,4.0,7.0,77,0.00,,---,0.00,0.00,VWS V14.00,2013-02-10 06:17:00,
2013-02-10 01:18:00,56.0,48.5,30.26,ENE,74,3.0,7.0,76,0.00,,---,0.00,0.00,VWS V14.00,2013-02-10 06:18:00,
2013-02-10 01:19:00,55.9,48.5,30.26,ENE,64,6.0,7.0,76,0.00,,---,0.00,0.00,VWS V14.00,2013-02-10 06:19:00,
2013-02-10 01:20:00,55.9,48.5,30.25,ENE,69,4.0,7.0,76,0.00,,---,0.00,0.00,VWS V14.00,2013-02-10 06:20:00,
2013-02-10 01:21:00,55.9,48.8,30.26,ENE,69,4.0,7.0,77,0.00,,---,0.00,0.00,VWS V14.00,2013-02-10 06:21:00,
2013-02-10 01:22:00,55.9,48.8,30.26,ENE,69,4.0,7.0,77,0.00,,---,0.00,0.00,VWS V14.00,2013-02-10 06:22:00,
2013-02-10 01:23:00,55.9,48.8,30.26,ENE,69,4.0,7.0,77,0.00,,---,0.00,0.00,VWS V14.00,2013-02-10 06:23:00,
2013-02-10 01:24:00,55.9,48.8,30.26,ENE,69,2.0,7.0,77,0.00,,---,0.00,0.00,VWS V14.00,2013-02-10 06:24:00,
2013-02-10 01:25:00,55.8,48.7,30.26,ENE,69,4.0,7.0,77,0.00,,---,0.00,0.00,VWS V14.00,2013-02-10 06:25:00,
2013-02-10 01:26:00,55.8,48.7,30.26,ENE,69,4.0,7.0,77,0.00,,---,0.00,0.00,VWS V14.00,2013-02-10 06:26:00,
2013-02-10 01:27:00,55.8,48.7,30.26,ENE,69,3.0,7.0,77,0.00,,---,0.00,0.00,VWS V14.00,2013-02-10 06:27:00,
2013-02-10 01:28:00,55.8,48.7,30.26,ENE,69,3.0,7.0,77,0.00,,---,0.00,0.00,VWS V14.00,2013-02-10 06:28:00,
2013-02-10 01:29:00,55.8,49.0,30.26,ENE,69,4.0,7.0,78,0.00,,---,0.00,0.00,VWS V14.00,2013-02-10 06:29:00,
2013-02-10 01:30:00,55.8,49.0,30.26,ENE,69,4.0,7.0,78,0.00,,---,0.00,0.00,VWS V14.00,2013-02-10 06:30:00,
2013-02-10 01:31:00,55.8,49.0,30.26,ENE,69,2.0,5.0,78,0.00,,---,0.00,0.00,VWS V14.00,2013-02-10 06:31:00,
2013-02-10 01:32:00,55.8,49.0,30.26,ENE,69,4.0,5.0,78,0.00,,---,0.00,0.00,VWS V14.00,2013-02-10 06:32:00,
2013-02-10 01:33:00,55.8,49.0,30.26,ENE,69,5.0,6.0,78,0.00,,---,0.00,0.00,VWS V14.00,2013-02-10 06:33:00,
2013-02-10 01:34:00,55.8,49.0,30.26,ENE,69,5.0,6.0,78,0.00,,---,0.00,0.00,VWS V14.00,2013-02-10 06:34:00,
2013-02-10 01:35:00,55.8,49.0,30.26,ENE,69,5.0,6.0,78,0.00,,---,0.00,0.00,VWS V14.00,2013-02-10 06:35:00,
2013-02-10 01:36:00,55.8,49.0,30.26,ENE,70,4.0,6.0,78,0.00,,---,0.00,0.00,VWS V14.00,2013-02-10 06:36:00,
2013-02-10 01:37:00,55.9,49.2,30.26,ENE,74,5.0,6.0,78,0.00,,---,0.00,0.00,VWS V14.00,2013-02-10 06:37:00,
2013-02-10 01:38:00,55.9,49.5,30.26,ENE,74,3.0,6.0,79,0.00,,---,0.00,0.00,VWS V14.00,2013-02-10 06:38:00,
2013-02-10 01:39:00,55.9,49.5,30.25,ENE,74,2.0,6.0,79,0.00,,---,0.00,0.00,VWS V14.00,2013-02-10 06:39:00,
2013-02-10 01:40:00,55.9,49.5,30.25,ENE,74,4.0,6.0,79,0.00,,---,0.00,0.00,VWS V14.00,2013-02-10 06:40:00,
2013-02-10 01:41:00,56.0,49.6,30.26,ENE,74,4.0,6.0,79,0.00,,---,0.00,0.00,VWS V14.00,2013-02-10 06:41:00,
2013-02-10 01:42:00,56.0,49.6,30.25,ENE,74,5.0,6.0,79,0.00,,---,0.00,0.00,VWS V14.00,2013-02-10 06:42:00,
2013-02-10 01:43:00,56.0,49.6,30.25,ENE,74,2.0,6.0,79,0.00,,---,0.00,0.00,VWS V14.00,2013-02-10 06:43:00,
2013-02-10 01:44:00,56.0,49.6,30.25,East,86,4.0,6.0,79,0.00,,---,0.00,0.00,VWS V14.00,2013-02-10 06:44:00,
2013-02-10 01:45:00,56.1,49.7,30.26,East,91,3.0,6.0,79,0.00,,---,0.00,0.00,VWS V14.00,2013-02-10 06:45:00,
2013-02-10 01:46:00,56.1,49.7,30.26,East,89,5.0,6.0,79,0.00,,---,0.00,0.00,VWS V14.00,2013-02-10 06:46:00,
2013-02-10 01:47:00,56.2,49.8,30.26,East,89,3.0,6.0,79,0.00,,---,0.00,0.00,VWS V14.00,2013-02-10 06:47:00,
2013-02-10 01:48:00,56.2,49.8,30.25,East,89,3.0,6.0,79,0.00,,---,0.00,0.00,VWS V14.00,2013-02-10 06:48:00,
2013-02-10 01:49:00,56.2,49.8,30.26,East,89,3.0,6.0,79,0.00,,---,0.00,0.00,VWS V14.00,2013-02-10 06:49:00,
2013-02-10 01:50:00,56.3,49.9,30.26,East,89,3.0,6.0,79,0.00,,---,0.00,0.00,VWS V14.00,2013-02-10 06:50:00,
2013-02-10 01:51:00,56.3,50.2,30.26,East,89,3.0,6.0,80,0.00,,---,0.00,0.00,VWS V14.00,2013-02-10 06:51:00,
2013-02-10 01:52:00,56.4,50.3,30.26,East,89,3.0,6.0,80,0.00,,---,0.00,0.00,VWS V14.00,2013-02-10 06:52:00,
2013-02-10 01:53:00,56.4,50.3,30.26,East,89,3.0,6.0,80,0.00,,---,0.00,0.00,VWS V14.00,2013-02-10 06:53:00,
2013-02-10 01:54:00,56.4,50.3,30.26,East,89,5.0,6.0,80,0.00,,---,0.00,0.00,VWS V14.00,2013-02-10 06:54:00,
2013-02-10 01:55:00,56.5,50.1,30.26,East,85,5.0,6.0,79,0.00,,---,0.00,0.00,VWS V14.00,2013-02-10 06:55:00,
2013-02-10 01:56:00,56.5,50.1,30.26,East,85,3.0,7.0,79,0.00,,---,0.00,0.00,VWS V14.00,2013-02-10 06:56:00,
2013-02-10 01:57:00,56.6,50.2,30.26,East,79,7.0,7.0,79,0.00,,---,0.00,0.00,VWS V14.00,2013-02-10 06:57:00,
2013-02-10 01:58:00,56.6,50.2,30.26,East,79,3.0,7.0,79,0.00,,---,0.00,0.00,VWS V14.00,2013-02-10 06:58:00,
2013-02-10 01:59:00,56.6,50.2,30.26,ENE,78,5.0,7.0,79,0.00,,---,0.00,0.00,VWS V14.00,2013-02-10 06:59:00,
2013-02-10 02:00:00,56.6,50.2,30.26,ENE,68,7.0,7.0,79,0.00,,---,0.00,0.00,VWS V14.00,2013-02-10 07:00:00,
2013-02-10 02:01:00,56.6,50.2,30.26,East,84,4.0,7.0,79,0.00,,---,0.00,0.00,VWS V14.00,2013-02-10 07:01:00,
2013-02-10 02:02:00,56.6,50.2,30.26,ENE,78,5.0,7.0,79,0.00,,---,0.00,0.00,VWS V14.00,2013-02-10 07:02:00,
2013-02-10 02:03:00,56.6,50.5,30.26,ENE,77,5.0,7.0,80,0.00,,---,0.00,0.00,VWS V14.00,2013-02-10 07:03:00,
2013-02-10 02:04:00,56.6,50.2,30.25,ENE,72,5.0,7.0,79,0.00,,---,0.00,0.00,VWS V14.00,2013-02-10 07:04:00,
2013-02-10 02:05:00,56.6,50.2,30.26,ENE,77,4.0,7.0,79,0.00,,---,0.00,0.00,VWS V14.00,2013-02-10 07:05:00,
2013-02-10 02:06:00,56.6,50.2,30.26,ENE,75,5.0,7.0,79,0.00,,---,0.00,0.00,VWS V14.00,2013-02-10 07:06:00,
2013-02-10 02:07:00,56.5,50.1,30.26,ENE,72,4.0,7.0,79,0.00,,---,0.00,0.00,VWS V14.00,2013-02-10 07:07:00,
2013-02-10 02:08:00,56.5,50.1,30.26,ENE,72,5.0,7.0,79,0.00,,---,0.00,0.00,VWS V14.00,2013-02-10 07:08:00,
2013-02-10 02:09:00,56.5,50.4,30.25,ENE,72,4.0,7.0,80,0.00,,---,0.00,0.00,VWS V14.00,2013-02-10 07:09:00,
2013-02-10 02:10:00,56.5,50.4,30.25,ENE,76,4.0,7.0,80,0.00,,---,0.00,0.00,VWS V14.00,2013-02-10 07:10:00,
2013-02-10 02:11:00,56.5,50.4,30.26,East,81,5.0,7.0,80,0.00,,---,0.00,0.00,VWS V14.00,2013-02-10 07:11:00,
2013-02-10 02:12:00,56.5,50.4,30.26,East,80,5.0,7.0,80,0.00,,---,0.00,0.00,VWS V14.00,2013-02-10 07:12:00,
2013-02-10 02:13:00,56.4,50.3,30.26,East,80,5.0,7.0,80,0.00,,---,0.00,0.00,VWS V14.00,2013-02-10 07:13:00,
2013-02-10 02:14:00,56.4,50.3,30.26,East,79,5.0,7.0,80,0.00,,---,0.00,0.00,VWS V14.00,2013-02-10 07:14:00,
2013-02-10 02:15:00,56.4,50.3,30.26,East,90,6.0,8.0,80,0.00,,---,0.00,0.00,VWS V14.00,2013-02-10 07:15:00,
2013-02-10 02:16:00,56.4,50.3,30.26,East,81,5.0,8.0,80,0.00,,---,0.00,0.00,VWS V14.00,2013-02-10 07:16:00,
2013-02-10 02:17:00,56.4,50.3,30.25,East,79,5.0,8.0,80,0.00,,---,0.00,0.00,VWS V14.00,2013-02-10 07:17:00,
2013-02-10 02:18:00,56.5,50.4,30.25,East,79,5.0,8.0,80,0.00,,---,0.00,0.00,VWS V14.00,2013-02-10 07:18:00,
2013-02-10 02:19:00,56.5,50.8,30.25,East,79,6.0,8.0,81,0.00,,---,0.00,0.00,VWS V14.00,2013-02-10 07:19:00,
2013-02-10 02:20:00,56.5,50.4,30.25,ENE,74,7.0,9.0,80,0.00,,---,0.00,0.00,VWS V14.00,2013-02-10 07:20:00,
2013-02-10 02:21:00,56.6,50.5,30.25,East,81,7.0,9.0,80,0.00,,---,0.00,0.00,VWS V14.00,2013-02-10 07:21:00,
2013-02-10 02:22:00,56.6,50.5,30.25,East,81,7.0,9.0,80,0.00,,---,0.00,0.00,VWS V14.00,2013-02-10 07:22:00,
2013-02-10 02:23:00,56.6,50.5,30.25,East,80,7.0,9.0,80,0.00,,---,0.00,0.00,VWS V14.00,2013-02-10 07:23:00,
2013-02-10 02:24:00,56.7,50.6,30.25,East,81,8.0,9.0,80,0.00,,---,0.00,0.00,VWS V14.00,2013-02-10 07:24:00,
2013-02-10 02:25:00,56.7,50.9,30.25,ENE,72,8.0,9.0,81,0.00,,---,0.00,0.00,VWS V14.00,2013-02-10 07:25:00,
2013-02-10 02:26:00,56.7,50.6,30.25,East,89,7.0,9.0,80,0.00,,---,0.00,0.00,VWS V14.00,2013-02-10 07:26:00,
2013-02-10 02:27:00,56.7,50.6,30.25,ENE,78,7.0,9.0,80,0.00,,---,0.00,0.00,VWS V14.00,2013-02-10 07:27:00,
2013-02-10 02:28:00,56.7,50.6,30.25,East,81,6.0,9.0,80,0.00,,---,0.00,0.00,VWS V14.00,2013-02-10 07:28:00,
2013-02-10 02:29:00,56.7,50.6,30.25,East,81,6.0,9.0,80,0.00,,---,0.00,0.00,VWS V14.00,2013-02-10 07:29:00,
2013-02-10 02:30:00,56.7,50.6,30.25,ENE,76,7.0,10.0,80,0.00,,---,0.00,0.00,VWS V14.00,2013-02-10 07:30:00,
2013-02-10 02:31:00,56.7,50.9,30.25,ENE,74,6.0,8.0,81,0.00,,---,0.00,0.00,VWS V14.00,2013-02-10 07:31:00,
2013-02-10 02:32:00,56.7,50.6,30.25,ENE,68,9.0,10.0,80,0.00,,---,0.00,0.00,VWS V14.00,2013-02-10 07:32:00,
2013-02-10 02:33:00,56.7,50.6,30.25,East,81,8.0,10.0,80,0.00,,---,0.00,0.00,VWS V14.00,2013-02-10 07:33:00,
2013-02-10 02:34:00,56.7,50.6,30.25,East,85,7.0,10.0,80,0.00,,---,0.00,0.00,VWS V14.00,2013-02-10 07:34:00,
2013-02-10 02:35:00,56.7,50.6,30.25,East,84,7.0,10.0,80,0.00,,---,0.00,0.00,VWS V14.00,2013-02-10 07:35:00,
2013-02-10 02:36:00,56.7,50.9,30.24,ENE,74,9.0,10.0,81,0.00,,---,0.00,0.00,VWS V14.00,2013-02-10 07:36:00,
2013-02-10 02:37:00,56.8,51.0,30.25,ENE,72,9.0,10.0,81,0.00,,---,0.00,0.00,VWS V14.00,2013-02-10 07:37:00,
2013-02-10 02:38:00,56.8,50.7,30.25,East,82,6.0,10.0,80,0.00,,---,0.00,0.00,VWS V14.00,2013-02-10 07:38:00,
2013-02-10 02:39:00,56.8,50.7,30.25,ENE,74,8.0,10.0,80,0.00,,---,0.00,0.00,VWS V14.00,2013-02-10 07:39:00,
2013-02-10 02:40:00,56.8,50.7,30.24,ENE,75,8.0,10.0,80,0.00,,---,0.00,0.00,VWS V14.00,2013-02-10 07:40:00,
2013-02-10 02:41:00,56.8,50.7,30.24,ENE,77,8.0,10.0,80,0.00,,---,0.00,0.00,VWS V14.00,2013-02-10 07:41:00,
2013-02-10 02:42:00,56.9,50.8,30.25,East,81,6.0,10.0,80,0.00,,---,0.00,0.00,VWS V14.00,2013-02-10 07:42:00,
2013-02-10 02:43:00,56.9,51.1,30.24,East,79,9.0,10.0,81,0.00,,---,0.00,0.00,VWS V14.00,2013-02-10 07:43:00,
2013-02-10 02:44:00,56.9,50.8,30.25,ENE,74,8.0,10.0,80,0.00,,---,0.00,0.00,VWS V14.00,2013-02-10 07:44:00,
2013-02-10 02:45:00,56.9,50.8,30.24,ENE,68,8.0,10.0,80,0.00,,---,0.00,0.00,VWS V14.00,2013-02-10 07:45:00,
2013-02-10 02:46:00,56.8,50.7,30.24,ENE,69,9.0,10.0,80,0.00,,---,0.00,0.00,VWS V14.00,2013-02-10 07:46:00,
2013-02-10 02:47:00,56.8,50.7,30.24,ENE,71,8.0,10.0,80,0.00,,---,0.00,0.00,VWS V14.00,2013-02-10 07:47:00,
2013-02-10 02:48:00,56.8,50.7,30.24,ENE,72,8.0,10.0,80,0.00,,---,0.00,0.00,VWS V14.00,2013-02-10 07:48:00,
2013-02-10 02:49:00,56.8,50.7,30.24,ENE,70,8.0,10.0,80,0.00,,---,0.00,0.00,VWS V14.00,2013-02-10 07:49:00,
2013-02-10 02:50:00,56.8,50.7,30.24,ENE,74,6.0,10.0,80,0.00,,---,0.00,0.00,VWS V14.00,2013-02-10 07:50:00,
2013-02-10 02:51:00,56.8,51.0,30.24,ENE,72,8.0,10.0,81,0.00,,---,0.00,0.00,VWS V14.00,2013-02-10 07:51:00,
2013-02-10 02:52:00,56.8,50.7,30.24,ENE,77,7.0,10.0,80,0.00,,---,0.00,0.00,VWS V14.00,2013-02-10 07:52:00,
2013-02-10 02:53:00,56.7,50.6,30.24,ENE,72,7.0,10.0,80,0.00,,---,0.00,0.00,VWS V14.00,2013-02-10 07:53:00,
2013-02-10 02:54:00,56.7,50.6,30.24,ENE,70,7.0,10.0,80,0.00,,---,0.00,0.00,VWS V14.00,2013-02-10 07:54:00,
2013-02-10 02:55:00,56.7,50.9,30.24,ENE,70,7.0,10.0,81,0.00,,---,0.00,0.00,VWS V14.00,2013-02-10 07:55:00,
2013-02-10 02:56:00,56.7,50.9,30.24,ENE,77,6.0,10.0,81,0.00,,---,0.00,0.00,VWS V14.00,2013-02-10 07:56:00,
2013-02-10 02:57:00,56.6,50.8,30.24,ENE,73,7.0,10.0,81,0.00,,---,0.00,0.00,VWS V14.00,2013-02-10 07:57:00,
2013-02-10 02:58:00,56.6,50.8,30.24,ENE,74,5.0,10.0,81,0.00,,---,0.00,0.00,VWS V14.00,2013-02-10 07:58:00,
2013-02-10 02:59:00,56.6,50.5,30.24,ENE,74,6.0,10.0,80,0.00,,---,0.00,0.00,VWS V14.00,2013-02-10 07:59:00,
2013-02-10 03:00:00,56.6,50.8,30.24,ENE,74,4.0,10.0,81,0.00,,---,0.00,0.00,VWS V14.00,2013-02-10 08:00:00,
2013-02-10 03:01:00,56.6,50.8,30.24,ENE,74,5.0,6.0,81,0.00,,---,0.00,0.00,VWS V14.00,2013-02-10 08:01:00,
2013-02-10 03:02:00,56.6,50.8,30.24,ENE,72,5.0,6.0,81,0.00,,---,0.00,0.00,VWS V14.00,2013-02-10 08:02:00,
2013-02-10 03:03:00,56.6,50.8,30.24,ENE,72,6.0,7.0,81,0.00,,---,0.00,0.00,VWS V14.00,2013-02-10 08:03:00,
2013-02-10 03:04:00,56.5,50.8,30.24,ENE,72,4.0,8.0,81,0.00,,---,0.00,0.00,VWS V14.00,2013-02-10 08:04:00,
2013-02-10 03:05:00,56.5,50.8,30.24,ENE,72,3.0,8.0,81,0.00,,---,0.00,0.00,VWS V14.00,2013-02-10 08:05:00,
2013-02-10 03:06:00,56.4,50.7,30.25,ENE,72,4.0,8.0,81,0.00,,---,0.00,0.00,VWS V14.00,2013-02-10 08:06:00,
2013-02-10 03:07:00,56.4,50.7,30.24,ENE,72,2.0,8.0,81,0.00,,---,0.00,0.00,VWS V14.00,2013-02-10 08:07:00,
2013-02-10 03:08:00,56.4,50.7,30.24,ENE,72,3.0,8.0,81,0.00,,---,0.00,0.00,VWS V14.00,2013-02-10 08:08:00,
2013-02-10 03:09:00,56.3,50.9,30.24,ENE,72,2.0,8.0,82,0.00,,---,0.00,0.00,VWS V14.00,2013-02-10 08:09:00,
2013-02-10 03:10:00,56.3,50.5,30.24,ENE,72,2.0,8.0,81,0.00,,---,0.00,0.00,VWS V14.00,2013-02-10 08:10:00,
2013-02-10 03:11:00,56.2,50.5,30.24,ENE,72,3.0,8.0,81,0.00,,---,0.00,0.00,VWS V14.00,2013-02-10 08:11:00,
2013-02-10 03:12:00,56.1,50.4,30.24,ENE,72,2.0,8.0,81,0.00,,---,0.00,0.00,VWS V14.00,2013-02-10 08:12:00,
2013-02-10 03:13:00,56.1,50.7,30.24,ENE,72,1.0,8.0,82,0.00,,---,0.00,0.00,VWS V14.00,2013-02-10 08:13:00,
2013-02-10 03:14:00,56.0,50.6,30.24,ENE,72,2.0,8.0,82,0.00,,---,0.00,0.00,VWS V14.00,2013-02-10 08:14:00,
2013-02-10 03:15:00,56.0,50.6,30.24,ENE,72,1.0,8.0,82,0.00,,---,0.00,0.00,VWS V14.00,2013-02-10 08:15:00,
2013-02-10 03:16:00,55.9,50.5,30.24,ENE,72,0.0,8.0,82,0.00,,---,0.00,0.00,VWS V14.00,2013-02-10 08:16:00,
2013-02-10 03:17:00,55.9,50.5,30.24,ENE,72,0.0,8.0,82,0.00,,---,0.00,0.00,VWS V14.00,2013-02-10 08:17:00,
2013-02-10 03:18:00,55.8,50.4,30.24,ENE,72,0.0,8.0,82,0.00,,---,0.00,0.00,VWS V14.00,2013-02-10 08:18:00,
2013-02-10 03:19:00,55.8,50.4,30.24,ENE,72,0.0,8.0,82,0.00,,---,0.00,0.00,VWS V14.00,2013-02-10 08:19:00,
2013-02-10 03:20:00,55.7,50.3,30.24,ENE,72,0.0,8.0,82,0.00,,---,0.00,0.00,VWS V14.00,2013-02-10 08:20:00,
2013-02-10 03:21:00,55.7,50.3,30.24,ENE,72,0.0,8.0,82,0.00,,---,0.00,0.00,VWS V14.00,2013-02-10 08:21:00,
2013-02-10 03:22:00,55.7,50.3,30.24,ENE,72,0.0,8.0,82,0.00,,---,0.00,0.00,VWS V14.00,2013-02-10 08:22:00,
2013-02-10 03:23:00,55.7,50.3,30.24,ENE,72,0.0,8.0,82,0.00,,---,0.00,0.00,VWS V14.00,2013-02-10 08:23:00,
2013-02-10 03:24:00,55.7,50.3,30.24,ENE,72,0.0,8.0,82,0.00,,---,0.00,0.00,VWS V14.00,2013-02-10 08:24:00,
2013-02-10 03:25:00,55.6,50.2,30.24,ENE,72,0.0,8.0,82,0.00,,---,0.00,0.00,VWS V14.00,2013-02-10 08:25:00,
2013-02-10 03:26:00,55.6,50.2,30.24,ENE,72,0.0,8.0,82,0.00,,---,0.00,0.00,VWS V14.00,2013-02-10 08:26:00,
2013-02-10 03:27:00,55.6,50.2,30.24,ENE,72,0.0,8.0,82,0.00,,---,0.00,0.00,VWS V14.00,2013-02-10 08:27:00,
2013-02-10 03:28:00,55.6,50.2,30.24,ENE,72,0.0,8.0,82,0.00,,---,0.00,0.00,VWS V14.00,2013-02-10 08:28:00,
2013-02-10 03:29:00,55.5,50.1,30.24,ENE,72,0.0,8.0,82,0.00,,---,0.00,0.00,VWS V14.00,2013-02-10 08:29:00,
2013-02-10 03:30:00,55.5,50.4,30.24,ENE,72,0.0,8.0,83,0.00,,---,0.00,0.00,VWS V14.00,2013-02-10 08:30:00,
2013-02-10 03:31:00,55.5,50.4,30.24,ENE,72,0.0,0.0,83,0.00,,---,0.00,0.00,VWS V14.00,2013-02-10 08:31:00,
2013-02-10 03:32:00,55.5,50.4,30.24,ENE,72,0.0,0.0,83,0.00,,---,0.00,0.00,VWS V14.00,2013-02-10 08:32:00,
2013-02-10 03:33:00,55.5,50.4,30.24,ENE,72,0.0,0.0,83,0.00,,---,0.00,0.00,VWS V14.00,2013-02-10 08:33:00,
2013-02-10 03:34:00,55.5,50.4,30.24,ENE,72,0.0,0.0,83,0.00,,---,0.00,0.00,VWS V14.00,2013-02-10 08:34:00,
2013-02-10 03:35:00,55.5,50.4,30.24,ENE,72,0.0,0.0,83,0.00,,---,0.00,0.00,VWS V14.00,2013-02-10 08:35:00,
2013-02-10 03:36:00,55.5,50.4,30.24,ENE,72,0.0,0.0,83,0.00,,---,0.00,0.00,VWS V14.00,2013-02-10 08:36:00,
2013-02-10 03:37:00,55.5,50.4,30.24,ENE,72,0.0,0.0,83,0.00,,---,0.00,0.00,VWS V14.00,2013-02-10 08:37:00,
2013-02-10 03:38:00,55.5,50.4,30.24,ENE,72,0.0,0.0,83,0.00,,---,0.00,0.00,VWS V14.00,2013-02-10 08:38:00,
2013-02-10 03:39:00,55.6,50.5,30.24,ENE,72,0.0,0.0,83,0.00,,---,0.00,0.00,VWS V14.00,2013-02-10 08:39:00,
2013-02-10 03:40:00,55.6,50.5,30.24,ENE,72,0.0,0.0,83,0.00,,---,0.00,0.00,VWS V14.00,2013-02-10 08:40:00,
2013-02-10 03:41:00,55.7,50.6,30.24,ENE,72,0.0,0.0,83,0.00,,---,0.00,0.00,VWS V14.00,2013-02-10 08:41:00,
2013-02-10 03:42:00,55.7,50.6,30.24,ENE,72,0.0,0.0,83,0.00,,---,0.00,0.00,VWS V14.00,2013-02-10 08:42:00,
2013-02-10 03:43:00,55.7,50.6,30.24,ENE,72,0.0,0.0,83,0.00,,---,0.00,0.00,VWS V14.00,2013-02-10 08:43:00,
2013-02-10 03:44:00,55.7,50.6,30.24,ENE,72,0.0,0.0,83,0.00,,---,0.00,0.00,VWS V14.00,2013-02-10 08:44:00,
2013-02-10 03:45:00,55.7,50.6,30.24,ENE,72,0.0,0.0,83,0.00,,---,0.00,0.00,VWS V14.00,2013-02-10 08:45:00,
2013-02-10 03:46:00,55.7,50.6,30.24,ENE,72,3.0,3.0,83,0.00,,---,0.00,0.00,VWS V14.00,2013-02-10 08:46:00,
2013-02-10 03:47:00,55.7,50.6,30.23,ENE,72,2.0,3.0,83,0.00,,---,0.00,0.00,VWS V14.00,2013-02-10 08:47:00,
2013-02-10 03:48:00,55.8,50.7,30.24,ENE,72,1.0,3.0,83,0.00,,---,0.00,0.00,VWS V14.00,2013-02-10 08:48:00,
2013-02-10 03:49:00,55.8,50.7,30.24,ENE,72,2.0,3.0,83,0.00,,---,0.00,0.00,VWS V14.00,2013-02-10 08:49:00,
2013-02-10 03:50:00,55.8,50.7,30.24,ENE,72,0.0,3.0,83,0.00,,---,0.00,0.00,VWS V14.00,2013-02-10 08:50:00,
2013-02-10 03:51:00,55.8,50.7,30.24,ENE,72,1.0,3.0,83,0.00,,---,0.00,0.00,VWS V14.00,2013-02-10 08:51:00,
2013-02-10 03:52:00,55.8,50.7,30.24,ENE,72,3.0,3.0,83,0.00,,---,0.00,0.00,VWS V14.00,2013-02-10 08:52:00,
2013-02-10 03:53:00,55.8,50.4,30.24,ENE,72,2.0,4.0,82,0.00,,---,0.00,0.00,VWS V14.00,2013-02-10 08:53:00,
2013-02-10 03:54:00,55.7,50.3,30.24,ENE,72,3.0,4.0,82,0.00,,---,0.00,0.00,VWS V14.00,2013-02-10 08:54:00,
2013-02-10 03:55:00,55.8,50.4,30.24,ENE,72,4.0,4.0,82,0.00,,---,0.00,0.00,VWS V14.00,2013-02-10 08:55:00,
2013-02-10 03:56:00,55.8,50.7,30.24,ENE,72,4.0,4.0,83,0.00,,---,0.00,0.00,VWS V14.00,2013-02-10 08:56:00,
2013-02-10 03:57:00,55.8,50.7,30.23,ENE,72,3.0,5.0,83,0.00,,---,0.00,0.00,VWS V14.00,2013-02-10 08:57:00,
2013-02-10 03:58:00,55.8,50.7,30.23,ENE,72,4.0,5.0,83,0.00,,---,0.00,0.00,VWS V14.00,2013-02-10 08:58:00,
2013-02-10 03:59:00,55.8,50.7,30.23,ENE,72,3.0,5.0,83,0.00,,---,0.00,0.00,VWS V14.00,2013-02-10 08:59:00,
2013-02-10 04:00:00,55.8,50.7,30.23,ENE,72,3.0,5.0,83,0.00,,---,0.00,0.00,VWS V14.00,2013-02-10 09:00:00,
2013-02-10 04:01:00,55.8,50.7,30.23,ENE,72,3.0,3.0,83,0.00,,---,0.00,0.00,VWS V14.00,2013-02-10 09:01:00,
2013-02-10 04:02:00,55.7,50.6,30.24,ENE,72,3.0,3.0,83,0.00,,---,0.00,0.00,VWS V14.00,2013-02-10 09:02:00,
2013-02-10 04:03:00,55.8,50.7,30.24,ENE,72,3.0,3.0,83,0.00,,---,0.00,0.00,VWS V14.00,2013-02-10 09:03:00,
2013-02-10 04:04:00,55.8,50.7,30.23,ENE,72,3.0,4.0,83,0.00,,---,0.00,0.00,VWS V14.00,2013-02-10 09:04:00,
2013-02-10 04:05:00,55.8,50.7,30.23,ENE,72,1.0,4.0,83,0.00,,---,0.00,0.00,VWS V14.00,2013-02-10 09:05:00,
2013-02-10 04:06:00,55.8,50.7,30.24,ENE,72,2.0,4.0,83,0.00,,---,0.00,0.00,VWS V14.00,2013-02-10 09:06:00,
2013-02-10 04:07:00,55.7,50.6,30.24,ENE,72,2.0,4.0,83,0.00,,---,0.00,0.00,VWS V14.00,2013-02-10 09:07:00,
2013-02-10 04:08:00,55.7,50.6,30.24,ENE,72,2.0,4.0,83,0.00,,---,0.00,0.00,VWS V14.00,2013-02-10 09:08:00,
2013-02-10 04:09:00,55.7,50.6,30.24,ENE,72,2.0,4.0,83,0.00,,---,0.00,0.00,VWS V14.00,2013-02-10 09:09:00,
2013-02-10 04:10:00,55.7,50.6,30.24,ENE,72,2.0,4.0,83,0.00,,---,0.00,0.00,VWS V14.00,2013-02-10 09:10:00,
2013-02-10 04:11:00,55.7,50.6,30.24,ENE,72,2.0,4.0,83,0.00,,---,0.00,0.00,VWS V14.00,2013-02-10 09:11:00,
2013-02-10 04:12:00,55.7,50.6,30.24,ENE,72,2.0,4.0,83,0.00,,---,0.00,0.00,VWS V14.00,2013-02-10 09:12:00,
2013-02-10 04:13:00,55.7,50.6,30.24,ENE,72,2.0,4.0,83,0.00,,---,0.00,0.00,VWS V14.00,2013-02-10 09:13:00,
2013-02-10 04:14:00,55.7,50.6,30.24,ENE,72,0.0,4.0,83,0.00,,---,0.00,0.00,VWS V14.00,2013-02-10 09:14:00,
2013-02-10 04:15:00,55.7,50.6,30.24,ENE,72,0.0,4.0,83,0.00,,---,0.00,0.00,VWS V14.00,2013-02-10 09:15:00,
2013-02-10 04:16:00,55.7,51.0,30.24,ENE,72,0.0,4.0,84,0.00,,---,0.00,0.00,VWS V14.00,2013-02-10 09:16:00,
2013-02-10 04:17:00,55.7,50.6,30.24,ENE,72,0.0,4.0,83,0.00,,---,0.00,0.00,VWS V14.00,2013-02-10 09:17:00,
2013-02-10 04:18:00,55.7,50.6,30.24,ENE,72,0.0,4.0,83,0.00,,---,0.00,0.00,VWS V14.00,2013-02-10 09:18:00,
2013-02-10 04:19:00,55.7,50.6,30.24,ENE,72,0.0,4.0,83,0.00,,---,0.00,0.00,VWS V14.00,2013-02-10 09:19:00,
2013-02-10 04:20:00,55.6,50.8,30.24,ENE,72,0.0,4.0,84,0.00,,---,0.00,0.00,VWS V14.00,2013-02-10 09:20:00,
2013-02-10 04:21:00,55.7,51.0,30.24,ENE,72,0.0,4.0,84,0.00,,---,0.00,0.00,VWS V14.00,2013-02-10 09:21:00,
2013-02-10 04:22:00,55.6,50.8,30.24,ENE,72,0.0,4.0,84,0.00,,---,0.00,0.00,VWS V14.00,2013-02-10 09:22:00,
2013-02-10 04:23:00,55.6,50.8,30.24,ENE,72,0.0,4.0,84,0.00,,---,0.00,0.00,VWS V14.00,2013-02-10 09:23:00,
2013-02-10 04:24:00,55.6,50.8,30.24,ENE,72,0.0,4.0,84,0.00,,---,0.00,0.00,VWS V14.00,2013-02-10 09:24:00,
2013-02-10 04:25:00,55.6,50.8,30.24,ENE,72,0.0,4.0,84,0.00,,---,0.00,0.00,VWS V14.00,2013-02-10 09:25:00,
2013-02-10 04:26:00,55.6,50.8,30.24,ENE,72,0.0,4.0,84,0.00,,---,0.00,0.00,VWS V14.00,2013-02-10 09:26:00,
2013-02-10 04:27:00,55.6,50.8,30.24,ENE,72,0.0,4.0,84,0.00,,---,0.00,0.00,VWS V14.00,2013-02-10 09:27:00,
2013-02-10 04:28:00,55.6,50.8,30.24,ENE,72,0.0,4.0,84,0.00,,---,0.00,0.00,VWS V14.00,2013-02-10 09:28:00,
2013-02-10 04:29:00,55.6,50.8,30.24,ENE,72,0.0,4.0,84,0.00,,---,0.00,0.00,VWS V14.00,2013-02-10 09:29:00,
2013-02-10 04:30:00,55.6,50.8,30.23,ENE,72,0.0,4.0,84,0.00,,---,0.00,0.00,VWS V14.00,2013-02-10 09:30:00,
2013-02-10 04:31:00,55.6,50.8,30.23,ENE,72,0.0,0.0,84,0.00,,---,0.00,0.00,VWS V14.00,2013-02-10 09:31:00,
2013-02-10 04:32:00,55.6,50.8,30.23,ENE,72,0.0,0.0,84,0.00,,---,0.00,0.00,VWS V14.00,2013-02-10 09:32:00,
2013-02-10 04:33:00,55.6,50.8,30.23,ENE,72,0.0,0.0,84,0.00,,---,0.00,0.00,VWS V14.00,2013-02-10 09:33:00,
2013-02-10 04:34:00,55.5,50.8,30.23,ENE,72,0.0,0.0,84,0.00,,---,0.00,0.00,VWS V14.00,2013-02-10 09:34:00,
2013-02-10 04:35:00,55.5,51.1,30.23,ENE,72,0.0,0.0,85,0.00,,---,0.00,0.00,VWS V14.00,2013-02-10 09:35:00,
2013-02-10 04:36:00,55.5,51.1,30.24,ENE,72,0.0,0.0,85,0.00,,---,0.00,0.00,VWS V14.00,2013-02-10 09:36:00,
2013-02-10 04:37:00,55.4,51.0,30.24,ENE,72,0.0,0.0,85,0.00,,---,0.00,0.00,VWS V14.00,2013-02-10 09:37:00,
2013-02-10 04:38:00,55.4,51.0,30.23,ENE,72,0.0,0.0,85,0.00,,---,0.00,0.00,VWS V14.00,2013-02-10 09:38:00,
2013-02-10 04:39:00,55.4,51.0,30.23,ENE,72,0.0,0.0,85,0.00,,---,0.00,0.00,VWS V14.00,2013-02-10 09:39:00,
2013-02-10 04:40:00,55.4,51.0,30.23,ENE,72,0.0,0.0,85,0.00,,---,0.00,0.00,VWS V14.00,2013-02-10 09:40:00,
2013-02-10 04:41:00,55.4,51.0,30.23,ENE,72,0.0,0.0,85,0.00,,---,0.00,0.00,VWS V14.00,2013-02-10 09:41:00,
2013-02-10 04:42:00,55.2,50.8,30.23,ENE,72,0.0,0.0,85,0.00,,---,0.00,0.00,VWS V14.00,2013-02-10 09:42:00,
2013-02-10 04:43:00,55.1,50.7,30.23,ENE,72,0.0,0.0,85,0.00,,---,0.00,0.00,VWS V14.00,2013-02-10 09:43:00,
2013-02-10 04:44:00,55.1,50.7,30.23,ENE,72,0.0,0.0,85,0.00,,---,0.00,0.00,VWS V14.00,2013-02-10 09:44:00,
2013-02-10 04:45:00,55.1,50.7,30.23,ENE,72,0.0,0.0,85,0.00,,---,0.00,0.00,VWS V14.00,2013-02-10 09:45:00,
2013-02-10 04:46:00,55.1,50.7,30.23,ENE,72,0.0,0.0,85,0.00,,---,0.00,0.00,VWS V14.00,2013-02-10 09:46:00,
2013-02-10 04:47:00,55.0,50.9,30.23,ENE,72,0.0,0.0,86,0.00,,---,0.00,0.00,VWS V14.00,2013-02-10 09:47:00,
2013-02-10 04:48:00,55.0,50.9,30.23,ENE,72,0.0,0.0,86,0.00,,---,0.00,0.00,VWS V14.00,2013-02-10 09:48:00,
2013-02-10 04:49:00,55.0,50.9,30.24,ENE,72,0.0,0.0,86,0.00,,---,0.00,0.00,VWS V14.00,2013-02-10 09:49:00,
2013-02-10 04:50:00,55.0,50.9,30.23,ENE,72,0.0,0.0,86,0.00,,---,0.00,0.00,VWS V14.00,2013-02-10 09:50:00,
2013-02-10 04:51:00,55.0,50.9,30.24,ENE,72,0.0,0.0,86,0.00,,---,0.00,0.00,VWS V14.00,2013-02-10 09:51:00,
2013-02-10 04:52:00,55.0,50.9,30.24,ENE,72,0.0,0.0,86,0.00,,---,0.00,0.00,VWS V14.00,2013-02-10 09:52:00,
2013-02-10 04:53:00,55.0,50.9,30.24,ENE,72,0.0,0.0,86,0.00,,---,0.00,0.00,VWS V14.00,2013-02-10 09:53:00,
2013-02-10 04:54:00,55.0,50.9,30.24,ENE,72,0.0,0.0,86,0.00,,---,0.00,0.00,VWS V14.00,2013-02-10 09:54:00,
2013-02-10 04:55:00,55.0,50.9,30.24,ENE,72,0.0,0.0,86,0.00,,---,0.00,0.00,VWS V14.00,2013-02-10 09:55:00,
2013-02-10 04:56:00,55.0,50.9,30.24,ENE,72,0.0,0.0,86,0.00,,---,0.00,0.00,VWS V14.00,2013-02-10 09:56:00,
2013-02-10 04:57:00,55.0,50.9,30.23,ENE,72,0.0,0.0,86,0.00,,---,0.00,0.00,VWS V14.00,2013-02-10 09:57:00,
2013-02-10 04:58:00,54.9,50.8,30.23,ENE,72,0.0,0.0,86,0.00,,---,0.00,0.00,VWS V14.00,2013-02-10 09:58:00,
2013-02-10 04:59:00,54.9,50.8,30.23,ENE,72,0.0,0.0,86,0.00,,---,0.00,0.00,VWS V14.00,2013-02-10 09:59:00,
2013-02-10 05:00:00,54.9,50.8,30.23,ENE,72,0.0,0.0,86,0.00,,---,0.00,0.00,VWS V14.00,2013-02-10 10:00:00,
2013-02-10 05:01:00,54.9,50.8,30.23,ENE,72,0.0,0.0,86,0.00,,---,0.00,0.00,VWS V14.00,2013-02-10 10:01:00,
2013-02-10 05:02:00,54.9,50.8,30.23,ENE,72,0.0,0.0,86,0.00,,---,0.00,0.00,VWS V14.00,2013-02-10 10:02:00,
2013-02-10 05:03:00,54.9,50.8,30.23,ENE,72,0.0,0.0,86,0.00,,---,0.00,0.00,VWS V14.00,2013-02-10 10:03:00,
2013-02-10 05:04:00,54.9,50.8,30.23,ENE,72,0.0,0.0,86,0.00,,---,0.00,0.00,VWS V14.00,2013-02-10 10:04:00,
2013-02-10 05:05:00,55.0,50.9,30.23,ENE,72,0.0,0.0,86,0.00,,---,0.00,0.00,VWS V14.00,2013-02-10 10:05:00,
2013-02-10 05:06:00,54.9,50.8,30.24,ENE,72,0.0,0.0,86,0.00,,---,0.00,0.00,VWS V14.00,2013-02-10 10:06:00,
2013-02-10 05:07:00,55.0,50.9,30.24,ENE,72,0.0,0.0,86,0.00,,---,0.00,0.00,VWS V14.00,2013-02-10 10:07:00,
2013-02-10 05:08:00,55.0,50.9,30.24,ENE,72,0.0,0.0,86,0.00,,---,0.00,0.00,VWS V14.00,2013-02-10 10:08:00,
2013-02-10 05:09:00,54.9,50.8,30.24,ENE,72,0.0,0.0,86,0.00,,---,0.00,0.00,VWS V14.00,2013-02-10 10:09:00,
2013-02-10 05:10:00,54.9,51.1,30.24,ENE,72,0.0,0.0,87,0.00,,---,0.00,0.00,VWS V14.00,2013-02-10 10:10:00,
2013-02-10 05:11:00,54.9,51.1,30.24,ENE,72,0.0,0.0,87,0.00,,---,0.00,0.00,VWS V14.00,2013-02-10 10:11:00,
2013-02-10 05:12:00,54.9,51.1,30.24,ENE,72,0.0,0.0,87,0.00,,---,0.00,0.00,VWS V14.00,2013-02-10 10:12:00,
2013-02-10 05:13:00,54.9,51.1,30.24,ENE,72,0.0,0.0,87,0.00,,---,0.00,0.00,VWS V14.00,2013-02-10 10:13:00,
2013-02-10 05:14:00,54.9,51.1,30.24,ENE,72,0.0,0.0,87,0.00,,---,0.00,0.00,VWS V14.00,2013-02-10 10:14:00,
2013-02-10 05:15:00,54.9,51.1,30.24,ENE,72,0.0,0.0,87,0.00,,---,0.00,0.00,VWS V14.00,2013-02-10 10:15:00,
2013-02-10 05:16:00,54.9,51.1,30.24,ENE,72,0.0,0.0,87,0.00,,---,0.00,0.00,VWS V14.00,2013-02-10 10:16:00,
2013-02-10 05:17:00,54.9,51.1,30.24,ENE,72,0.0,0.0,87,0.00,,---,0.00,0.00,VWS V14.00,2013-02-10 10:17:00,
2013-02-10 05:18:00,54.9,51.1,30.24,ENE,72,0.0,0.0,87,0.00,,---,0.00,0.00,VWS V14.00,2013-02-10 10:18:00,
2013-02-10 05:19:00,54.9,51.1,30.24,ENE,72,0.0,0.0,87,0.00,,---,0.00,0.00,VWS V14.00,2013-02-10 10:19:00,
2013-02-10 05:20:00,54.9,51.1,30.24,ENE,72,0.0,0.0,87,0.00,,---,0.00,0.00,VWS V14.00,2013-02-10 10:20:00,
2013-02-10 05:21:00,54.8,51.0,30.24,ENE,72,0.0,0.0,87,0.00,,---,0.00,0.00,VWS V14.00,2013-02-10 10:21:00,
2013-02-10 05:22:00,54.8,51.0,30.24,ENE,72,0.0,0.0,87,0.00,,---,0.00,0.00,VWS V14.00,2013-02-10 10:22:00,
2013-02-10 05:23:00,54.7,50.9,30.24,ENE,72,0.0,0.0,87,0.00,,---,0.00,0.00,VWS V14.00,2013-02-10 10:23:00,
2013-02-10 05:24:00,54.7,50.9,30.24,ENE,72,0.0,0.0,87,0.00,,---,0.00,0.00,VWS V14.00,2013-02-10 10:24:00,
2013-02-10 05:25:00,54.6,50.8,30.24,ENE,72,0.0,0.0,87,0.00,,---,0.00,0.00,VWS V14.00,2013-02-10 10:25:00,
2013-02-10 05:26:00,54.6,50.8,30.24,ENE,72,0.0,0.0,87,0.00,,---,0.00,0.00,VWS V14.00,2013-02-10 10:26:00,
2013-02-10 05:27:00,54.5,50.7,30.24,ENE,72,0.0,0.0,87,0.00,,---,0.00,0.00,VWS V14.00,2013-02-10 10:27:00,
2013-02-10 05:28:00,54.4,50.6,30.24,ENE,72,0.0,0.0,87,0.00,,---,0.00,0.00,VWS V14.00,2013-02-10 10:28:00,
2013-02-10 05:29:00,54.3,50.5,30.24,ENE,72,0.0,0.0,87,0.00,,---,0.00,0.00,VWS V14.00,2013-02-10 10:29:00,
2013-02-10 05:30:00,54.2,50.4,30.24,ENE,72,0.0,0.0,87,0.00,,---,0.00,0.00,VWS V14.00,2013-02-10 10:30:00,
2013-02-10 05:31:00,54.2,50.4,30.24,ENE,72,0.0,0.0,87,0.00,,---,0.00,0.00,VWS V14.00,2013-02-10 10:31:00,
2013-02-10 05:32:00,54.0,50.2,30.24,ENE,72,0.0,0.0,87,0.00,,---,0.00,0.00,VWS V14.00,2013-02-10 10:32:00,
2013-02-10 05:33:00,54.0,50.2,30.24,ENE,72,0.0,0.0,87,0.00,,---,0.00,0.00,VWS V14.00,2013-02-10 10:33:00,
2013-02-10 05:34:00,53.9,50.1,30.24,ENE,72,0.0,0.0,87,0.00,,---,0.00,0.00,VWS V14.00,2013-02-10 10:34:00,
2013-02-10 05:35:00,53.9,50.1,30.24,ENE,72,0.0,0.0,87,0.00,,---,0.00,0.00,VWS V14.00,2013-02-10 10:35:00,
2013-02-10 05:36:00,53.8,50.0,30.24,ENE,72,0.0,0.0,87,0.00,,---,0.00,0.00,VWS V14.00,2013-02-10 10:36:00,
2013-02-10 05:37:00,53.7,49.9,30.24,ENE,72,0.0,0.0,87,0.00,,---,0.00,0.00,VWS V14.00,2013-02-10 10:37:00,
2013-02-10 05:38:00,53.7,49.9,30.24,ENE,72,0.0,0.0,87,0.00,,---,0.00,0.00,VWS V14.00,2013-02-10 10:38:00,
2013-02-10 05:39:00,53.6,49.8,30.24,ENE,72,0.0,0.0,87,0.00,,---,0.00,0.00,VWS V14.00,2013-02-10 10:39:00,
2013-02-10 05:40:00,53.5,49.7,30.24,ENE,72,0.0,0.0,87,0.00,,---,0.00,0.00,VWS V14.00,2013-02-10 10:40:00,
2013-02-10 05:41:00,53.5,49.7,30.24,ENE,72,0.0,0.0,87,0.00,,---,0.00,0.00,VWS V14.00,2013-02-10 10:41:00,
2013-02-10 05:42:00,53.4,49.6,30.24,ENE,72,0.0,0.0,87,0.00,,---,0.00,0.00,VWS V14.00,2013-02-10 10:42:00,
2013-02-10 05:43:00,53.3,49.5,30.24,ENE,72,0.0,0.0,87,0.00,,---,0.00,0.00,VWS V14.00,2013-02-10 10:43:00,
2013-02-10 05:44:00,53.3,49.8,30.24,ENE,72,0.0,0.0,88,0.00,,---,0.00,0.00,VWS V14.00,2013-02-10 10:44:00,
2013-02-10 05:45:00,53.3,49.5,30.24,ENE,72,0.0,0.0,87,0.00,,---,0.00,0.00,VWS V14.00,2013-02-10 10:45:00,
2013-02-10 05:46:00,53.3,49.8,30.24,ENE,72,0.0,0.0,88,0.00,,---,0.00,0.00,VWS V14.00,2013-02-10 10:46:00,
2013-02-10 05:47:00,53.3,49.8,30.24,ENE,72,0.0,0.0,88,0.00,,---,0.00,0.00,VWS V14.00,2013-02-10 10:47:00,
2013-02-10 05:48:00,53.2,49.7,30.24,ENE,72,0.0,0.0,88,0.00,,---,0.00,0.00,VWS V14.00,2013-02-10 10:48:00,
2013-02-10 05:49:00,53.2,49.7,30.24,ENE,72,0.0,0.0,88,0.00,,---,0.00,0.00,VWS V14.00,2013-02-10 10:49:00,
2013-02-10 05:50:00,53.2,49.7,30.24,ENE,72,0.0,0.0,88,0.00,,---,0.00,0.00,VWS V14.00,2013-02-10 10:50:00,
2013-02-10 05:51:00,53.2,49.7,30.24,ENE,72,0.0,0.0,88,0.00,,---,0.00,0.00,VWS V14.00,2013-02-10 10:51:00,
2013-02-10 05:52:00,53.3,49.8,30.24,ENE,72,0.0,0.0,88,0.00,,---,0.00,0.00,VWS V14.00,2013-02-10 10:52:00,
2013-02-10 05:53:00,53.3,50.2,30.24,ENE,72,0.0,0.0,89,0.00,,---,0.00,0.00,VWS V14.00,2013-02-10 10:53:00,
2013-02-10 05:54:00,53.4,50.2,30.24,ENE,72,0.0,0.0,89,0.00,,---,0.00,0.00,VWS V14.00,2013-02-10 10:54:00,
2013-02-10 05:55:00,53.5,50.3,30.24,ENE,72,0.0,0.0,89,0.00,,---,0.00,0.00,VWS V14.00,2013-02-10 10:55:00,
2013-02-10 05:56:00,53.5,50.3,30.24,ENE,72,0.0,0.0,89,0.00,,---,0.00,0.00,VWS V14.00,2013-02-10 10:56:00,
2013-02-10 05:57:00,53.6,50.4,30.24,ENE,72,0.0,0.0,89,0.00,,---,0.00,0.00,VWS V14.00,2013-02-10 10:57:00,
2013-02-10 05:58:00,53.7,50.5,30.24,ENE,72,0.0,0.0,89,0.00,,---,0.00,0.00,VWS V14.00,2013-02-10 10:58:00,
2013-02-10 05:59:00,53.7,50.5,30.24,ENE,72,0.0,0.0,89,0.00,,---,0.00,0.00,VWS V14.00,2013-02-10 10:59:00,
2013-02-10 06:00:00,53.7,50.5,30.24,ENE,72,0.0,0.0,89,0.00,,---,0.00,0.00,VWS V14.00,2013-02-10 11:00:00,
2013-02-10 06:01:00,53.8,50.6,30.24,ENE,72,0.0,0.0,89,0.00,,---,0.00,0.00,VWS V14.00,2013-02-10 11:01:00,
2013-02-10 06:02:00,53.8,50.6,30.24,ENE,72,0.0,0.0,89,0.00,,---,0.00,0.00,VWS V14.00,2013-02-10 11:02:00,
2013-02-10 06:03:00,53.8,50.6,30.24,ENE,72,0.0,0.0,89,0.00,,---,0.00,0.00,VWS V14.00,2013-02-10 11:03:00,
2013-02-10 06:04:00,53.8,50.6,30.24,ENE,72,0.0,0.0,89,0.00,,---,0.00,0.00,VWS V14.00,2013-02-10 11:04:00,
2013-02-10 06:05:00,53.8,50.6,30.24,ENE,72,0.0,0.0,89,0.00,,---,0.00,0.00,VWS V14.00,2013-02-10 11:05:00,
2013-02-10 06:06:00,53.8,50.6,30.24,ENE,72,0.0,0.0,89,0.00,,---,0.00,0.00,VWS V14.00,2013-02-10 11:06:00,
2013-02-10 06:07:00,53.8,50.6,30.24,ENE,72,0.0,0.0,89,0.00,,---,0.00,0.00,VWS V14.00,2013-02-10 11:07:00,
2013-02-10 06:08:00,53.9,50.7,30.24,ENE,72,0.0,0.0,89,0.00,,---,0.00,0.00,VWS V14.00,2013-02-10 11:08:00,
2013-02-10 06:09:00,53.9,50.7,30.24,ENE,72,0.0,0.0,89,0.00,,---,0.00,0.00,VWS V14.00,2013-02-10 11:09:00,
2013-02-10 06:10:00,53.9,50.7,30.24,ENE,72,0.0,0.0,89,0.00,,---,0.00,0.00,VWS V14.00,2013-02-10 11:10:00,
2013-02-10 06:11:00,53.9,50.7,30.25,ENE,72,0.0,0.0,89,0.00,,---,0.00,0.00,VWS V14.00,2013-02-10 11:11:00,
2013-02-10 06:12:00,53.9,50.7,30.25,ENE,72,0.0,0.0,89,0.00,,---,0.00,0.00,VWS V14.00,2013-02-10 11:12:00,
2013-02-10 06:13:00,53.9,50.7,30.25,ENE,72,0.0,0.0,89,0.00,,---,0.00,0.00,VWS V14.00,2013-02-10 11:13:00,
2013-02-10 06:14:00,53.9,50.7,30.25,ENE,72,0.0,0.0,89,0.00,,---,0.00,0.00,VWS V14.00,2013-02-10 11:14:00,
2013-02-10 06:15:00,53.9,50.7,30.25,ENE,72,0.0,0.0,89,0.00,,---,0.00,0.00,VWS V14.00,2013-02-10 11:15:00,
2013-02-10 06:16:00,54.0,50.8,30.25,ENE,72,0.0,0.0,89,0.00,,---,0.00,0.00,VWS V14.00,2013-02-10 11:16:00,
2013-02-10 06:17:00,54.0,50.8,30.25,ENE,72,0.0,0.0,89,0.00,,---,0.00,0.00,VWS V14.00,2013-02-10 11:17:00,
2013-02-10 06:18:00,54.0,50.8,30.25,ENE,72,0.0,0.0,89,0.00,,---,0.00,0.00,VWS V14.00,2013-02-10 11:18:00,
2013-02-10 06:19:00,54.0,50.8,30.24,ENE,72,0.0,0.0,89,0.00,,---,0.00,0.00,VWS V14.00,2013-02-10 11:19:00,
2013-02-10 06:20:00,54.0,50.8,30.25,ENE,72,0.0,0.0,89,0.00,,---,0.00,0.00,VWS V14.00,2013-02-10 11:20:00,
2013-02-10 06:21:00,54.0,50.8,30.25,ENE,72,0.0,0.0,89,0.00,,---,0.00,0.00,VWS V14.00,2013-02-10 11:21:00,
2013-02-10 06:22:00,54.0,50.8,30.25,ENE,72,0.0,0.0,89,0.00,,---,0.00,0.00,VWS V14.00,2013-02-10 11:22:00,
2013-02-10 06:23:00,54.0,50.8,30.24,ENE,72,2.0,2.0,89,0.00,,---,0.00,0.00,VWS V14.00,2013-02-10 11:23:00,
2013-02-10 06:24:00,54.1,50.9,30.24,ENE,72,1.0,3.0,89,0.00,,---,0.00,0.00,VWS V14.00,2013-02-10 11:24:00,
2013-02-10 06:25:00,54.0,50.8,30.24,ENE,72,2.0,3.0,89,0.00,,---,0.00,0.00,VWS V14.00,2013-02-10 11:25:00,
2013-02-10 06:26:00,54.0,50.8,30.24,ENE,72,0.0,3.0,89,0.00,,---,0.00,0.00,VWS V14.00,2013-02-10 11:26:00,
2013-02-10 06:27:00,54.0,50.8,30.24,ENE,72,0.0,3.0,89,0.00,,---,0.00,0.00,VWS V14.00,2013-02-10 11:27:00,
2013-02-10 06:28:00,54.0,50.8,30.24,ENE,72,0.0,3.0,89,0.00,,---,0.00,0.00,VWS V14.00,2013-02-10 11:28:00,
2013-02-10 06:29:00,54.0,50.8,30.24,ENE,72,0.0,3.0,89,0.00,,---,0.00,0.00,VWS V14.00,2013-02-10 11:29:00,
2013-02-10 06:30:00,54.0,50.8,30.25,ENE,72,0.0,3.0,89,0.00,,---,0.00,0.00,VWS V14.00,2013-02-10 11:30:00,
2013-02-10 06:31:00,54.0,50.8,30.25,ENE,72,0.0,0.0,89,0.00,,---,0.00,0.00,VWS V14.00,2013-02-10 11:31:00,
2013-02-10 06:32:00,54.1,50.9,30.25,ENE,72,0.0,0.0,89,0.00,,---,0.00,0.00,VWS V14.00,2013-02-10 11:32:00,
2013-02-10 06:33:00,54.1,50.9,30.25,ENE,72,0.0,0.0,89,0.00,,---,0.00,0.00,VWS V14.00,2013-02-10 11:33:00,
2013-02-10 06:34:00,54.2,51.0,30.25,ENE,72,0.0,0.0,89,0.00,,---,0.00,0.00,VWS V14.00,2013-02-10 11:34:00,
2013-02-10 06:35:00,54.2,51.0,30.25,ENE,72,0.0,0.0,89,0.00,,---,0.00,0.00,VWS V14.00,2013-02-10 11:35:00,
2013-02-10 06:36:00,54.3,51.1,30.25,ENE,72,0.0,0.0,89,0.00,,---,0.00,0.00,VWS V14.00,2013-02-10 11:36:00,
2013-02-10 06:37:00,54.3,51.1,30.25,ENE,72,0.0,0.0,89,0.00,,---,0.00,0.00,VWS V14.00,2013-02-10 11:37:00,
2013-02-10 06:38:00,54.3,51.1,30.25,ENE,72,0.0,0.0,89,0.00,,---,0.00,0.00,VWS V14.00,2013-02-10 11:38:00,
2013-02-10 06:39:00,54.3,51.1,30.25,ENE,72,0.0,0.0,89,0.00,,---,0.00,0.00,VWS V14.00,2013-02-10 11:39:00,
2013-02-10 06:40:00,54.4,51.2,30.25,ENE,72,0.0,0.0,89,0.00,,---,0.00,0.00,VWS V14.00,2013-02-10 11:40:00,
2013-02-10 06:41:00,54.4,51.2,30.25,ENE,72,0.0,0.0,89,0.00,,---,0.00,0.00,VWS V14.00,2013-02-10 11:41:00,
2013-02-10 06:42:00,54.4,51.2,30.25,ENE,72,0.0,0.0,89,0.00,,---,0.00,0.00,VWS V14.00,2013-02-10 11:42:00,
2013-02-10 06:43:00,54.4,51.2,30.25,ENE,72,0.0,0.0,89,0.00,,---,0.00,0.00,VWS V14.00,2013-02-10 11:43:00,
2013-02-10 06:44:00,54.4,51.2,30.25,ENE,72,0.0,0.0,89,0.00,,---,0.00,0.00,VWS V14.00,2013-02-10 11:44:00,
2013-02-10 06:45:00,54.4,51.2,30.25,ENE,72,0.0,0.0,89,0.00,,---,0.00,0.00,VWS V14.00,2013-02-10 11:45:00,
2013-02-10 06:46:00,54.5,51.3,30.25,ENE,72,0.0,0.0,89,0.00,,---,0.00,0.00,VWS V14.00,2013-02-10 11:46:00,
2013-02-10 06:47:00,54.5,51.3,30.25,ENE,72,0.0,0.0,89,0.00,,---,0.00,0.00,VWS V14.00,2013-02-10 11:47:00,
2013-02-10 06:48:00,54.5,51.3,30.25,ENE,72,0.0,0.0,89,0.00,,---,0.00,0.00,VWS V14.00,2013-02-10 11:48:00,
2013-02-10 06:49:00,54.5,51.3,30.25,ENE,72,0.0,0.0,89,0.00,,---,0.00,0.00,VWS V14.00,2013-02-10 11:49:00,
2013-02-10 06:50:00,54.5,51.3,30.25,ENE,72,0.0,0.0,89,0.00,,---,0.00,0.00,VWS V14.00,2013-02-10 11:50:00,
2013-02-10 06:51:00,54.5,51.3,30.25,ENE,72,0.0,0.0,89,0.00,,---,0.00,0.00,VWS V14.00,2013-02-10 11:51:00,
2013-02-10 06:52:00,54.6,51.4,30.25,ENE,72,0.0,0.0,89,0.00,,---,0.00,0.00,VWS V14.00,2013-02-10 11:52:00,
2013-02-10 06:53:00,54.6,51.4,30.25,ENE,72,0.0,0.0,89,0.00,,---,0.00,0.00,VWS V14.00,2013-02-10 11:53:00,
2013-02-10 06:54:00,54.6,51.4,30.25,ENE,72,0.0,0.0,89,0.00,,---,0.00,0.00,VWS V14.00,2013-02-10 11:54:00,
2013-02-10 06:55:00,54.6,51.4,30.25,ENE,72,0.0,0.0,89,0.00,,---,0.00,0.00,VWS V14.00,2013-02-10 11:55:00,
2013-02-10 06:56:00,54.6,51.4,30.26,ENE,72,0.0,0.0,89,0.00,,---,0.00,0.00,VWS V14.00,2013-02-10 11:56:00,
2013-02-10 06:57:00,54.7,51.5,30.26,ENE,72,0.0,0.0,89,0.00,,---,0.00,0.00,VWS V14.00,2013-02-10 11:57:00,
2013-02-10 06:58:00,54.6,51.4,30.26,ENE,72,0.0,0.0,89,0.00,,---,0.00,0.00,VWS V14.00,2013-02-10 11:58:00,
2013-02-10 06:59:00,54.7,51.5,30.26,ENE,72,0.0,0.0,89,0.00,,---,0.00,5.00,VWS V14.00,2013-02-10 11:59:00,
2013-02-10 07:00:00,54.7,51.5,30.26,ENE,72,0.0,0.0,89,0.00,,---,0.00,5.00,VWS V14.00,2013-02-10 12:00:00,
2013-02-10 07:01:00,54.6,51.4,30.26,ENE,72,0.0,0.0,89,0.00,,---,0.00,5.00,VWS V14.00,2013-02-10 12:01:00,
2013-02-10 07:02:00,54.6,51.4,30.26,ENE,72,0.0,0.0,89,0.00,,---,0.00,5.00,VWS V14.00,2013-02-10 12:02:00,
2013-02-10 07:03:00,54.6,51.4,30.26,ENE,72,0.0,0.0,89,0.00,,---,0.00,7.00,VWS V14.00,2013-02-10 12:03:00,
2013-02-10 07:04:00,54.6,51.4,30.26,ENE,72,0.0,0.0,89,0.00,,---,0.00,7.00,VWS V14.00,2013-02-10 12:04:00,
2013-02-10 07:05:00,54.7,51.5,30.26,ENE,72,0.0,0.0,89,0.00,,---,0.00,9.00,VWS V14.00,2013-02-10 12:05:00,
2013-02-10 07:06:00,54.7,51.5,30.26,ENE,72,0.0,0.0,89,0.00,,---,0.00,9.00,VWS V14.00,2013-02-10 12:06:00,
2013-02-10 07:07:00,54.7,51.5,30.26,ENE,72,0.0,0.0,89,0.00,,---,0.00,11.00,VWS V14.00,2013-02-10 12:07:00,
2013-02-10 07:08:00,54.7,51.5,30.26,ENE,72,0.0,0.0,89,0.00,,---,0.00,12.00,VWS V14.00,2013-02-10 12:08:00,
2013-02-10 07:09:00,54.7,51.5,30.26,ENE,72,0.0,0.0,89,0.00,,---,0.00,12.00,VWS V14.00,2013-02-10 12:09:00,
2013-02-10 07:10:00,54.8,51.6,30.26,ENE,72,0.0,0.0,89,0.00,,---,0.00,14.00,VWS V14.00,2013-02-10 12:10:00,
2013-02-10 07:11:00,54.8,51.6,30.27,ENE,72,0.0,0.0,89,0.00,,---,0.00,16.00,VWS V14.00,2013-02-10 12:11:00,
2013-02-10 07:12:00,54.8,51.6,30.27,ENE,72,0.0,0.0,89,0.00,,---,0.00,16.00,VWS V14.00,2013-02-10 12:12:00,
2013-02-10 07:13:00,54.8,51.6,30.27,ENE,72,0.0,0.0,89,0.00,,---,0.00,18.00,VWS V14.00,2013-02-10 12:13:00,
2013-02-10 07:14:00,54.8,51.6,30.27,ENE,72,0.0,0.0,89,0.00,,---,0.00,19.00,VWS V14.00,2013-02-10 12:14:00,
2013-02-10 07:15:00,54.9,51.7,30.27,ENE,72,0.0,0.0,89,0.00,,---,0.00,19.00,VWS V14.00,2013-02-10 12:15:00,
2013-02-10 07:16:00,54.9,51.7,30.27,ENE,72,0.0,0.0,89,0.00,,---,0.00,23.00,VWS V14.00,2013-02-10 12:16:00,
2013-02-10 07:17:00,54.9,51.7,30.27,ENE,72,0.0,0.0,89,0.00,,---,0.00,25.00,VWS V14.00,2013-02-10 12:17:00,
2013-02-10 07:18:00,54.9,51.7,30.27,ENE,72,0.0,0.0,89,0.00,,---,0.00,26.00,VWS V14.00,2013-02-10 12:18:00,
2013-02-10 07:19:00,54.9,51.7,30.27,ENE,72,0.0,0.0,89,0.00,,---,0.00,28.00,VWS V14.00,2013-02-10 12:19:00,
2013-02-10 07:20:00,54.9,51.7,30.27,ENE,72,0.0,0.0,89,0.00,,---,0.00,28.00,VWS V14.00,2013-02-10 12:20:00,
2013-02-10 07:21:00,54.9,51.7,30.27,ENE,72,0.0,0.0,89,0.00,,---,0.00,33.00,VWS V14.00,2013-02-10 12:21:00,
2013-02-10 07:22:00,54.9,51.7,30.27,ENE,72,0.0,0.0,89,0.00,,---,0.00,37.00,VWS V14.00,2013-02-10 12:22:00,
2013-02-10 07:23:00,55.0,51.8,30.27,ENE,72,0.0,0.0,89,0.00,,---,0.00,39.00,VWS V14.00,2013-02-10 12:23:00,
2013-02-10 07:24:00,55.1,51.9,30.27,ENE,72,0.0,0.0,89,0.00,,---,0.00,42.00,VWS V14.00,2013-02-10 12:24:00,
2013-02-10 07:25:00,55.2,52.3,30.27,ENE,72,0.0,0.0,90,0.00,,---,0.00,44.00,VWS V14.00,2013-02-10 12:25:00,
2013-02-10 07:26:00,55.2,52.3,30.27,ENE,72,0.0,0.0,90,0.00,,---,0.00,47.00,VWS V14.00,2013-02-10 12:26:00,
2013-02-10 07:27:00,55.3,52.4,30.27,ENE,72,0.0,0.0,90,0.00,,---,0.00,49.00,VWS V14.00,2013-02-10 12:27:00,
2013-02-10 07:28:00,55.4,52.5,30.27,ENE,72,0.0,0.0,90,0.00,,---,0.00,53.00,VWS V14.00,2013-02-10 12:28:00,
2013-02-10 07:29:00,55.4,52.5,30.27,ENE,72,0.0,0.0,90,0.00,,---,0.00,53.00,VWS V14.00,2013-02-10 12:29:00,
2013-02-10 07:30:00,55.5,52.6,30.27,ENE,72,0.0,0.0,90,0.00,,---,0.00,47.00,VWS V14.00,2013-02-10 12:30:00,
2013-02-10 07:31:00,55.5,52.6,30.27,ENE,72,0.0,0.0,90,0.00,,---,0.00,51.00,VWS V14.00,2013-02-10 12:31:00,
2013-02-10 07:32:00,55.6,52.7,30.27,ENE,72,0.0,0.0,90,0.00,,---,0.00,60.00,VWS V14.00,2013-02-10 12:32:00,
2013-02-10 07:33:00,55.6,52.4,30.27,ENE,72,0.0,0.0,89,0.00,,---,0.00,49.00,VWS V14.00,2013-02-10 12:33:00,
2013-02-10 07:34:00,55.6,52.4,30.27,ENE,72,0.0,0.0,89,0.00,,---,0.00,49.00,VWS V14.00,2013-02-10 12:34:00,
2013-02-10 07:35:00,55.6,52.4,30.27,ENE,72,0.0,0.0,89,0.00,,---,0.00,47.00,VWS V14.00,2013-02-10 12:35:00,
2013-02-10 07:36:00,55.6,52.4,30.27,ENE,72,0.0,0.0,89,0.00,,---,0.00,60.00,VWS V14.00,2013-02-10 12:36:00,
2013-02-10 07:37:00,55.7,52.5,30.27,ENE,72,0.0,0.0,89,0.00,,---,0.00,84.00,VWS V14.00,2013-02-10 12:37:00,
2013-02-10 07:38:00,55.6,52.4,30.27,ENE,72,0.0,0.0,89,0.00,,---,0.00,70.00,VWS V14.00,2013-02-10 12:38:00,
2013-02-10 07:39:00,55.7,52.5,30.27,ENE,72,0.0,0.0,89,0.00,,---,0.00,97.00,VWS V14.00,2013-02-10 12:39:00,
2013-02-10 07:40:00,55.7,52.5,30.27,ENE,72,0.0,0.0,89,0.00,,---,0.00,97.00,VWS V14.00,2013-02-10 12:40:00,
2013-02-10 07:41:00,55.7,52.5,30.27,ENE,72,0.0,0.0,89,0.00,,---,0.00,69.00,VWS V14.00,2013-02-10 12:41:00,
2013-02-10 07:42:00,55.7,52.5,30.27,ENE,72,0.0,0.0,89,0.00,,---,0.00,79.00,VWS V14.00,2013-02-10 12:42:00,
2013-02-10 07:43:00,55.7,52.5,30.27,ENE,72,0.0,0.0,89,0.00,,---,0.00,69.00,VWS V14.00,2013-02-10 12:43:00,
2013-02-10 07:44:00,55.7,52.5,30.27,ENE,72,0.0,0.0,89,0.00,,---,0.00,72.00,VWS V14.00,2013-02-10 12:44:00,
2013-02-10 07:45:00,55.7,52.5,30.27,ENE,72,0.0,0.0,89,0.00,,---,0.00,98.00,VWS V14.00,2013-02-10 12:45:00,
2013-02-10 07:46:00,55.7,52.5,30.27,ENE,72,0.0,0.0,89,0.00,,---,0.00,100.00,VWS V14.00,2013-02-10 12:46:00,
2013-02-10 07:47:00,55.7,52.5,30.27,ENE,72,0.0,0.0,89,0.00,,---,0.00,114.00,VWS V14.00,2013-02-10 12:47:00,
2013-02-10 07:48:00,55.7,52.5,30.27,ENE,72,0.0,0.0,89,0.00,,---,0.00,116.00,VWS V14.00,2013-02-10 12:48:00,
2013-02-10 07:49:00,55.7,52.5,30.27,ENE,72,0.0,0.0,89,0.00,,---,0.00,116.00,VWS V14.00,2013-02-10 12:49:00,
2013-02-10 07:50:00,55.7,52.5,30.28,ENE,72,0.0,0.0,89,0.00,,---,0.00,123.00,VWS V14.00,2013-02-10 12:50:00,
2013-02-10 07:51:00,55.7,52.5,30.28,ENE,72,0.0,0.0,89,0.00,,---,0.00,125.00,VWS V14.00,2013-02-10 12:51:00,
2013-02-10 07:52:00,55.7,52.5,30.28,ENE,72,0.0,0.0,89,0.00,,---,0.00,125.00,VWS V14.00,2013-02-10 12:52:00,
2013-02-10 07:53:00,55.7,52.5,30.28,ENE,72,0.0,0.0,89,0.00,,---,0.00,125.00,VWS V14.00,2013-02-10 12:53:00,
2013-02-10 07:54:00,55.7,52.5,30.28,ENE,72,0.0,0.0,89,0.00,,---,0.00,123.00,VWS V14.00,2013-02-10 12:54:00,
2013-02-10 07:55:00,55.8,52.6,30.28,ENE,72,0.0,0.0,89,0.00,,---,0.00,123.00,VWS V14.00,2013-02-10 12:55:00,
2013-02-10 07:56:00,55.8,52.6,30.28,ENE,72,0.0,0.0,89,0.00,,---,0.00,125.00,VWS V14.00,2013-02-10 12:56:00,
2013-02-10 07:57:00,55.8,52.6,30.28,ENE,72,0.0,0.0,89,0.00,,---,0.00,98.00,VWS V14.00,2013-02-10 12:57:00,
2013-02-10 07:58:00,55.9,52.7,30.28,ENE,72,0.0,0.0,89,0.00,,---,0.00,132.00,VWS V14.00,2013-02-10 12:58:00,
2013-02-10 07:59:00,55.9,52.7,30.28,ENE,72,0.0,0.0,89,0.00,,---,0.00,127.00,VWS V14.00,2013-02-10 12:59:00,
2013-02-10 08:00:00,55.9,52.7,30.28,ENE,72,0.0,0.0,89,0.00,,---,0.00,113.00,VWS V14.00,2013-02-10 13:00:00,
2013-02-10 08:01:00,55.9,52.4,30.28,ENE,72,0.0,0.0,88,0.00,,---,0.00,125.00,VWS V14.00,2013-02-10 13:01:00,
2013-02-10 08:02:00,55.9,52.4,30.28,ENE,72,0.0,0.0,88,0.00,,---,0.00,114.00,VWS V14.00,2013-02-10 13:02:00,
2013-02-10 08:03:00,55.9,52.4,30.28,ENE,72,0.0,0.0,88,0.00,,---,0.00,132.00,VWS V14.00,2013-02-10 13:03:00,
2013-02-10 08:04:00,56.0,52.5,30.28,ENE,72,0.0,0.0,88,0.00,,---,0.00,148.00,VWS V14.00,2013-02-10 13:04:00,
2013-02-10 08:05:00,56.0,52.5,30.28,ENE,72,0.0,0.0,88,0.00,,---,0.00,139.00,VWS V14.00,2013-02-10 13:05:00,
2013-02-10 08:06:00,56.1,52.6,30.28,ENE,72,0.0,0.0,88,0.00,,---,0.00,137.00,VWS V14.00,2013-02-10 13:06:00,
2013-02-10 08:07:00,56.2,52.7,30.28,ENE,72,0.0,0.0,88,0.00,,---,0.00,148.00,VWS V14.00,2013-02-10 13:07:00,
2013-02-10 08:08:00,56.3,52.8,30.28,ENE,72,0.0,0.0,88,0.00,,---,0.00,176.00,VWS V14.00,2013-02-10 13:08:00,
2013-02-10 08:09:00,56.3,52.8,30.28,ENE,72,0.0,0.0,88,0.00,,---,0.00,176.00,VWS V14.00,2013-02-10 13:09:00,
2013-02-10 08:10:00,56.7,53.2,30.28,ENE,72,0.0,0.0,88,0.00,,---,0.00,176.00,VWS V14.00,2013-02-10 13:10:00,
2013-02-10 08:11:00,56.9,53.7,30.28,ENE,72,0.0,0.0,89,0.00,,---,0.00,202.00,VWS V14.00,2013-02-10 13:11:00,
2013-02-10 08:12:00,57.1,53.9,30.29,ENE,72,0.0,0.0,89,0.00,,---,0.00,209.00,VWS V14.00,2013-02-10 13:12:00,
2013-02-10 08:13:00,57.5,54.6,30.29,ENE,72,1.0,2.0,90,0.00,,---,0.00,211.00,VWS V14.00,2013-02-10 13:13:00,
2013-02-10 08:14:00,57.8,54.9,30.29,ENE,72,2.0,2.0,90,0.00,,---,0.00,223.00,VWS V14.00,2013-02-10 13:14:00,
2013-02-10 08:15:00,58.4,55.5,30.29,ENE,72,3.0,4.0,90,0.00,,---,0.00,230.00,VWS V14.00,2013-02-10 13:15:00,
2013-02-10 08:16:00,58.7,55.5,30.29,ENE,72,1.0,4.0,89,0.00,,---,0.00,239.00,VWS V14.00,2013-02-10 13:16:00,
2013-02-10 08:17:00,59.2,55.3,30.29,ENE,75,3.0,4.0,87,0.00,,---,0.00,248.00,VWS V14.00,2013-02-10 13:17:00,
2013-02-10 08:18:00,59.6,55.1,30.29,East,83,3.0,4.0,85,0.00,,---,0.00,257.00,VWS V14.00,2013-02-10 13:18:00,
2013-02-10 08:19:00,60.0,55.2,30.29,ESE,116,4.0,5.0,84,0.00,,---,0.00,262.00,VWS V14.00,2013-02-10 13:19:00,
2013-02-10 08:20:00,60.4,55.2,30.29,ESE,117,6.0,6.0,83,0.00,,---,0.00,271.00,VWS V14.00,2013-02-10 13:20:00,
2013-02-10 08:21:00,60.7,55.2,30.29,ESE,116,4.0,8.0,82,0.00,,---,0.00,276.00,VWS V14.00,2013-02-10 13:21:00,
2013-02-10 08:22:00,61.0,55.1,30.29,ESE,116,3.0,8.0,81,0.00,,---,0.00,283.00,VWS V14.00,2013-02-10 13:22:00,
2013-02-10 08:23:00,61.3,55.1,30.29,ESE,116,4.0,8.0,80,0.00,,---,0.00,290.00,VWS V14.00,2013-02-10 13:23:00,
2013-02-10 08:24:00,61.5,54.6,30.29,ESE,122,5.0,8.0,78,0.00,,---,0.00,297.00,VWS V14.00,2013-02-10 13:24:00,
2013-02-10 08:25:00,61.7,54.4,30.30,ESE,120,3.0,8.0,77,0.00,,---,0.00,301.00,VWS V14.00,2013-02-10 13:25:00,
2013-02-10 08:26:00,62.0,55.1,30.30,SE,124,4.0,8.0,78,0.00,,---,0.00,308.00,VWS V14.00,2013-02-10 13:26:00,
2013-02-10 08:27:00,62.2,54.9,30.29,ESE,122,4.0,8.0,77,0.00,,---,0.00,306.00,VWS V14.00,2013-02-10 13:27:00,
2013-02-10 08:28:00,62.3,54.7,30.29,ESE,122,5.0,8.0,76,0.00,,---,0.00,309.00,VWS V14.00,2013-02-10 13:28:00,
2013-02-10 08:29:00,62.5,54.5,30.29,ESE,122,4.0,8.0,75,0.00,,---,0.00,313.00,VWS V14.00,2013-02-10 13:29:00,
2013-02-10 08:30:00,62.6,55.3,30.29,ESE,122,6.0,8.0,77,0.00,,---,0.00,287.00,VWS V14.00,2013-02-10 13:30:00,
2013-02-10 08:31:00,62.8,54.8,30.29,ESE,117,9.0,9.0,75,0.00,,---,0.00,251.00,VWS V14.00,2013-02-10 13:31:00,
2013-02-10 08:32:00,62.9,54.1,30.29,ESE,120,8.0,9.0,73,0.00,,---,0.00,287.00,VWS V14.00,2013-02-10 13:32:00,
2013-02-10 08:33:00,63.0,54.2,30.29,ESE,120,4.0,9.0,73,0.00,,---,0.00,116.00,VWS V14.00,2013-02-10 13:33:00,
2013-02-10 08:34:00,63.1,54.3,30.29,ESE,120,4.0,9.0,73,0.00,,---,0.00,116.00,VWS V14.00,2013-02-10 13:34:00,
2013-02-10 08:35:00,63.1,54.3,30.29,SE,134,5.0,9.0,73,0.00,,---,0.00,283.00,VWS V14.00,2013-02-10 13:35:00,
2013-02-10 08:36:00,63.2,54.4,30.29,ESE,123,6.0,9.0,73,0.00,,---,0.00,297.00,VWS V14.00,2013-02-10 13:36:00,
2013-02-10 08:37:00,63.3,54.1,30.29,East,96,7.0,10.0,72,0.00,,---,0.00,77.00,VWS V14.00,2013-02-10 13:37:00,
2013-02-10 08:38:00,63.3,54.5,30.28,SE,136,5.0,10.0,73,0.00,,---,0.00,83.00,VWS V14.00,2013-02-10 13:38:00,
2013-02-10 08:39:00,63.4,54.2,30.29,ESE,110,8.0,10.0,72,0.00,,---,0.00,83.00,VWS V14.00,2013-02-10 13:39:00,
2013-02-10 08:40:00,63.4,54.2,30.29,SE,130,5.0,10.0,72,0.00,,---,0.00,83.00,VWS V14.00,2013-02-10 13:40:00,
2013-02-10 08:41:00,63.3,54.1,30.29,ESE,105,7.0,10.0,72,0.00,,---,0.00,76.00,VWS V14.00,2013-02-10 13:41:00,
2013-02-10 08:42:00,63.3,53.8,30.29,ESE,114,8.0,10.0,71,0.00,,---,0.00,69.00,VWS V14.00,2013-02-10 13:42:00,
2013-02-10 08:43:00,63.4,53.8,30.29,ESE,121,8.0,10.0,71,0.00,,---,0.00,72.00,VWS V14.00,2013-02-10 13:43:00,
2013-02-10 08:44:00,63.4,53.8,30.29,SE,135,6.0,10.0,71,0.00,,---,0.00,72.00,VWS V14.00,2013-02-10 13:44:00,
2013-02-10 08:45:00,63.4,53.8,30.29,ESE,122,9.0,10.0,71,0.00,,---,0.00,315.00,VWS V14.00,2013-02-10 13:45:00,
2013-02-10 08:46:00,63.5,53.9,30.29,SE,129,6.0,10.0,71,0.00,,---,0.00,318.00,VWS V14.00,2013-02-10 13:46:00,
2013-02-10 08:47:00,63.6,54.0,30.29,SE,133,7.0,10.0,71,0.00,,---,0.00,320.00,VWS V14.00,2013-02-10 13:47:00,
2013-02-10 08:48:00,63.7,54.1,30.29,SE,126,5.0,10.0,71,0.00,,---,0.00,323.00,VWS V14.00,2013-02-10 13:48:00,
2013-02-10 08:49:00,63.8,54.2,30.29,SE,134,10.0,10.0,71,0.00,,---,0.00,327.00,VWS V14.00,2013-02-10 13:49:00,
2013-02-10 08:50:00,63.9,53.9,30.29,SE,139,9.0,10.0,70,0.00,,---,0.00,329.00,VWS V14.00,2013-02-10 13:50:00,
2013-02-10 08:51:00,64.0,53.6,30.29,ESE,113,8.0,10.0,69,0.00,,---,0.00,332.00,VWS V14.00,2013-02-10 13:51:00,
2013-02-10 08:52:00,64.0,54.0,30.29,ESE,116,5.0,10.0,70,0.00,,---,0.00,334.00,VWS V14.00,2013-02-10 13:52:00,
2013-02-10 08:53:00,64.0,53.6,30.29,ESE,115,6.0,10.0,69,0.00,,---,0.00,338.00,VWS V14.00,2013-02-10 13:53:00,
2013-02-10 08:54:00,64.1,54.1,30.29,ESE,120,6.0,10.0,70,0.00,,---,0.00,341.00,VWS V14.00,2013-02-10 13:54:00,
2013-02-10 08:55:00,64.1,53.7,30.29,ESE,112,4.0,10.0,69,0.00,,---,0.00,348.00,VWS V14.00,2013-02-10 13:55:00,
2013-02-10 08:56:00,64.2,54.2,30.29,SSE,163,7.0,10.0,70,0.00,,---,0.00,353.00,VWS V14.00,2013-02-10 13:56:00,
2013-02-10 08:57:00,64.3,53.9,30.29,SE,127,6.0,10.0,69,0.00,,---,0.00,357.00,VWS V14.00,2013-02-10 13:57:00,
2013-02-10 08:58:00,64.3,54.3,30.29,ESE,122,7.0,10.0,70,0.00,,---,0.00,364.00,VWS V14.00,2013-02-10 13:58:00,
2013-02-10 08:59:00,64.4,54.0,30.29,ESE,122,6.0,10.0,69,0.00,,---,0.00,369.00,VWS V14.00,2013-02-10 13:59:00,
2013-02-10 09:00:00,64.5,54.1,30.30,SE,142,9.0,10.0,69,0.00,,---,0.00,369.00,VWS V14.00,2013-02-10 14:00:00,
2013-02-10 09:01:00,64.5,53.7,30.30,SE,125,8.0,9.0,68,0.00,,---,0.00,381.00,VWS V14.00,2013-02-10 14:01:00,
2013-02-10 09:02:00,64.6,54.2,30.30,ESE,120,10.0,10.0,69,0.00,,---,0.00,388.00,VWS V14.00,2013-02-10 14:02:00,
2013-02-10 09:03:00,64.7,53.9,30.30,ESE,118,10.0,11.0,68,0.00,,---,0.00,390.00,VWS V14.00,2013-02-10 14:03:00,
2013-02-10 09:04:00,64.7,53.9,30.30,ESE,114,9.0,11.0,68,0.00,,---,0.00,394.00,VWS V14.00,2013-02-10 14:04:00,
2013-02-10 09:05:00,64.8,54.0,30.30,ESE,118,6.0,11.0,68,0.00,,---,0.00,396.00,VWS V14.00,2013-02-10 14:05:00,
2013-02-10 09:06:00,64.8,54.0,30.30,ESE,123,7.0,11.0,68,0.00,,---,0.00,285.00,VWS V14.00,2013-02-10 14:06:00,
2013-02-10 09:07:00,64.9,54.1,30.30,ESE,122,5.0,11.0,68,0.00,,---,0.00,318.00,VWS V14.00,2013-02-10 14:07:00,
2013-02-10 09:08:00,64.9,54.1,30.30,SE,126,5.0,11.0,68,0.00,,---,0.00,318.00,VWS V14.00,2013-02-10 14:08:00,
2013-02-10 09:09:00,65.0,54.2,30.30,ESE,110,7.0,11.0,68,0.00,,---,0.00,207.00,VWS V14.00,2013-02-10 14:09:00,
2013-02-10 09:10:00,65.0,53.8,30.30,ESE,116,9.0,11.0,67,0.00,,---,0.00,207.00,VWS V14.00,2013-02-10 14:10:00,
2013-02-10 09:11:00,65.0,53.8,30.30,ESE,114,9.0,11.0,67,0.00,,---,0.00,381.00,VWS V14.00,2013-02-10 14:11:00,
2013-02-10 09:12:00,65.1,53.9,30.30,ESE,117,7.0,11.0,67,0.00,,---,0.00,380.00,VWS V14.00,2013-02-10 14:12:00,
2013-02-10 09:13:00,65.1,53.9,30.30,SE,128,7.0,11.0,67,0.00,,---,0.00,380.00,VWS V14.00,2013-02-10 14:13:00,
2013-02-10 09:14:00,65.2,54.0,30.30,ESE,109,8.0,11.0,67,0.00,,---,0.00,381.00,VWS V14.00,2013-02-10 14:14:00,
2013-02-10 09:15:00,65.3,54.1,30.30,ESE,112,6.0,11.0,67,0.00,,---,0.00,345.00,VWS V14.00,2013-02-10 14:15:00,
2013-02-10 09:16:00,65.4,54.2,30.30,ESE,119,6.0,11.0,67,0.00,,---,0.00,383.00,VWS V14.00,2013-02-10 14:16:00,
2013-02-10 09:17:00,65.4,54.2,30.30,ESE,102,6.0,11.0,67,0.00,,---,0.00,383.00,VWS V14.00,2013-02-10 14:17:00,
2013-02-10 09:18:00,65.5,54.3,30.30,East,97,7.0,11.0,67,0.00,,---,0.00,385.00,VWS V14.00,2013-02-10 14:18:00,
2013-02-10 09:19:00,65.5,54.3,30.30,ESE,104,9.0,11.0,67,0.00,,---,0.00,385.00,VWS V14.00,2013-02-10 14:19:00,
2013-02-10 09:20:00,65.5,54.7,30.30,ESE,120,8.0,11.0,68,0.00,,---,0.00,383.00,VWS V14.00,2013-02-10 14:20:00,
2013-02-10 09:21:00,65.5,54.3,30.30,ESE,111,8.0,11.0,67,0.00,,---,0.00,387.00,VWS V14.00,2013-02-10 14:21:00,
2013-02-10 09:22:00,65.5,54.3,30.30,ESE,121,7.0,11.0,67,0.00,,---,0.00,383.00,VWS V14.00,2013-02-10 14:22:00,
2013-02-10 09:23:00,65.6,54.4,30.30,ESE,114,8.0,11.0,67,0.00,,---,0.00,369.00,VWS V14.00,2013-02-10 14:23:00,
2013-02-10 09:24:00,65.6,54.4,30.30,ESE,108,11.0,11.0,67,0.00,,---,0.00,346.00,VWS V14.00,2013-02-10 14:24:00,
2013-02-10 09:25:00,65.7,54.0,30.30,ESE,120,8.0,11.0,66,0.00,,---,0.00,320.00,VWS V14.00,2013-02-10 14:25:00,
2013-02-10 09:26:00,65.8,54.5,30.30,SE,135,7.0,11.0,67,0.00,,---,0.00,401.00,VWS V14.00,2013-02-10 14:26:00,
2013-02-10 09:27:00,65.8,54.5,30.30,SSE,149,9.0,11.0,67,0.00,,---,0.00,399.00,VWS V14.00,2013-02-10 14:27:00,
2013-02-10 09:28:00,66.0,53.9,30.30,ESE,120,10.0,11.0,65,0.00,,---,0.00,399.00,VWS V14.00,2013-02-10 14:28:00,
2013-02-10 09:29:00,66.1,54.0,30.29,ESE,115,9.0,12.0,65,0.00,,---,0.00,401.00,VWS V14.00,2013-02-10 14:29:00,
2013-02-10 09:30:00,66.1,54.0,30.29,ESE,108,15.0,15.0,65,0.00,,---,0.00,406.00,VWS V14.00,2013-02-10 14:30:00,
2013-02-10 09:31:00,66.1,54.0,30.29,ESE,116,11.0,18.0,65,0.00,,---,0.00,410.00,VWS V14.00,2013-02-10 14:31:00,
2013-02-10 09:32:00,66.1,54.0,30.29,ESE,114,13.0,18.0,65,0.00,,---,0.00,417.00,VWS V14.00,2013-02-10 14:32:00,
2013-02-10 09:33:00,66.1,54.0,30.29,SE,138,17.0,18.0,65,0.00,,---,0.00,420.00,VWS V14.00,2013-02-10 14:33:00,
2013-02-10 09:34:00,66.1,54.0,30.29,ESE,110,13.0,18.0,65,0.00,,---,0.00,420.00,VWS V14.00,2013-02-10 14:34:00,
2013-02-10 09:35:00,66.1,54.0,30.29,ESE,118,12.0,18.0,65,0.00,,---,0.00,427.00,VWS V14.00,2013-02-10 14:35:00,
2013-02-10 09:36:00,66.1,54.0,30.29,ESE,114,11.0,18.0,65,0.00,,---,0.00,424.00,VWS V14.00,2013-02-10 14:36:00,
2013-02-10 09:37:00,66.2,54.1,30.29,ESE,122,8.0,18.0,65,0.00,,---,0.00,441.00,VWS V14.00,2013-02-10 14:37:00,
2013-02-10 09:38:00,66.2,54.5,30.29,SE,137,10.0,19.0,66,0.00,,---,0.00,448.00,VWS V14.00,2013-02-10 14:38:00,
2013-02-10 09:39:00,66.2,53.7,30.29,SE,125,7.0,19.0,64,0.00,,---,0.00,445.00,VWS V14.00,2013-02-10 14:39:00,
2013-02-10 09:40:00,66.3,53.8,30.29,SE,130,8.0,19.0,64,0.00,,---,0.00,457.00,VWS V14.00,2013-02-10 14:40:00,
2013-02-10 09:41:00,66.4,53.4,30.29,SE,129,10.0,19.0,63,0.00,,---,0.00,466.00,VWS V14.00,2013-02-10 14:41:00,
2013-02-10 09:42:00,66.5,54.0,30.29,ESE,113,10.0,19.0,64,0.00,,---,0.00,466.00,VWS V14.00,2013-02-10 14:42:00,
2013-02-10 09:43:00,66.5,53.5,30.29,ESE,113,11.0,19.0,63,0.00,,---,0.00,482.00,VWS V14.00,2013-02-10 14:43:00,
2013-02-10 09:44:00,66.5,53.5,30.29,SSE,147,10.0,19.0,63,0.00,,---,0.00,485.00,VWS V14.00,2013-02-10 14:44:00,
2013-02-10 09:45:00,66.5,53.5,30.29,ESE,119,10.0,19.0,63,0.00,,---,0.00,471.00,VWS V14.00,2013-02-10 14:45:00,
2013-02-10 09:46:00,66.6,54.1,30.29,East,97,12.0,19.0,64,0.00,,---,0.00,489.00,VWS V14.00,2013-02-10 14:46:00,
2013-02-10 09:47:00,66.6,54.1,30.29,ESE,116,12.0,19.0,64,0.00,,---,0.00,492.00,VWS V14.00,2013-02-10 14:47:00,
2013-02-10 09:48:00,66.6,53.6,30.29,ESE,108,16.0,19.0,63,0.00,,---,0.00,496.00,VWS V14.00,2013-02-10 14:48:00,
2013-02-10 09:49:00,66.6,53.6,30.29,ESE,118,17.0,19.0,63,0.00,,---,0.00,499.00,VWS V14.00,2013-02-10 14:49:00,
2013-02-10 09:50:00,66.6,53.6,30.29,East,100,18.0,23.0,63,0.00,,---,0.00,504.00,VWS V14.00,2013-02-10 14:50:00,
2013-02-10 09:51:00,66.6,53.2,30.29,ESE,123,16.0,23.0,62,0.00,,---,0.00,506.00,VWS V14.00,2013-02-10 14:51:00,
2013-02-10 09:52:00,66.6,53.2,30.29,SE,145,16.0,23.0,62,0.00,,---,0.00,515.00,VWS V14.00,2013-02-10 14:52:00,
2013-02-10 09:53:00,66.6,53.6,30.29,ESE,122,10.0,23.0,63,0.00,,---,0.00,420.00,VWS V14.00,2013-02-10 14:53:00,
2013-02-10 09:54:00,66.7,53.7,30.29,ESE,120,12.0,23.0,63,0.00,,---,0.00,434.00,VWS V14.00,2013-02-10 14:54:00,
2013-02-10 09:55:00,66.8,53.8,30.29,SE,133,14.0,23.0,63,0.00,,---,0.00,533.00,VWS V14.00,2013-02-10 14:55:00,
2013-02-10 09:56:00,66.8,53.8,30.29,SE,126,16.0,23.0,63,0.00,,---,0.00,545.00,VWS V14.00,2013-02-10 14:56:00,
2013-02-10 09:57:00,66.8,53.8,30.30,ESE,118,13.0,23.0,63,0.00,,---,0.00,552.00,VWS V14.00,2013-02-10 14:57:00,
2013-02-10 09:58:00,66.8,53.4,30.29,SE,126,12.0,23.0,62,0.00,,---,0.00,552.00,VWS V14.00,2013-02-10 14:58:00,
2013-02-10 09:59:00,66.9,53.9,30.29,SE,128,11.0,23.0,63,0.00,,---,0.00,573.00,VWS V14.00,2013-02-10 14:59:00,
2013-02-10 10:00:00,67.0,54.0,30.29,ESE,120,17.0,23.0,63,0.00,,---,0.00,584.00,VWS V14.00,2013-02-10 15:00:00,
2013-02-10 10:01:00,67.0,54.0,30.29,South,185,12.0,17.0,63,0.00,,---,0.00,584.00,VWS V14.00,2013-02-10 15:01:00,
2013-02-10 10:02:00,67.1,54.1,30.29,ESE,119,16.0,17.0,63,0.00,,---,0.00,496.00,VWS V14.00,2013-02-10 15:02:00,
2013-02-10 10:03:00,67.2,53.8,30.29,SSE,148,14.0,17.0,62,0.00,,---,0.00,577.00,VWS V14.00,2013-02-10 15:03:00,
2013-02-10 10:04:00,67.3,53.4,30.29,ESE,114,13.0,17.0,61,0.00,,---,0.00,594.00,VWS V14.00,2013-02-10 15:04:00,
2013-02-10 10:05:00,67.3,53.4,30.29,SE,127,18.0,18.0,61,0.00,,---,0.00,594.00,VWS V14.00,2013-02-10 15:05:00,
2013-02-10 10:06:00,67.3,53.4,30.29,SE,137,13.0,18.0,61,0.00,,---,0.00,520.00,VWS V14.00,2013-02-10 15:06:00,
2013-02-10 10:07:00,67.3,53.4,30.29,SE,129,15.0,20.0,61,0.00,,---,0.00,520.00,VWS V14.00,2013-02-10 15:07:00,
2013-02-10 10:08:00,67.3,53.4,30.29,ESE,108,10.0,20.0,61,0.00,,---,0.00,613.00,VWS V14.00,2013-02-10 15:08:00,
2013-02-10 10:09:00,67.3,53.8,30.29,ESE,123,14.0,20.0,62,0.00,,---,0.00,601.00,VWS V14.00,2013-02-10 15:09:00,
2013-02-10 10:10:00,67.3,53.4,30.29,SE,127,15.0,20.0,61,0.00,,---,0.00,587.00,VWS V14.00,2013-02-10 15:10:00,
2013-02-10 10:11:00,67.3,54.3,30.29,SSE,154,14.0,20.0,63,0.00,,---,0.00,613.00,VWS V14.00,2013-02-10 15:11:00,
2013-02-10 10:12:00,67.4,53.5,30.29,SE,129,12.0,20.0,61,0.00,,---,0.00,605.00,VWS V14.00,2013-02-10 15:12:00,
2013-02-10 10:13:00,67.5,53.6,30.28,ESE,123,11.0,20.0,61,0.00,,---,0.00,594.00,VWS V14.00,2013-02-10 15:13:00,
2013-02-10 10:14:00,67.6,53.7,30.29,SSE,154,14.0,20.0,61,0.00,,---,0.00,589.00,VWS V14.00,2013-02-10 15:14:00,
2013-02-10 10:15:00,67.7,53.3,30.29,ESE,116,12.0,20.0,60,0.00,,---,0.00,591.00,VWS V14.00,2013-02-10 15:15:00,
2013-02-10 10:16:00,67.8,53.4,30.29,ESE,116,15.0,20.0,60,0.00,,---,0.00,592.00,VWS V14.00,2013-02-10 15:16:00,
2013-02-10 10:17:00,67.8,53.4,30.29,SE,129,11.0,20.0,60,0.00,,---,0.00,603.00,VWS V14.00,2013-02-10 15:17:00,
2013-02-10 10:18:00,67.8,53.4,30.29,SSE,155,9.0,20.0,60,0.00,,---,0.00,613.00,VWS V14.00,2013-02-10 15:18:00,
2013-02-10 10:19:00,68.0,53.6,30.29,ESE,119,11.0,20.0,60,0.00,,---,0.00,606.00,VWS V14.00,2013-02-10 15:19:00,
2013-02-10 10:20:00,68.0,53.6,30.29,ESE,122,13.0,20.0,60,0.00,,---,0.00,615.00,VWS V14.00,2013-02-10 15:20:00,
2013-02-10 10:21:00,68.0,53.6,30.29,SE,130,9.0,20.0,60,0.00,,---,0.00,619.00,VWS V14.00,2013-02-10 15:21:00,
2013-02-10 10:22:00,68.0,53.6,30.30,ESE,115,12.0,20.0,60,0.00,,---,0.00,619.00,VWS V14.00,2013-02-10 15:22:00,
2013-02-10 10:23:00,68.0,53.6,30.30,SE,142,10.0,20.0,60,0.00,,---,0.00,619.00,VWS V14.00,2013-02-10 15:23:00,
2013-02-10 10:24:00,68.1,53.7,30.30,ESE,119,12.0,20.0,60,0.00,,---,0.00,619.00,VWS V14.00,2013-02-10 15:24:00,
2013-02-10 10:25:00,68.1,53.7,30.30,ESE,123,11.0,20.0,60,0.00,,---,0.00,619.00,VWS V14.00,2013-02-10 15:25:00,
2013-02-10 10:26:00,68.1,53.7,30.30,SE,129,14.0,20.0,60,0.00,,---,0.00,619.00,VWS V14.00,2013-02-10 15:26:00,
2013-02-10 10:27:00,68.0,53.2,30.30,SE,131,16.0,24.0,59,0.00,,---,0.00,687.00,VWS V14.00,2013-02-10 15:27:00,
2013-02-10 10:28:00,67.9,53.5,30.30,SE,124,12.0,24.0,60,0.00,,---,0.00,687.00,VWS V14.00,2013-02-10 15:28:00,
2013-02-10 10:29:00,67.9,53.5,30.30,ESE,108,13.0,24.0,60,0.00,,---,0.00,174.00,VWS V14.00,2013-02-10 15:29:00,
2013-02-10 10:30:00,67.9,53.1,30.31,SE,137,15.0,24.0,59,0.00,,---,0.00,174.00,VWS V14.00,2013-02-10 15:30:00,
2013-02-10 10:31:00,67.8,53.4,30.31,SE,143,15.0,21.0,60,0.00,,---,0.00,230.00,VWS V14.00,2013-02-10 15:31:00,
2013-02-10 10:32:00,67.8,53.4,30.31,SSE,147,14.0,21.0,60,0.00,,---,0.00,223.00,VWS V14.00,2013-02-10 15:32:00,
2013-02-10 10:33:00,67.8,53.0,30.31,ESE,110,7.0,21.0,59,0.00,,---,0.00,223.00,VWS V14.00,2013-02-10 15:33:00,
2013-02-10 10:34:00,67.8,53.4,30.31,ESE,114,13.0,21.0,60,0.00,,---,0.00,770.00,VWS V14.00,2013-02-10 15:34:00,
2013-02-10 10:35:00,67.8,53.4,30.31,ESE,115,19.0,21.0,60,0.00,,---,0.00,770.00,VWS V14.00,2013-02-10 15:35:00,
2013-02-10 10:36:00,67.7,53.3,30.31,SE,126,12.0,22.0,60,0.00,,---,0.00,770.00,VWS V14.00,2013-02-10 15:36:00,
2013-02-10 10:37:00,67.8,53.4,30.31,SSE,153,9.0,22.0,60,0.00,,---,0.00,770.00,VWS V14.00,2013-02-10 15:37:00,
2013-02-10 10:38:00,67.9,53.5,30.31,ESE,121,11.0,22.0,60,0.00,,---,0.00,703.00,VWS V14.00,2013-02-10 15:38:00,
2013-02-10 10:39:00,68.0,53.6,30.31,SE,127,14.0,22.0,60,0.00,,---,0.00,703.00,VWS V14.00,2013-02-10 15:39:00,
2013-02-10 10:40:00,68.0,53.6,30.31,SE,126,13.0,22.0,60,0.00,,---,0.00,726.00,VWS V14.00,2013-02-10 15:40:00,
2013-02-10 10:41:00,68.0,53.6,30.31,ESE,105,14.0,22.0,60,0.00,,---,0.00,726.00,VWS V14.00,2013-02-10 15:41:00,
2013-02-10 10:42:00,67.9,53.5,30.31,ESE,113,13.0,22.0,60,0.00,,---,0.00,726.00,VWS V14.00,2013-02-10 15:42:00,
2013-02-10 10:43:00,67.9,53.5,30.31,ESE,112,10.0,22.0,60,0.00,,---,0.00,756.00,VWS V14.00,2013-02-10 15:43:00,
2013-02-10 10:44:00,67.9,53.5,30.31,SE,126,16.0,22.0,60,0.00,,---,0.00,756.00,VWS V14.00,2013-02-10 15:44:00,
2013-02-10 10:45:00,68.0,53.2,30.32,ESE,109,10.0,22.0,59,0.00,,---,0.00,756.00,VWS V14.00,2013-02-10 15:45:00,
2013-02-10 10:46:00,68.0,53.2,30.32,SE,133,11.0,22.0,59,0.00,,---,0.00,207.00,VWS V14.00,2013-02-10 15:46:00,
2013-02-10 10:47:00,68.0,53.2,30.31,ESE,109,9.0,22.0,59,0.00,,---,0.00,207.00,VWS V14.00,2013-02-10 15:47:00,
2013-02-10 10:48:00,68.0,53.2,30.31,SE,130,10.0,22.0,59,0.00,,---,0.00,761.00,VWS V14.00,2013-02-10 15:48:00,
2013-02-10 10:49:00,68.1,53.2,30.31,SE,128,11.0,22.0,59,0.00,,---,0.00,763.00,VWS V14.00,2013-02-10 15:49:00,
2013-02-10 10:50:00,68.1,53.7,30.31,East,98,10.0,22.0,60,0.00,,---,0.00,686.00,VWS V14.00,2013-02-10 15:50:00,
2013-02-10 10:51:00,68.2,53.3,30.31,SE,129,12.0,22.0,59,0.00,,---,0.00,686.00,VWS V14.00,2013-02-10 15:51:00,
2013-02-10 10:52:00,68.1,53.7,30.31,ESE,116,13.0,22.0,60,0.00,,---,0.00,183.00,VWS V14.00,2013-02-10 15:52:00,
2013-02-10 10:53:00,68.1,53.2,30.31,SE,124,14.0,22.0,59,0.00,,---,0.00,183.00,VWS V14.00,2013-02-10 15:53:00,
2013-02-10 10:54:00,68.1,53.2,30.31,SE,137,10.0,22.0,59,0.00,,---,0.00,777.00,VWS V14.00,2013-02-10 15:54:00,
2013-02-10 10:55:00,68.3,53.4,30.31,ESE,122,14.0,22.0,59,0.00,,---,0.00,773.00,VWS V14.00,2013-02-10 15:55:00,
2013-02-10 10:56:00,68.3,53.0,30.31,SE,126,15.0,22.0,58,0.00,,---,0.00,770.00,VWS V14.00,2013-02-10 15:56:00,
2013-02-10 10:57:00,68.2,52.9,30.30,SE,141,9.0,22.0,58,0.00,,---,0.00,700.00,VWS V14.00,2013-02-10 15:57:00,
2013-02-10 10:58:00,68.2,53.3,30.30,ESE,104,16.0,22.0,59,0.00,,---,0.00,700.00,VWS V14.00,2013-02-10 15:58:00,
2013-02-10 10:59:00,68.2,53.3,30.30,ESE,108,15.0,22.0,59,0.00,,---,0.00,700.00,VWS V14.00,2013-02-10 15:59:00,
2013-02-10 11:00:00,68.1,52.3,30.30,SE,131,14.0,22.0,57,0.00,,---,0.00,700.00,VWS V14.00,2013-02-10 16:00:00,
2013-02-10 11:01:00,68.1,52.8,30.30,SSE,157,14.0,16.0,58,0.00,,---,0.00,744.00,VWS V14.00,2013-02-10 16:01:00,
2013-02-10 11:02:00,68.3,52.5,30.30,ESE,116,16.0,18.0,57,0.00,,---,0.00,731.00,VWS V14.00,2013-02-10 16:02:00,
2013-02-10 11:03:00,68.4,52.6,30.30,ESE,120,13.0,18.0,57,0.00,,---,0.00,731.00,VWS V14.00,2013-02-10 16:03:00,
2013-02-10 11:04:00,68.6,52.8,30.30,ESE,110,16.0,18.0,57,0.00,,---,0.00,731.00,VWS V14.00,2013-02-10 16:04:00,
2013-02-10 11:05:00,68.7,52.9,30.30,ESE,123,14.0,18.0,57,0.00,,---,0.00,731.00,VWS V14.00,2013-02-10 16:05:00,
2013-02-10 11:06:00,68.7,52.9,30.30,ESE,117,13.0,18.0,57,0.00,,---,0.00,761.00,VWS V14.00,2013-02-10 16:06:00,
2013-02-10 11:07:00,68.7,52.4,30.30,SE,129,13.0,18.0,56,0.00,,---,0.00,740.00,VWS V14.00,2013-02-10 16:07:00,
2013-02-10 11:08:00,68.7,52.4,30.30,SE,135,13.0,18.0,56,0.00,,---,0.00,740.00,VWS V14.00,2013-02-10 16:08:00,
2013-02-10 11:09:00,68.7,51.9,30.29,East,95,16.0,23.0,55,0.00,,---,0.00,740.00,VWS V14.00,2013-02-10 16:09:00,
2013-02-10 11:10:00,68.6,52.3,30.29,ESE,123,14.0,25.0,56,0.00,,---,0.00,726.00,VWS V14.00,2013-02-10 16:10:00,
2013-02-10 11:11:00,68.7,52.4,30.29,ESE,114,17.0,25.0,56,0.00,,---,0.00,726.00,VWS V14.00,2013-02-10 16:11:00,
2013-02-10 11:12:00,68.7,52.4,30.29,South,175,4.0,25.0,56,0.00,,---,0.00,726.00,VWS V14.00,2013-02-10 16:12:00,
2013-02-10 11:13:00,68.9,52.6,30.29,ESE,116,14.0,25.0,56,0.00,,---,0.00,758.00,VWS V14.00,2013-02-10 16:13:00,
2013-02-10 11:14:00,69.0,52.2,30.29,SE,129,15.0,25.0,55,0.00,,---,0.00,694.00,VWS V14.00,2013-02-10 16:14:00,
2013-02-10 11:15:00,69.1,52.3,30.29,ESE,123,7.0,25.0,55,0.00,,---,0.00,721.00,VWS V14.00,2013-02-10 16:15:00,
2013-02-10 11:16:00,69.3,52.5,30.29,ESE,110,7.0,25.0,55,0.00,,---,0.00,768.00,VWS V14.00,2013-02-10 16:16:00,
2013-02-10 11:17:00,69.5,52.6,30.29,SE,142,15.0,25.0,55,0.00,,---,0.00,768.00,VWS V14.00,2013-02-10 16:17:00,
2013-02-10 11:18:00,69.6,52.2,30.29,SE,146,8.0,25.0,54,0.00,,---,0.00,768.00,VWS V14.00,2013-02-10 16:18:00,
2013-02-10 11:19:00,69.7,52.8,30.29,ESE,110,14.0,25.0,55,0.00,,---,0.00,264.00,VWS V14.00,2013-02-10 16:19:00,
2013-02-10 11:20:00,69.6,52.7,30.29,ESE,109,13.0,25.0,55,0.00,,---,0.00,264.00,VWS V14.00,2013-02-10 16:20:00,
2013-02-10 11:21:00,69.4,52.5,30.29,SSE,147,13.0,25.0,55,0.00,,---,0.00,264.00,VWS V14.00,2013-02-10 16:21:00,
2013-02-10 11:22:00,69.4,52.5,30.29,ESE,108,9.0,25.0,55,0.00,,---,0.00,737.00,VWS V14.00,2013-02-10 16:22:00,
2013-02-10 11:23:00,69.4,52.5,30.29,SE,129,11.0,25.0,55,0.00,,---,0.00,703.00,VWS V14.00,2013-02-10 16:23:00,
2013-02-10 11:24:00,69.4,52.0,30.29,SE,135,16.0,25.0,54,0.00,,---,0.00,677.00,VWS V14.00,2013-02-10 16:24:00,
2013-02-10 11:25:00,69.4,52.0,30.28,SE,143,11.0,25.0,54,0.00,,---,0.00,587.00,VWS V14.00,2013-02-10 16:25:00,
2013-02-10 11:26:00,69.4,51.5,30.29,SE,141,11.0,25.0,53,0.00,,---,0.00,587.00,VWS V14.00,2013-02-10 16:26:00,
2013-02-10 11:27:00,69.4,52.0,30.29,ESE,112,12.0,25.0,54,0.00,,---,0.00,578.00,VWS V14.00,2013-02-10 16:27:00,
2013-02-10 11:28:00,69.3,52.0,30.29,ESE,122,8.0,25.0,54,0.00,,---,0.00,578.00,VWS V14.00,2013-02-10 16:28:00,
2013-02-10 11:29:00,69.3,52.5,30.29,SE,131,8.0,25.0,55,0.00,,---,0.00,578.00,VWS V14.00,2013-02-10 16:29:00,
2013-02-10 11:30:00,69.3,52.0,30.29,SE,131,8.0,25.0,54,0.00,,---,0.00,663.00,VWS V14.00,2013-02-10 16:30:00,
2013-02-10 11:31:00,69.4,52.5,30.29,SSE,160,12.0,12.0,55,0.00,,---,0.00,649.00,VWS V14.00,2013-02-10 16:31:00,
2013-02-10 11:32:00,69.6,52.2,30.29,ESE,123,20.0,20.0,54,0.00,,---,0.00,636.00,VWS V14.00,2013-02-10 16:32:00,
2013-02-10 11:33:00,69.5,52.2,30.29,SE,129,16.0,20.0,54,0.00,,---,0.00,636.00,VWS V14.00,2013-02-10 16:33:00,
2013-02-10 11:34:00,69.5,52.2,30.28,SSE,150,13.0,20.0,54,0.00,,---,0.00,636.00,VWS V14.00,2013-02-10 16:34:00,
2013-02-10 11:35:00,69.5,51.6,30.29,ESE,114,15.0,20.0,53,0.00,,---,0.00,487.00,VWS V14.00,2013-02-10 16:35:00,
2013-02-10 11:36:00,69.6,51.7,30.28,South,175,4.0,20.0,53,0.00,,---,0.00,487.00,VWS V14.00,2013-02-10 16:36:00,
2013-02-10 11:37:00,69.7,51.8,30.28,ESE,120,12.0,20.0,53,0.00,,---,0.00,248.00,VWS V14.00,2013-02-10 16:37:00,
2013-02-10 11:38:00,69.6,51.7,30.29,ESE,123,12.0,20.0,53,0.00,,---,0.00,237.00,VWS V14.00,2013-02-10 16:38:00,
2013-02-10 11:39:00,69.6,51.7,30.28,ESE,106,9.0,20.0,53,0.00,,---,0.00,251.00,VWS V14.00,2013-02-10 16:39:00,
2013-02-10 11:40:00,69.5,51.6,30.28,SE,143,9.0,20.0,53,0.00,,---,0.00,297.00,VWS V14.00,2013-02-10 16:40:00,
2013-02-10 11:41:00,69.6,52.2,30.29,East,95,7.0,20.0,54,0.00,,---,0.00,297.00,VWS V14.00,2013-02-10 16:41:00,
2013-02-10 11:42:00,69.5,52.2,30.29,SE,135,8.0,20.0,54,0.00,,---,0.00,297.00,VWS V14.00,2013-02-10 16:42:00,
2013-02-10 11:43:00,69.4,52.5,30.29,SE,125,11.0,20.0,55,0.00,,---,0.00,297.00,VWS V14.00,2013-02-10 16:43:00,
2013-02-10 11:44:00,69.4,52.0,30.28,ESE,116,8.0,20.0,54,0.00,,---,0.00,297.00,VWS V14.00,2013-02-10 16:44:00,
2013-02-10 11:45:00,69.5,52.6,30.28,SE,130,7.0,20.0,55,0.00,,---,0.00,731.00,VWS V14.00,2013-02-10 16:45:00,
2013-02-10 11:46:00,69.5,52.6,30.28,ESE,110,6.0,20.0,55,0.00,,---,0.00,740.00,VWS V14.00,2013-02-10 16:46:00,
2013-02-10 11:47:00,69.5,53.1,30.28,ESE,123,12.0,20.0,56,0.00,,---,0.00,740.00,VWS V14.00,2013-02-10 16:47:00,
2013-02-10 11:48:00,69.4,53.0,30.28,SE,132,10.0,20.0,56,0.00,,---,0.00,642.00,VWS V14.00,2013-02-10 16:48:00,
2013-02-10 11:49:00,69.7,52.8,30.28,SE,126,13.0,20.0,55,0.00,,---,0.00,642.00,VWS V14.00,2013-02-10 16:49:00,
2013-02-10 11:50:00,69.9,52.5,30.28,SSE,149,8.0,20.0,54,0.00,,---,0.00,765.00,VWS V14.00,2013-02-10 16:50:00,
2013-02-10 12:00:00,69.8,52.9,30.27,ESE,112,11.0,21.0,55,0.00,,---,0.00,479.00,VWS V14.00,2013-02-10 17:00:00,
2013-02-10 12:30:00,69.9,53.5,30.26,ESE,112,12.0,23.0,56,0.00,,---,0.00,611.00,VWS V14.00,2013-02-10 17:30:00,
2013-02-10 13:08:00,70.2,53.3,30.25,ESE,120,9.0,12.0,55,0.00,,---,0.00,868.00,VWS V14.00,2013-02-10 18:08:00,
2013-02-10 13:09:00,70.2,53.3,30.25,SE,131,8.0,12.0,55,0.00,,---,0.00,868.00,VWS V14.00,2013-02-10 18:09:00,
2013-02-10 13:10:00,70.2,53.3,30.25,SE,124,7.0,13.0,55,0.00,,---,0.00,868.00,VWS V14.00,2013-02-10 18:10:00,
2013-02-10 13:11:00,70.3,53.4,30.25,ESE,112,17.0,18.0,55,0.00,,---,0.00,861.00,VWS V14.00,2013-02-10 18:11:00,
2013-02-10 13:12:00,70.4,53.5,30.25,ESE,109,12.0,18.0,55,0.00,,---,0.00,861.00,VWS V14.00,2013-02-10 18:12:00,
2013-02-10 13:13:00,70.4,53.5,30.25,SE,142,9.0,18.0,55,0.00,,---,0.00,858.00,VWS V14.00,2013-02-10 18:13:00,
2013-02-10 13:14:00,70.5,53.6,30.25,SE,139,11.0,18.0,55,0.00,,---,0.00,849.00,VWS V14.00,2013-02-10 18:14:00,
2013-02-10 13:15:00,70.6,53.2,30.25,SE,146,13.0,18.0,54,0.00,,---,0.00,838.00,VWS V14.00,2013-02-10 18:15:00,
2013-02-10 13:16:00,70.7,53.3,30.25,SSE,151,13.0,18.0,54,0.00,,---,0.00,849.00,VWS V14.00,2013-02-10 18:16:00,
2013-02-10 13:17:00,70.7,53.3,30.25,South,175,10.0,18.0,54,0.00,,---,0.00,835.00,VWS V14.00,2013-02-10 18:17:00,
2013-02-10 13:18:00,70.8,53.3,30.25,ESE,104,11.0,18.0,54,0.00,,---,0.00,833.00,VWS V14.00,2013-02-10 18:18:00,
2013-02-10 13:19:00,70.7,53.8,30.24,ESE,105,11.0,18.0,55,0.00,,---,0.00,821.00,VWS V14.00,2013-02-10 18:19:00,
2013-02-10 13:20:00,70.7,53.8,30.24,ESE,105,11.0,18.0,55,0.00,,---,0.00,821.00,VWS V14.00,2013-02-10 18:20:00,
2013-02-10 13:21:00,70.5,53.6,30.24,ESE,122,8.0,18.0,55,0.00,,---,0.00,837.00,VWS V14.00,2013-02-10 18:21:00,
2013-02-10 13:22:00,70.5,53.6,30.24,ESE,116,8.0,18.0,55,0.00,,---,0.00,821.00,VWS V14.00,2013-02-10 18:22:00,
2013-02-10 13:23:00,70.7,53.8,30.24,SSW,200,7.0,18.0,55,0.00,,---,0.00,814.00,VWS V14.00,2013-02-10 18:23:00,
2013-02-10 13:24:00,70.8,53.8,30.24,ESE,114,7.0,18.0,55,0.00,,---,0.00,830.00,VWS V14.00,2013-02-10 18:24:00,
2013-02-10 13:25:00,70.9,54.0,30.23,SSE,166,9.0,18.0,55,0.00,,---,0.00,830.00,VWS V14.00,2013-02-10 18:25:00,
2013-02-10 13:26:00,71.0,54.0,30.23,SE,138,10.0,18.0,55,0.00,,---,0.00,816.00,VWS V14.00,2013-02-10 18:26:00,
2013-02-10 13:27:00,71.1,53.6,30.24,SE,140,6.0,18.0,54,0.00,,---,0.00,819.00,VWS V14.00,2013-02-10 18:27:00,
2013-02-10 13:28:00,71.1,53.6,30.23,SE,133,16.0,18.0,54,0.00,,---,0.00,758.00,VWS V14.00,2013-02-10 18:28:00,
2013-02-10 13:29:00,71.1,53.6,30.23,SE,129,17.0,20.0,54,0.00,,---,0.00,802.00,VWS V14.00,2013-02-10 18:29:00,
2013-02-10 13:30:00,71.0,53.5,30.23,SE,145,11.0,20.0,54,0.00,,---,0.00,805.00,VWS V14.00,2013-02-10 18:30:00,
2013-02-10 13:31:00,70.9,54.0,30.23,SE,128,20.0,20.0,55,0.00,,---,0.00,705.00,VWS V14.00,2013-02-10 18:31:00,
2013-02-10 13:32:00,70.8,53.8,30.23,SE,128,16.0,20.0,55,0.00,,---,0.00,705.00,VWS V14.00,2013-02-10 18:32:00,
2013-02-10 13:33:00,70.6,53.7,30.24,SE,128,10.0,20.0,55,0.00,,---,0.00,705.00,VWS V14.00,2013-02-10 18:33:00,
2013-02-10 13:34:00,70.6,53.7,30.23,SE,139,9.0,20.0,55,0.00,,---,0.00,796.00,VWS V14.00,2013-02-10 18:34:00,
2013-02-10 13:35:00,70.7,53.8,30.23,SE,125,19.0,20.0,55,0.00,,---,0.00,803.00,VWS V14.00,2013-02-10 18:35:00,
2013-02-10 13:36:00,70.6,53.7,30.23,SE,135,17.0,20.0,55,0.00,,---,0.00,803.00,VWS V14.00,2013-02-10 18:36:00,
2013-02-10 13:37:00,70.6,53.7,30.23,ESE,113,10.0,20.0,55,0.00,,---,0.00,819.00,VWS V14.00,2013-02-10 18:37:00,
2013-02-10 13:38:00,70.5,53.6,30.23,ESE,117,16.0,20.0,55,0.00,,---,0.00,766.00,VWS V14.00,2013-02-10 18:38:00,
2013-02-10 13:39:00,70.5,54.1,30.23,ESE,116,8.0,20.0,56,0.00,,---,0.00,810.00,VWS V14.00,2013-02-10 18:39:00,
2013-02-10 13:40:00,70.5,53.6,30.23,ESE,122,7.0,20.0,55,0.00,,---,0.00,838.00,VWS V14.00,2013-02-10 18:40:00,
2013-02-10 13:41:00,70.6,54.2,30.23,ESE,116,23.0,23.0,56,0.00,,---,0.00,856.00,VWS V14.00,2013-02-10 18:41:00,
2013-02-10 13:42:00,70.6,53.7,30.23,SE,135,9.0,23.0,55,0.00,,---,0.00,791.00,VWS V14.00,2013-02-10 18:42:00,
2013-02-10 13:43:00,70.6,53.7,30.23,ESE,109,20.0,23.0,55,0.00,,---,0.00,791.00,VWS V14.00,2013-02-10 18:43:00,
2013-02-10 13:44:00,70.4,53.5,30.23,ESE,113,11.0,23.0,55,0.00,,---,0.00,236.00,VWS V14.00,2013-02-10 18:44:00,
2013-02-10 13:45:00,70.4,53.5,30.23,ESE,116,12.0,23.0,55,0.00,,---,0.00,225.00,VWS V14.00,2013-02-10 18:45:00,
2013-02-10 13:46:00,70.3,53.4,30.23,ESE,114,12.0,23.0,55,0.00,,---,0.00,230.00,VWS V14.00,2013-02-10 18:46:00,
2013-02-10 13:47:00,70.2,53.3,30.23,ESE,116,12.0,23.0,55,0.00,,---,0.00,248.00,VWS V14.00,2013-02-10 18:47:00,
2013-02-10 13:48:00,70.1,53.7,30.23,ESE,122,11.0,23.0,56,0.00,,---,0.00,334.00,VWS V14.00,2013-02-10 18:48:00,
2013-02-10 13:49:00,70.1,53.7,30.23,ESE,104,13.0,23.0,56,0.00,,---,0.00,327.00,VWS V14.00,2013-02-10 18:49:00,
2013-02-10 13:50:00,70.1,53.7,30.23,ESE,112,12.0,23.0,56,0.00,,---,0.00,320.00,VWS V14.00,2013-02-10 18:50:00,
2013-02-10 13:51:00,70.0,53.6,30.23,SSE,156,12.0,23.0,56,0.00,,---,0.00,313.00,VWS V14.00,2013-02-10 18:51:00,
2013-02-10 13:52:00,70.1,53.7,30.23,ESE,113,7.0,23.0,56,0.00,,---,0.00,320.00,VWS V14.00,2013-02-10 18:52:00,
2013-02-10 13:53:00,70.2,53.8,30.23,ESE,110,11.0,23.0,56,0.00,,---,0.00,334.00,VWS V14.00,2013-02-10 18:53:00,
2013-02-10 13:54:00,70.3,53.9,30.23,SE,146,14.0,23.0,56,0.00,,---,0.00,334.00,VWS V14.00,2013-02-10 18:54:00,
2013-02-10 13:55:00,70.4,53.5,30.23,East,97,12.0,23.0,55,0.00,,---,0.00,977.00,VWS V14.00,2013-02-10 18:55:00,
2013-02-10 13:56:00,70.5,53.6,30.23,SE,125,11.0,23.0,55,0.00,,---,0.00,939.00,VWS V14.00,2013-02-10 18:56:00,
2013-02-10 13:57:00,70.5,53.6,30.23,ESE,123,9.0,23.0,55,0.00,,---,0.00,923.00,VWS V14.00,2013-02-10 18:57:00,
2013-02-10 13:58:00,70.7,54.2,30.23,SSE,164,14.0,23.0,56,0.00,,---,0.00,926.00,VWS V14.00,2013-02-10 18:58:00,
2013-02-10 13:59:00,70.9,53.4,30.23,SE,137,12.0,23.0,54,0.00,,---,0.00,930.00,VWS V14.00,2013-02-10 18:59:00,
2013-02-10 14:00:00,71.1,53.6,30.23,SSE,164,12.0,23.0,54,0.00,,---,0.00,904.00,VWS V14.00,2013-02-10 19:00:00,
2013-02-10 14:01:00,71.3,53.8,30.23,SSE,167,9.0,13.0,54,0.00,,---,0.00,904.00,VWS V14.00,2013-02-10 19:01:00,
2013-02-10 14:02:00,71.4,53.4,30.23,SSE,158,15.0,18.0,53,0.00,,---,0.00,904.00,VWS V14.00,2013-02-10 19:02:00,
2013-02-10 14:03:00,71.4,53.4,30.23,SE,142,9.0,18.0,53,0.00,,---,0.00,867.00,VWS V14.00,2013-02-10 19:03:00,
2013-02-10 14:04:00,71.4,53.9,30.23,ESE,114,11.0,18.0,54,0.00,,---,0.00,835.00,VWS V14.00,2013-02-10 19:04:00,
2013-02-10 14:05:00,71.2,53.2,30.23,ESE,107,14.0,18.0,53,0.00,,---,0.00,842.00,VWS V14.00,2013-02-10 19:05:00,
2013-02-10 14:06:00,71.1,53.6,30.23,ESE,112,13.0,18.0,54,0.00,,---,0.00,831.00,VWS V14.00,2013-02-10 19:06:00,
2013-02-10 14:07:00,71.0,53.5,30.23,ESE,121,16.0,18.0,54,0.00,,---,0.00,817.00,VWS V14.00,2013-02-10 19:07:00,
2013-02-10 14:08:00,70.8,53.3,30.23,SE,129,16.0,19.0,54,0.00,,---,0.00,821.00,VWS V14.00,2013-02-10 19:08:00,
2013-02-10 14:09:00,70.7,53.8,30.23,ESE,115,20.0,20.0,55,0.00,,---,0.00,823.00,VWS V14.00,2013-02-10 19:09:00,
2013-02-10 14:10:00,70.6,53.2,30.23,ESE,121,13.0,20.0,54,0.00,,---,0.00,823.00,VWS V14.00,2013-02-10 19:10:00,
2013-02-10 14:11:00,70.7,53.3,30.23,SE,124,8.0,20.0,54,0.00,,---,0.00,807.00,VWS V14.00,2013-02-10 19:11:00,
2013-02-10 14:12:00,70.8,53.8,30.23,SSE,152,9.0,20.0,55,0.00,,---,0.00,800.00,VWS V14.00,2013-02-10 19:12:00,
2013-02-10 14:13:00,71.1,53.6,30.23,ESE,121,5.0,20.0,54,0.00,,---,0.00,798.00,VWS V14.00,2013-02-10 19:13:00,
2013-02-10 14:14:00,71.3,54.3,30.23,SSE,164,12.0,20.0,55,0.00,,---,0.00,803.00,VWS V14.00,2013-02-10 19:14:00,
2013-02-10 14:15:00,71.5,54.0,30.23,ESE,121,6.0,20.0,54,0.00,,---,0.00,807.00,VWS V14.00,2013-02-10 19:15:00,
2013-02-10 14:16:00,71.6,53.6,30.23,East,101,11.0,20.0,53,0.00,,---,0.00,809.00,VWS V14.00,2013-02-10 19:16:00,
2013-02-10 14:17:00,71.5,53.5,30.23,SE,130,12.0,20.0,53,0.00,,---,0.00,805.00,VWS V14.00,2013-02-10 19:17:00,
2013-02-10 14:18:00,71.4,53.9,30.23,SE,133,10.0,20.0,54,0.00,,---,0.00,812.00,VWS V14.00,2013-02-10 19:18:00,
2013-02-10 14:19:00,71.4,54.4,30.23,ESE,114,13.0,20.0,55,0.00,,---,0.00,817.00,VWS V14.00,2013-02-10 19:19:00,
2013-02-10 14:20:00,71.2,54.2,30.23,SE,143,12.0,20.0,55,0.00,,---,0.00,772.00,VWS V14.00,2013-02-10 19:20:00,
2013-02-10 14:21:00,71.0,53.5,30.22,SE,139,7.0,20.0,54,0.00,,---,0.00,795.00,VWS V14.00,2013-02-10 19:21:00,
2013-02-10 14:22:00,71.0,54.0,30.22,ESE,116,11.0,20.0,55,0.00,,---,0.00,800.00,VWS V14.00,2013-02-10 19:22:00,
2013-02-10 14:23:00,71.1,54.1,30.22,ESE,115,19.0,22.0,55,0.00,,---,0.00,780.00,VWS V14.00,2013-02-10 19:23:00,
2013-02-10 14:24:00,71.1,54.1,30.22,ESE,114,17.0,22.0,55,0.00,,---,0.00,765.00,VWS V14.00,2013-02-10 19:24:00,
2013-02-10 14:25:00,71.0,53.5,30.22,ESE,111,15.0,22.0,54,0.00,,---,0.00,749.00,VWS V14.00,2013-02-10 19:25:00,
2013-02-10 14:26:00,70.8,53.3,30.22,SE,124,10.0,22.0,54,0.00,,---,0.00,742.00,VWS V14.00,2013-02-10 19:26:00,
2013-02-10 14:27:00,70.7,53.8,30.22,ESE,106,16.0,22.0,55,0.00,,---,0.00,731.00,VWS V14.00,2013-02-10 19:27:00,
2013-02-10 14:28:00,70.8,53.8,30.22,ESE,116,10.0,22.0,55,0.00,,---,0.00,726.00,VWS V14.00,2013-02-10 19:28:00,
2013-02-10 14:29:00,70.9,54.0,30.22,ESE,120,8.0,22.0,55,0.00,,---,0.00,712.00,VWS V14.00,2013-02-10 19:29:00,
2013-02-10 14:30:00,71.0,54.0,30.22,SE,129,12.0,22.0,55,0.00,,---,0.00,701.00,VWS V14.00,2013-02-10 19:30:00,
2013-02-10 14:31:00,71.0,54.0,30.22,SSE,159,18.0,22.0,55,0.00,,---,0.00,691.00,VWS V14.00,2013-02-10 19:31:00,
2013-02-10 14:32:00,71.2,53.7,30.22,South,189,11.0,22.0,54,0.00,,---,0.00,686.00,VWS V14.00,2013-02-10 19:32:00,
2013-02-10 14:33:00,71.3,53.8,30.22,ESE,114,8.0,22.0,54,0.00,,---,0.00,675.00,VWS V14.00,2013-02-10 19:33:00,
2013-02-10 14:34:00,71.4,53.9,30.22,SE,128,12.0,22.0,54,0.00,,---,0.00,675.00,VWS V14.00,2013-02-10 19:34:00,
2013-02-10 14:35:00,71.3,53.8,30.22,SE,131,11.0,22.0,54,0.00,,---,0.00,686.00,VWS V14.00,2013-02-10 19:35:00,
2013-02-10 14:36:00,71.1,53.6,30.22,SE,131,13.0,22.0,54,0.00,,---,0.00,664.00,VWS V14.00,2013-02-10 19:36:00,
2013-02-10 14:37:00,71.0,53.5,30.22,SE,135,9.0,22.0,54,0.00,,---,0.00,664.00,VWS V14.00,2013-02-10 19:37:00,
2013-02-10 14:38:00,71.0,54.0,30.22,ESE,116,14.0,22.0,55,0.00,,---,0.00,664.00,VWS V14.00,2013-02-10 19:38:00,
2013-02-10 14:39:00,70.9,54.0,30.22,ESE,119,18.0,22.0,55,0.00,,---,0.00,610.00,VWS V14.00,2013-02-10 19:39:00,
2013-02-10 14:40:00,70.8,54.3,30.21,East,101,18.0,22.0,56,0.00,,---,0.00,622.00,VWS V14.00,2013-02-10 19:40:00,
2013-02-10 14:41:00,70.5,54.1,30.21,ESE,122,17.0,22.0,56,0.00,,---,0.00,622.00,VWS V14.00,2013-02-10 19:41:00,
2013-02-10 14:42:00,70.4,54.0,30.22,East,97,15.0,22.0,56,0.00,,---,0.00,649.00,VWS V14.00,2013-02-10 19:42:00,
2013-02-10 14:43:00,70.3,54.4,30.21,East,101,11.0,22.0,57,0.00,,---,0.00,649.00,VWS V14.00,2013-02-10 19:43:00,
2013-02-10 14:44:00,70.1,54.7,30.21,ESE,120,13.0,22.0,58,0.00,,---,0.00,649.00,VWS V14.00,2013-02-10 19:44:00,
2013-02-10 14:45:00,70.1,54.7,30.21,ESE,122,19.0,22.0,58,0.00,,---,0.00,649.00,VWS V14.00,2013-02-10 19:45:00,
2013-02-10 14:46:00,70.1,54.2,30.21,ESE,111,13.0,22.0,57,0.00,,---,0.00,213.00,VWS V14.00,2013-02-10 19:46:00,
2013-02-10 14:47:00,70.2,54.3,30.21,SSE,147,10.0,22.0,57,0.00,,---,0.00,213.00,VWS V14.00,2013-02-10 19:47:00,
2013-02-10 14:48:00,70.3,54.4,30.21,ESE,119,8.0,22.0,57,0.00,,---,0.00,649.00,VWS V14.00,2013-02-10 19:48:00,
2013-02-10 14:49:00,70.5,54.5,30.21,South,170,6.0,22.0,57,0.00,,---,0.00,635.00,VWS V14.00,2013-02-10 19:49:00,
2013-02-10 14:50:00,70.8,53.8,30.21,South,175,9.0,22.0,55,0.00,,---,0.00,624.00,VWS V14.00,2013-02-10 19:50:00,
2013-02-10 14:51:00,71.0,54.0,30.21,SSE,153,8.0,22.0,55,0.00,,---,0.00,613.00,VWS V14.00,2013-02-10 19:51:00,
2013-02-10 14:52:00,71.1,54.1,30.21,SSE,157,6.0,22.0,55,0.00,,---,0.00,613.00,VWS V14.00,2013-02-10 19:52:00,
2013-02-10 14:53:00,71.2,54.2,30.21,SSE,149,6.0,22.0,55,0.00,,---,0.00,121.00,VWS V14.00,2013-02-10 19:53:00,
2013-02-10 14:54:00,71.2,54.2,30.21,SE,131,6.0,22.0,55,0.00,,---,0.00,127.00,VWS V14.00,2013-02-10 19:54:00,
2013-02-10 14:55:00,71.2,54.2,30.21,South,175,11.0,22.0,55,0.00,,---,0.00,149.00,VWS V14.00,2013-02-10 19:55:00,
2013-02-10 14:56:00,71.2,54.2,30.21,SE,145,11.0,22.0,55,0.00,,---,0.00,149.00,VWS V14.00,2013-02-10 19:56:00,
2013-02-10 14:57:00,71.2,54.2,30.21,SE,145,6.0,22.0,55,0.00,,---,0.00,149.00,VWS V14.00,2013-02-10 19:57:00,
2013-02-10 14:58:00,71.2,54.2,30.21,SSE,153,4.0,22.0,55,0.00,,---,0.00,541.00,VWS V14.00,2013-02-10 19:58:00,
2013-02-10 14:59:00,71.2,54.2,30.21,SE,126,19.0,22.0,55,0.00,,---,0.00,541.00,VWS V14.00,2013-02-10 19:59:00,
2013-02-10 15:00:00,71.2,54.2,30.20,SE,135,9.0,22.0,55,0.00,,---,0.00,541.00,VWS V14.00,2013-02-10 20:00:00,
2013-02-10 15:01:00,71.2,54.7,30.20,ESE,107,13.0,15.0,56,0.00,,---,0.00,192.00,VWS V14.00,2013-02-10 20:01:00,
2013-02-10 15:02:00,71.1,54.6,30.20,SE,135,12.0,15.0,56,0.00,,---,0.00,171.00,VWS V14.00,2013-02-10 20:02:00,
2013-02-10 15:03:00,71.0,54.5,30.20,ESE,120,16.0,17.0,56,0.00,,---,0.00,163.00,VWS V14.00,2013-02-10 20:03:00,
2013-02-10 15:04:00,71.0,54.5,30.20,ESE,122,9.0,17.0,56,0.00,,---,0.00,163.00,VWS V14.00,2013-02-10 20:04:00,
2013-02-10 15:05:00,70.9,54.4,30.20,SSE,156,12.0,18.0,56,0.00,,---,0.00,163.00,VWS V14.00,2013-02-10 20:05:00,
2013-02-10 15:06:00,70.8,54.3,30.20,SSE,152,14.0,22.0,56,0.00,,---,0.00,163.00,VWS V14.00,2013-02-10 20:06:00,
2013-02-10 15:07:00,70.8,54.3,30.20,SE,124,9.0,22.0,56,0.00,,---,0.00,163.00,VWS V14.00,2013-02-10 20:07:00,
2013-02-10 15:08:00,70.8,54.8,30.20,SE,130,14.0,22.0,57,0.00,,---,0.00,563.00,VWS V14.00,2013-02-10 20:08:00,
2013-02-10 15:09:00,70.7,54.2,30.20,ESE,116,18.0,22.0,56,0.00,,---,0.00,557.00,VWS V14.00,2013-02-10 20:09:00,
2013-02-10 15:10:00,70.7,54.2,30.20,ESE,115,17.0,22.0,56,0.00,,---,0.00,555.00,VWS V14.00,2013-02-10 20:10:00,
2013-02-10 15:11:00,70.6,54.6,30.20,ESE,120,15.0,22.0,57,0.00,,---,0.00,550.00,VWS V14.00,2013-02-10 20:11:00,
2013-02-10 15:12:00,70.7,54.2,30.20,SE,146,14.0,22.0,56,0.00,,---,0.00,538.00,VWS V14.00,2013-02-10 20:12:00,
2013-02-10 15:13:00,70.7,54.7,30.20,ESE,116,12.0,22.0,57,0.00,,---,0.00,545.00,VWS V14.00,2013-02-10 20:13:00,
2013-02-10 15:14:00,70.8,54.8,30.20,ESE,120,12.0,22.0,57,0.00,,---,0.00,517.00,VWS V14.00,2013-02-10 20:14:00,
2013-02-10 15:15:00,70.8,54.3,30.20,ESE,116,9.0,22.0,56,0.00,,---,0.00,469.00,VWS V14.00,2013-02-10 20:15:00,
2013-02-10 15:16:00,70.9,54.4,30.20,SE,124,8.0,22.0,56,0.00,,---,0.00,550.00,VWS V14.00,2013-02-10 20:16:00,
2013-02-10 15:17:00,70.9,54.9,30.20,ESE,122,7.0,22.0,57,0.00,,---,0.00,550.00,VWS V14.00,2013-02-10 20:17:00,
2013-02-10 15:18:00,70.9,54.4,30.20,ESE,103,12.0,22.0,56,0.00,,---,0.00,550.00,VWS V14.00,2013-02-10 20:18:00,
2013-02-10 15:19:00,70.9,54.4,30.20,ESE,106,11.0,22.0,56,0.00,,---,0.00,547.00,VWS V14.00,2013-02-10 20:19:00,
2013-02-10 15:20:00,70.8,54.3,30.20,ESE,114,10.0,22.0,56,0.00,,---,0.00,540.00,VWS V14.00,2013-02-10 20:20:00,
2013-02-10 15:21:00,70.8,54.3,30.20,SE,133,9.0,22.0,56,0.00,,---,0.00,496.00,VWS V14.00,2013-02-10 20:21:00,
2013-02-10 15:22:00,70.9,54.4,30.20,ESE,114,10.0,22.0,56,0.00,,---,0.00,520.00,VWS V14.00,2013-02-10 20:22:00,
2013-02-10 15:23:00,70.8,54.3,30.20,ESE,121,19.0,22.0,56,0.00,,---,0.00,506.00,VWS V14.00,2013-02-10 20:23:00,
2013-02-10 15:24:00,70.8,54.3,30.20,SE,124,18.0,22.0,56,0.00,,---,0.00,515.00,VWS V14.00,2013-02-10 20:24:00,
2013-02-10 15:25:00,70.7,54.7,30.20,ESE,111,15.0,22.0,57,0.00,,---,0.00,515.00,VWS V14.00,2013-02-10 20:25:00,
2013-02-10 15:26:00,70.6,54.6,30.20,SE,126,14.0,22.0,57,0.00,,---,0.00,513.00,VWS V14.00,2013-02-10 20:26:00,
2013-02-10 15:27:00,70.5,55.0,30.20,SSE,147,9.0,22.0,58,0.00,,---,0.00,501.00,VWS V14.00,2013-02-10 20:27:00,
2013-02-10 15:28:00,70.5,55.0,30.20,ESE,112,14.0,22.0,58,0.00,,---,0.00,501.00,VWS V14.00,2013-02-10 20:28:00,
2013-02-10 15:29:00,70.5,55.0,30.20,ESE,120,8.0,22.0,58,0.00,,---,0.00,501.00,VWS V14.00,2013-02-10 20:29:00,
2013-02-10 15:30:00,70.5,55.5,30.20,ESE,123,14.0,22.0,59,0.00,,---,0.00,487.00,VWS V14.00,2013-02-10 20:30:00,
2013-02-10 15:31:00,70.4,55.4,30.20,ESE,120,13.0,18.0,59,0.00,,---,0.00,483.00,VWS V14.00,2013-02-10 20:31:00,
2013-02-10 15:32:00,70.4,55.4,30.20,SE,126,14.0,18.0,59,0.00,,---,0.00,478.00,VWS V14.00,2013-02-10 20:32:00,
2013-02-10 15:33:00,70.4,55.4,30.20,SE,125,11.0,18.0,59,0.00,,---,0.00,466.00,VWS V14.00,2013-02-10 20:33:00,
2013-02-10 15:34:00,70.4,54.9,30.20,ESE,103,12.0,18.0,58,0.00,,---,0.00,457.00,VWS V14.00,2013-02-10 20:34:00,
2013-02-10 15:35:00,70.5,55.0,30.20,ESE,116,12.0,18.0,58,0.00,,---,0.00,450.00,VWS V14.00,2013-02-10 20:35:00,
2013-02-10 15:36:00,70.5,55.0,30.20,ESE,112,16.0,19.0,58,0.00,,---,0.00,448.00,VWS V14.00,2013-02-10 20:36:00,
2013-02-10 15:37:00,70.5,55.0,30.20,SE,124,12.0,19.0,58,0.00,,---,0.00,448.00,VWS V14.00,2013-02-10 20:37:00,
2013-02-10 15:38:00,70.5,55.5,30.20,SE,124,13.0,19.0,59,0.00,,---,0.00,448.00,VWS V14.00,2013-02-10 20:38:00,
2013-02-10 15:39:00,70.4,55.4,30.20,ESE,116,14.0,19.0,59,0.00,,---,0.00,450.00,VWS V14.00,2013-02-10 20:39:00,
2013-02-10 15:40:00,70.4,55.4,30.20,SE,124,14.0,19.0,59,0.00,,---,0.00,445.00,VWS V14.00,2013-02-10 20:40:00,
2013-02-10 15:41:00,70.4,55.4,30.20,SE,129,18.0,19.0,59,0.00,,---,0.00,436.00,VWS V14.00,2013-02-10 20:41:00,
2013-02-10 15:42:00,70.4,55.4,30.20,ESE,121,16.0,20.0,59,0.00,,---,0.00,429.00,VWS V14.00,2013-02-10 20:42:00,
2013-02-10 15:43:00,70.4,54.9,30.20,SE,140,12.0,20.0,58,0.00,,---,0.00,429.00,VWS V14.00,2013-02-10 20:43:00,
2013-02-10 15:44:00,70.4,54.9,30.20,ESE,112,9.0,20.0,58,0.00,,---,0.00,385.00,VWS V14.00,2013-02-10 20:44:00,
2013-02-10 15:45:00,70.3,55.3,30.20,SE,124,11.0,20.0,59,0.00,,---,0.00,244.00,VWS V14.00,2013-02-10 20:45:00,
2013-02-10 15:46:00,70.3,55.3,30.20,ESE,118,7.0,20.0,59,0.00,,---,0.00,244.00,VWS V14.00,2013-02-10 20:46:00,
2013-02-10 15:47:00,70.2,55.7,30.20,ESE,112,17.0,20.0,60,0.00,,---,0.00,332.00,VWS V14.00,2013-02-10 20:47:00,
2013-02-10 15:48:00,70.2,55.2,30.20,ESE,111,16.0,20.0,59,0.00,,---,0.00,413.00,VWS V14.00,2013-02-10 20:48:00,
2013-02-10 15:49:00,70.2,55.2,30.20,ESE,122,17.0,20.0,59,0.00,,---,0.00,401.00,VWS V14.00,2013-02-10 20:49:00,
2013-02-10 15:50:00,70.2,55.2,30.20,ESE,112,9.0,20.0,59,0.00,,---,0.00,390.00,VWS V14.00,2013-02-10 20:50:00,
2013-02-10 15:51:00,70.2,55.7,30.20,ESE,109,12.0,20.0,60,0.00,,---,0.00,413.00,VWS V14.00,2013-02-10 20:51:00,
2013-02-10 15:52:00,70.3,55.3,30.20,ESE,117,14.0,20.0,59,0.00,,---,0.00,329.00,VWS V14.00,2013-02-10 20:52:00,
2013-02-10 15:53:00,70.3,55.3,30.20,ESE,114,12.0,20.0,59,0.00,,---,0.00,394.00,VWS V14.00,2013-02-10 20:53:00,
2013-02-10 15:54:00,70.3,55.3,30.20,SE,125,14.0,20.0,59,0.00,,---,0.00,406.00,VWS V14.00,2013-02-10 20:54:00,
2013-02-10 15:55:00,70.3,55.3,30.20,SSE,150,15.0,20.0,59,0.00,,---,0.00,308.00,VWS V14.00,2013-02-10 20:55:00,
2013-02-10 15:56:00,70.3,55.3,30.20,SE,127,7.0,20.0,59,0.00,,---,0.00,308.00,VWS V14.00,2013-02-10 20:56:00,
2013-02-10 15:57:00,70.3,55.8,30.20,ESE,118,10.0,20.0,60,0.00,,---,0.00,308.00,VWS V14.00,2013-02-10 20:57:00,
2013-02-10 15:58:00,70.2,55.7,30.20,SE,124,17.0,20.0,60,0.00,,---,0.00,308.00,VWS V14.00,2013-02-10 20:58:00,
2013-02-10 15:59:00,70.1,55.6,30.20,ESE,120,13.0,20.0,60,0.00,,---,0.00,362.00,VWS V14.00,2013-02-10 20:59:00,
2013-02-10 16:00:00,70.1,55.6,30.20,ESE,115,13.0,20.0,60,0.00,,---,0.00,387.00,VWS V14.00,2013-02-10 21:00:00,
2013-02-10 16:01:00,70.1,55.6,30.20,East,95,11.0,14.0,60,0.00,,---,0.00,373.00,VWS V14.00,2013-02-10 21:01:00,
2013-02-10 16:02:00,70.1,55.6,30.20,ESE,114,13.0,14.0,60,0.00,,---,0.00,359.00,VWS V14.00,2013-02-10 21:02:00,
2013-02-10 16:03:00,70.1,55.6,30.20,ESE,110,12.0,14.0,60,0.00,,---,0.00,343.00,VWS V14.00,2013-02-10 21:03:00,
2013-02-10 16:04:00,70.1,55.6,30.20,ESE,120,10.0,14.0,60,0.00,,---,0.00,339.00,VWS V14.00,2013-02-10 21:04:00,
2013-02-10 16:05:00,70.1,55.6,30.21,ESE,105,13.0,15.0,60,0.00,,---,0.00,338.00,VWS V14.00,2013-02-10 21:05:00,
2013-02-10 16:06:00,70.2,55.7,30.21,ESE,108,11.0,17.0,60,0.00,,---,0.00,341.00,VWS V14.00,2013-02-10 21:06:00,
2013-02-10 16:07:00,70.2,55.7,30.20,ESE,116,9.0,17.0,60,0.00,,---,0.00,278.00,VWS V14.00,2013-02-10 21:07:00,
2013-02-10 16:08:00,70.2,55.7,30.21,ESE,110,13.0,17.0,60,0.00,,---,0.00,338.00,VWS V14.00,2013-02-10 21:08:00,
2013-02-10 16:09:00,70.1,55.6,30.21,ESE,111,12.0,17.0,60,0.00,,---,0.00,348.00,VWS V14.00,2013-02-10 21:09:00,
2013-02-10 16:10:00,70.1,55.6,30.21,SE,135,10.0,17.0,60,0.00,,---,0.00,348.00,VWS V14.00,2013-02-10 21:10:00,
2013-02-10 16:11:00,70.1,55.6,30.20,SE,128,14.0,18.0,60,0.00,,---,0.00,323.00,VWS V14.00,2013-02-10 21:11:00,
2013-02-10 16:12:00,70.2,55.7,30.20,ESE,116,12.0,18.0,60,0.00,,---,0.00,323.00,VWS V14.00,2013-02-10 21:12:00,
2013-02-10 16:13:00,70.2,55.7,30.20,ESE,120,10.0,18.0,60,0.00,,---,0.00,183.00,VWS V14.00,2013-02-10 21:13:00,
2013-02-10 16:14:00,70.2,55.7,30.20,ESE,104,12.0,18.0,60,0.00,,---,0.00,295.00,VWS V14.00,2013-02-10 21:14:00,
2013-02-10 16:15:00,70.2,55.7,30.20,ESE,118,9.0,18.0,60,0.00,,---,0.00,295.00,VWS V14.00,2013-02-10 21:15:00,
2013-02-10 16:16:00,70.1,55.6,30.20,SE,141,8.0,18.0,60,0.00,,---,0.00,186.00,VWS V14.00,2013-02-10 21:16:00,
2013-02-10 16:17:00,70.1,56.0,30.20,SSE,155,8.0,18.0,61,0.00,,---,0.00,185.00,VWS V14.00,2013-02-10 21:17:00,
2013-02-10 16:18:00,70.2,55.7,30.21,SSE,159,10.0,18.0,60,0.00,,---,0.00,232.00,VWS V14.00,2013-02-10 21:18:00,
2013-02-10 16:19:00,70.3,55.8,30.21,SE,133,5.0,18.0,60,0.00,,---,0.00,142.00,VWS V14.00,2013-02-10 21:19:00,
2013-02-10 16:20:00,70.3,55.8,30.21,ESE,107,8.0,18.0,60,0.00,,---,0.00,120.00,VWS V14.00,2013-02-10 21:20:00,
2013-02-10 16:21:00,70.3,56.2,30.21,ESE,123,14.0,18.0,61,0.00,,---,0.00,125.00,VWS V14.00,2013-02-10 21:21:00,
2013-02-10 16:22:00,70.3,55.8,30.21,ESE,118,9.0,18.0,60,0.00,,---,0.00,123.00,VWS V14.00,2013-02-10 21:22:00,
2013-02-10 16:23:00,70.3,55.8,30.21,ESE,118,21.0,21.0,60,0.00,,---,0.00,123.00,VWS V14.00,2013-02-10 21:23:00,
2013-02-10 16:24:00,70.1,56.0,30.21,SSE,149,10.0,21.0,61,0.00,,---,0.00,118.00,VWS V14.00,2013-02-10 21:24:00,
2013-02-10 16:25:00,70.0,56.0,30.21,ESE,114,16.0,21.0,61,0.00,,---,0.00,111.00,VWS V14.00,2013-02-10 21:25:00,
2013-02-10 16:26:00,69.9,55.8,30.21,SE,126,7.0,21.0,61,0.00,,---,0.00,158.00,VWS V14.00,2013-02-10 21:26:00,
2013-02-10 16:27:00,69.9,56.3,30.21,ESE,122,10.0,21.0,62,0.00,,---,0.00,114.00,VWS V14.00,2013-02-10 21:27:00,
2013-02-10 16:28:00,69.8,56.2,30.21,ESE,120,10.0,21.0,62,0.00,,---,0.00,121.00,VWS V14.00,2013-02-10 21:28:00,
2013-02-10 16:29:00,69.8,55.8,30.21,SE,126,6.0,21.0,61,0.00,,---,0.00,121.00,VWS V14.00,2013-02-10 21:29:00,
2013-02-10 16:30:00,69.8,56.2,30.21,SE,125,8.0,21.0,62,0.00,,---,0.00,209.00,VWS V14.00,2013-02-10 21:30:00,
2013-02-10 16:31:00,69.9,55.8,30.21,SSE,153,12.0,17.0,61,0.00,,---,0.00,248.00,VWS V14.00,2013-02-10 21:31:00,
2013-02-10 16:32:00,69.9,55.8,30.20,ESE,108,11.0,17.0,61,0.00,,---,0.00,218.00,VWS V14.00,2013-02-10 21:32:00,
2013-02-10 16:33:00,69.9,55.8,30.20,SE,130,10.0,17.0,61,0.00,,---,0.00,265.00,VWS V14.00,2013-02-10 21:33:00,
2013-02-10 16:34:00,69.9,55.8,30.20,ESE,112,13.0,17.0,61,0.00,,---,0.00,258.00,VWS V14.00,2013-02-10 21:34:00,
2013-02-10 16:35:00,69.9,55.8,30.20,ESE,110,11.0,17.0,61,0.00,,---,0.00,246.00,VWS V14.00,2013-02-10 21:35:00,
2013-02-10 16:36:00,69.9,55.8,30.20,SE,126,11.0,17.0,61,0.00,,---,0.00,209.00,VWS V14.00,2013-02-10 21:36:00,
2013-02-10 16:37:00,69.8,55.8,30.20,ESE,123,10.0,17.0,61,0.00,,---,0.00,209.00,VWS V14.00,2013-02-10 21:37:00,
2013-02-10 16:38:00,69.8,56.2,30.20,ESE,116,10.0,17.0,62,0.00,,---,0.00,90.00,VWS V14.00,2013-02-10 21:38:00,
2013-02-10 16:39:00,69.7,56.1,30.20,ESE,108,10.0,17.0,62,0.00,,---,0.00,88.00,VWS V14.00,2013-02-10 21:39:00,
2013-02-10 16:40:00,69.6,56.0,30.20,ESE,112,14.0,17.0,62,0.00,,---,0.00,90.00,VWS V14.00,2013-02-10 21:40:00,
2013-02-10 16:41:00,69.6,56.0,30.20,ESE,108,8.0,17.0,62,0.00,,---,0.00,90.00,VWS V14.00,2013-02-10 21:41:00,
2013-02-10 16:42:00,69.6,56.5,30.20,SE,124,12.0,17.0,63,0.00,,---,0.00,223.00,VWS V14.00,2013-02-10 21:42:00,
2013-02-10 16:43:00,69.6,56.0,30.20,SE,125,11.0,17.0,62,0.00,,---,0.00,221.00,VWS V14.00,2013-02-10 21:43:00,
2013-02-10 16:44:00,69.6,56.0,30.20,ESE,118,11.0,17.0,62,0.00,,---,0.00,206.00,VWS V14.00,2013-02-10 21:44:00,
2013-02-10 16:45:00,69.6,56.0,30.20,ESE,123,9.0,17.0,62,0.00,,---,0.00,162.00,VWS V14.00,2013-02-10 21:45:00,
2013-02-10 16:46:00,69.6,56.0,30.20,SE,129,7.0,17.0,62,0.00,,---,0.00,102.00,VWS V14.00,2013-02-10 21:46:00,
2013-02-10 16:47:00,69.7,56.1,30.20,ESE,118,9.0,17.0,62,0.00,,---,0.00,186.00,VWS V14.00,2013-02-10 21:47:00,
2013-02-10 16:48:00,69.8,56.2,30.20,SE,128,9.0,17.0,62,0.00,,---,0.00,193.00,VWS V14.00,2013-02-10 21:48:00,
2013-02-10 16:49:00,69.8,56.2,30.20,SE,124,13.0,17.0,62,0.00,,---,0.00,186.00,VWS V14.00,2013-02-10 21:49:00,
2013-02-10 16:50:00,69.8,56.2,30.20,ESE,115,12.0,17.0,62,0.00,,---,0.00,185.00,VWS V14.00,2013-02-10 21:50:00,
2013-02-10 16:51:00,69.8,56.2,30.20,ESE,114,10.0,17.0,62,0.00,,---,0.00,181.00,VWS V14.00,2013-02-10 21:51:00,
2013-02-10 16:52:00,69.7,56.1,30.20,ESE,102,8.0,17.0,62,0.00,,---,0.00,178.00,VWS V14.00,2013-02-10 21:52:00,
2013-02-10 16:53:00,69.7,56.1,30.20,SE,139,10.0,17.0,62,0.00,,---,0.00,174.00,VWS V14.00,2013-02-10 21:53:00,
2013-02-10 16:54:00,69.8,56.2,30.20,SE,135,10.0,17.0,62,0.00,,---,0.00,171.00,VWS V14.00,2013-02-10 21:54:00,
2013-02-10 16:55:00,69.8,56.2,30.19,SE,126,9.0,17.0,62,0.00,,---,0.00,165.00,VWS V14.00,2013-02-10 21:55:00,
2013-02-10 16:56:00,69.9,56.3,30.19,ESE,123,7.0,17.0,62,0.00,,---,0.00,162.00,VWS V14.00,2013-02-10 21:56:00,
2013-02-10 16:57:00,69.9,56.3,30.19,ESE,120,8.0,17.0,62,0.00,,---,0.00,160.00,VWS V14.00,2013-02-10 21:57:00,
2013-02-10 16:58:00,70.0,56.4,30.20,SE,133,11.0,17.0,62,0.00,,---,0.00,155.00,VWS V14.00,2013-02-10 21:58:00,
2013-02-10 16:59:00,70.0,56.4,30.20,ESE,110,6.0,17.0,62,0.00,,---,0.00,153.00,VWS V14.00,2013-02-10 21:59:00,
2013-02-10 17:00:00,70.0,56.4,30.20,SE,127,10.0,17.0,62,0.00,,---,0.00,149.00,VWS V14.00,2013-02-10 22:00:00,
2013-02-10 17:01:00,70.0,56.4,30.20,ESE,112,13.0,18.0,62,0.00,,---,0.00,141.00,VWS V14.00,2013-02-10 22:01:00,
2013-02-10 17:02:00,69.9,56.3,30.20,SE,128,12.0,18.0,62,0.00,,---,0.00,135.00,VWS V14.00,2013-02-10 22:02:00,
2013-02-10 17:03:00,69.8,56.2,30.20,SSE,156,5.0,18.0,62,0.00,,---,0.00,111.00,VWS V14.00,2013-02-10 22:03:00,
2013-02-10 17:04:00,69.8,56.2,30.20,South,175,12.0,18.0,62,0.00,,---,0.00,109.00,VWS V14.00,2013-02-10 22:04:00,
2013-02-10 17:05:00,69.8,56.2,30.20,SE,138,9.0,18.0,62,0.00,,---,0.00,121.00,VWS V14.00,2013-02-10 22:05:00,
2013-02-10 17:06:00,69.8,56.2,30.20,SSE,147,11.0,18.0,62,0.00,,---,0.00,127.00,VWS V14.00,2013-02-10 22:06:00,
2013-02-10 17:07:00,69.8,56.2,30.20,South,180,10.0,18.0,62,0.00,,---,0.00,121.00,VWS V14.00,2013-02-10 22:07:00,
2013-02-10 17:08:00,69.7,56.1,30.20,SE,124,9.0,18.0,62,0.00,,---,0.00,118.00,VWS V14.00,2013-02-10 22:08:00,
2013-02-10 17:09:00,69.7,56.1,30.20,SE,137,11.0,18.0,62,0.00,,---,0.00,114.00,VWS V14.00,2013-02-10 22:09:00,
2013-02-10 17:10:00,69.7,56.1,30.20,SE,135,13.0,18.0,62,0.00,,---,0.00,111.00,VWS V14.00,2013-02-10 22:10:00,
2013-02-10 17:11:00,69.6,56.5,30.20,SE,139,11.0,18.0,63,0.00,,---,0.00,95.00,VWS V14.00,2013-02-10 22:11:00,
2013-02-10 17:12:00,69.6,56.5,30.20,ESE,122,14.0,18.0,63,0.00,,---,0.00,76.00,VWS V14.00,2013-02-10 22:12:00,
2013-02-10 17:13:00,69.5,56.4,30.19,ESE,117,8.0,18.0,63,0.00,,---,0.00,97.00,VWS V14.00,2013-02-10 22:13:00,
2013-02-10 17:14:00,69.5,56.4,30.19,SE,145,13.0,18.0,63,0.00,,---,0.00,95.00,VWS V14.00,2013-02-10 22:14:00,
2013-02-10 17:15:00,69.5,56.4,30.19,SE,129,10.0,18.0,63,0.00,,---,0.00,91.00,VWS V14.00,2013-02-10 22:15:00,
2013-02-10 17:16:00,69.5,56.4,30.19,SE,131,7.0,18.0,63,0.00,,---,0.00,88.00,VWS V14.00,2013-02-10 22:16:00,
2013-02-10 17:17:00,69.4,56.3,30.19,SE,130,5.0,18.0,63,0.00,,---,0.00,86.00,VWS V14.00,2013-02-10 22:17:00,
2013-02-10 17:18:00,69.4,56.3,30.19,ESE,116,12.0,18.0,63,0.00,,---,0.00,84.00,VWS V14.00,2013-02-10 22:18:00,
2013-02-10 17:19:00,69.4,56.3,30.19,SE,133,8.0,18.0,63,0.00,,---,0.00,77.00,VWS V14.00,2013-02-10 22:19:00,
2013-02-10 17:20:00,69.3,56.6,30.19,SE,131,11.0,18.0,64,0.00,,---,0.00,72.00,VWS V14.00,2013-02-10 22:20:00,
2013-02-10 17:21:00,69.3,56.6,30.19,SE,146,11.0,18.0,64,0.00,,---,0.00,70.00,VWS V14.00,2013-02-10 22:21:00,
2013-02-10 17:22:00,69.2,56.5,30.20,SE,131,12.0,18.0,64,0.00,,---,0.00,58.00,VWS V14.00,2013-02-10 22:22:00,
2013-02-10 17:23:00,69.2,56.5,30.19,ESE,118,9.0,18.0,64,0.00,,---,0.00,63.00,VWS V14.00,2013-02-10 22:23:00,
2013-02-10 17:24:00,69.1,56.8,30.20,ESE,110,9.0,18.0,65,0.00,,---,0.00,56.00,VWS V14.00,2013-02-10 22:24:00,
2013-02-10 17:25:00,69.1,56.8,30.19,SE,136,7.0,18.0,65,0.00,,---,0.00,58.00,VWS V14.00,2013-02-10 22:25:00,
2013-02-10 17:26:00,69.0,56.8,30.19,SE,124,11.0,18.0,65,0.00,,---,0.00,58.00,VWS V14.00,2013-02-10 22:26:00,
2013-02-10 17:27:00,69.0,56.8,30.19,SE,137,8.0,18.0,65,0.00,,---,0.00,58.00,VWS V14.00,2013-02-10 22:27:00,
2013-02-10 17:28:00,68.9,56.7,30.19,SE,133,11.0,18.0,65,0.00,,---,0.00,56.00,VWS V14.00,2013-02-10 22:28:00,
2013-02-10 17:29:00,69.0,56.3,30.19,SE,146,14.0,18.0,64,0.00,,---,0.00,53.00,VWS V14.00,2013-02-10 22:29:00,
2013-02-10 17:30:00,69.0,56.3,30.19,SE,136,9.0,18.0,64,0.00,,---,0.00,49.00,VWS V14.00,2013-02-10 22:30:00,
2013-02-10 17:31:00,69.0,56.3,30.20,SE,135,8.0,9.0,64,0.00,,---,0.00,49.00,VWS V14.00,2013-02-10 22:31:00,
2013-02-10 17:32:00,69.0,56.3,30.20,SE,138,7.0,9.0,64,0.00,,---,0.00,47.00,VWS V14.00,2013-02-10 22:32:00,
2013-02-10 17:33:00,69.0,56.3,30.20,SSE,147,9.0,14.0,64,0.00,,---,0.00,46.00,VWS V14.00,2013-02-10 22:33:00,
2013-02-10 17:34:00,68.9,56.7,30.19,ESE,120,13.0,14.0,65,0.00,,---,0.00,42.00,VWS V14.00,2013-02-10 22:34:00,
2013-02-10 17:35:00,68.9,56.2,30.19,SE,124,7.0,14.0,64,0.00,,---,0.00,40.00,VWS V14.00,2013-02-10 22:35:00,
2013-02-10 17:36:00,68.9,56.7,30.19,SE,145,8.0,14.0,65,0.00,,---,0.00,35.00,VWS V14.00,2013-02-10 22:36:00,
2013-02-10 17:37:00,68.9,56.7,30.20,ESE,118,14.0,15.0,65,0.00,,---,0.00,33.00,VWS V14.00,2013-02-10 22:37:00,
2013-02-10 17:38:00,68.9,56.7,30.19,SE,126,12.0,15.0,65,0.00,,---,0.00,32.00,VWS V14.00,2013-02-10 22:38:00,
2013-02-10 17:39:00,68.8,56.6,30.20,SSE,165,3.0,15.0,65,0.00,,---,0.00,30.00,VWS V14.00,2013-02-10 22:39:00,
2013-02-10 17:40:00,68.8,56.6,30.20,SE,130,10.0,15.0,65,0.00,,---,0.00,28.00,VWS V14.00,2013-02-10 22:40:00,
2013-02-10 17:41:00,68.8,56.6,30.20,SE,124,11.0,15.0,65,0.00,,---,0.00,25.00,VWS V14.00,2013-02-10 22:41:00,
2013-02-10 17:42:00,68.7,56.5,30.20,SE,135,6.0,15.0,65,0.00,,---,0.00,23.00,VWS V14.00,2013-02-10 22:42:00,
2013-02-10 17:43:00,68.7,56.5,30.20,SE,125,6.0,15.0,65,0.00,,---,0.00,21.00,VWS V14.00,2013-02-10 22:43:00,
2013-02-10 17:44:00,68.6,56.4,30.20,SE,145,7.0,15.0,65,0.00,,---,0.00,21.00,VWS V14.00,2013-02-10 22:44:00,
2013-02-10 17:45:00,68.6,56.4,30.20,SSE,153,5.0,15.0,65,0.00,,---,0.00,21.00,VWS V14.00,2013-02-10 22:45:00,
2013-02-10 17:46:00,68.6,56.8,30.20,SE,125,10.0,15.0,66,0.00,,---,0.00,19.00,VWS V14.00,2013-02-10 22:46:00,
2013-02-10 17:47:00,68.6,56.4,30.20,ESE,117,11.0,15.0,65,0.00,,---,0.00,19.00,VWS V14.00,2013-02-10 22:47:00,
2013-02-10 17:48:00,68.6,56.8,30.20,SE,129,10.0,17.0,66,0.00,,---,0.00,19.00,VWS V14.00,2013-02-10 22:48:00,
2013-02-10 17:49:00,68.6,56.8,30.20,SE,129,6.0,17.0,66,0.00,,---,0.00,18.00,VWS V14.00,2013-02-10 22:49:00,
2013-02-10 17:50:00,68.5,56.7,30.20,SE,139,8.0,17.0,66,0.00,,---,0.00,16.00,VWS V14.00,2013-02-10 22:50:00,
2013-02-10 17:51:00,68.5,56.7,30.20,SE,132,11.0,17.0,66,0.00,,---,0.00,14.00,VWS V14.00,2013-02-10 22:51:00,
2013-02-10 17:52:00,68.5,56.7,30.20,SE,142,8.0,17.0,66,0.00,,---,0.00,12.00,VWS V14.00,2013-02-10 22:52:00,
2013-02-10 17:53:00,68.5,56.7,30.20,SE,128,9.0,17.0,66,0.00,,---,0.00,11.00,VWS V14.00,2013-02-10 22:53:00,
2013-02-10 17:54:00,68.5,56.7,30.20,ESE,118,10.0,17.0,66,0.00,,---,0.00,9.00,VWS V14.00,2013-02-10 22:54:00,
2013-02-10 17:55:00,68.4,56.6,30.20,ESE,115,10.0,17.0,66,0.00,,---,0.00,7.00,VWS V14.00,2013-02-10 22:55:00,
2013-02-10 17:56:00,68.4,56.6,30.20,SE,139,7.0,17.0,66,0.00,,---,0.00,7.00,VWS V14.00,2013-02-10 22:56:00,
2013-02-10 17:57:00,68.4,56.6,30.20,SSE,149,6.0,17.0,66,0.00,,---,0.00,5.00,VWS V14.00,2013-02-10 22:57:00,
2013-02-10 17:58:00,68.3,56.5,30.20,SE,141,11.0,17.0,66,0.00,,---,0.00,5.00,VWS V14.00,2013-02-10 22:58:00,
2013-02-10 17:59:00,68.3,56.5,30.20,SE,133,13.0,19.0,66,0.00,,---,0.00,5.00,VWS V14.00,2013-02-10 22:59:00,
2013-02-10 18:00:00,68.4,56.6,30.20,SSE,160,8.0,19.0,66,0.00,,---,0.00,0.00,VWS V14.00,2013-02-10 23:00:00,
2013-02-10 18:01:00,68.3,56.5,30.20,SE,129,8.0,8.0,66,0.00,,---,0.00,0.00,VWS V14.00,2013-02-10 23:01:00,
2013-02-10 18:02:00,68.3,56.9,30.20,South,189,5.0,8.0,67,0.00,,---,0.00,0.00,VWS V14.00,2013-02-10 23:02:00,
2013-02-10 18:03:00,68.2,56.4,30.20,SE,135,9.0,9.0,66,0.00,,---,0.00,0.00,VWS V14.00,2013-02-10 23:03:00,
2013-02-10 18:04:00,68.2,56.4,30.20,ESE,122,10.0,10.0,66,0.00,,---,0.00,0.00,VWS V14.00,2013-02-10 23:04:00,
2013-02-10 18:05:00,68.2,56.4,30.20,SSE,153,6.0,11.0,66,0.00,,---,0.00,0.00,VWS V14.00,2013-02-10 23:05:00,
2013-02-10 18:06:00,68.1,56.3,30.20,SE,126,6.0,11.0,66,0.00,,---,0.00,0.00,VWS V14.00,2013-02-10 23:06:00,
2013-02-10 18:07:00,68.1,56.3,30.20,ESE,123,8.0,11.0,66,0.00,,---,0.00,0.00,VWS V14.00,2013-02-10 23:07:00,
2013-02-10 18:08:00,68.1,56.7,30.20,SE,129,8.0,11.0,67,0.00,,---,0.00,0.00,VWS V14.00,2013-02-10 23:08:00,
2013-02-10 18:09:00,68.0,56.7,30.20,SE,137,6.0,11.0,67,0.00,,---,0.00,0.00,VWS V14.00,2013-02-10 23:09:00,
2013-02-10 18:10:00,68.0,56.7,30.19,SE,124,6.0,11.0,67,0.00,,---,0.00,0.00,VWS V14.00,2013-02-10 23:10:00,
2013-02-10 18:11:00,67.9,56.5,30.19,SSE,149,7.0,11.0,67,0.00,,---,0.00,0.00,VWS V14.00,2013-02-10 23:11:00,
2013-02-10 18:12:00,67.9,56.5,30.19,ESE,119,5.0,11.0,67,0.00,,---,0.00,0.00,VWS V14.00,2013-02-10 23:12:00,
2013-02-10 18:13:00,67.9,56.5,30.19,ESE,112,10.0,13.0,67,0.00,,---,0.00,0.00,VWS V14.00,2013-02-10 23:13:00,
2013-02-10 18:14:00,67.9,56.5,30.19,SE,127,12.0,13.0,67,0.00,,---,0.00,0.00,VWS V14.00,2013-02-10 23:14:00,
2013-02-10 18:15:00,67.9,56.5,30.19,SE,133,9.0,14.0,67,0.00,,---,0.00,0.00,VWS V14.00,2013-02-10 23:15:00,
2013-02-10 18:16:00,67.9,56.5,30.19,ESE,107,10.0,14.0,67,0.00,,---,0.00,0.00,VWS V14.00,2013-02-10 23:16:00,
2013-02-10 18:17:00,67.8,56.9,30.19,SE,137,7.0,14.0,68,0.00,,---,0.00,0.00,VWS V14.00,2013-02-10 23:17:00,
2013-02-10 18:18:00,67.8,56.5,30.19,SE,134,10.0,14.0,67,0.00,,---,0.00,0.00,VWS V14.00,2013-02-10 23:18:00,
2013-02-10 18:19:00,67.8,56.5,30.19,ESE,107,9.0,14.0,67,0.00,,---,0.00,0.00,VWS V14.00,2013-02-10 23:19:00,
2013-02-10 18:20:00,67.8,56.5,30.19,SE,135,6.0,14.0,67,0.00,,---,0.00,0.00,VWS V14.00,2013-02-10 23:20:00,
2013-02-10 18:21:00,67.8,56.5,30.19,SE,125,10.0,14.0,67,0.00,,---,0.00,0.00,VWS V14.00,2013-02-10 23:21:00,
2013-02-10 18:22:00,67.7,56.8,30.19,SE,144,9.0,14.0,68,0.00,,---,0.00,0.00,VWS V14.00,2013-02-10 23:22:00,
2013-02-10 18:23:00,67.7,56.8,30.19,ESE,116,12.0,14.0,68,0.00,,---,0.00,0.00,VWS V14.00,2013-02-10 23:23:00,
2013-02-10 18:24:00,67.7,56.8,30.19,SE,143,7.0,14.0,68,0.00,,---,0.00,0.00,VWS V14.00,2013-02-10 23:24:00,
2013-02-10 18:25:00,67.7,56.8,30.19,East,99,6.0,14.0,68,0.00,,---,0.00,0.00,VWS V14.00,2013-02-10 23:25:00,
2013-02-10 18:26:00,67.6,56.7,30.19,ESE,114,7.0,14.0,68,0.00,,---,0.00,0.00,VWS V14.00,2013-02-10 23:26:00,
2013-02-10 18:27:00,67.6,56.7,30.19,SE,134,7.0,14.0,68,0.00,,---,0.00,0.00,VWS V14.00,2013-02-10 23:27:00,
2013-02-10 18:28:00,67.6,56.7,30.19,ESE,118,6.0,14.0,68,0.00,,---,0.00,0.00,VWS V14.00,2013-02-10 23:28:00,
2013-02-10 18:29:00,67.5,56.6,30.19,SE,126,10.0,14.0,68,0.00,,---,0.00,0.00,VWS V14.00,2013-02-10 23:29:00,
2013-02-10 18:30:00,67.5,56.6,30.19,SE,126,13.0,19.0,68,0.00,,---,0.00,0.00,VWS V14.00,2013-02-10 23:30:00,
2013-02-10 18:31:00,67.6,56.7,30.19,SE,128,7.0,14.0,68,0.00,,---,0.00,0.00,VWS V14.00,2013-02-10 23:31:00,
2013-02-10 18:32:00,67.6,56.7,30.19,SE,130,6.0,14.0,68,0.00,,---,0.00,0.00,VWS V14.00,2013-02-10 23:32:00,
2013-02-10 18:33:00,67.5,56.6,30.19,ESE,118,6.0,14.0,68,0.00,,---,0.00,0.00,VWS V14.00,2013-02-10 23:33:00,
2013-02-10 18:34:00,67.5,56.6,30.19,SE,124,7.0,14.0,68,0.00,,---,0.00,0.00,VWS V14.00,2013-02-10 23:34:00,
2013-02-10 18:35:00,67.5,56.6,30.19,SE,130,6.0,14.0,68,0.00,,---,0.00,0.00,VWS V14.00,2013-02-10 23:35:00,
2013-02-10 18:36:00,67.5,56.6,30.19,SSE,168,7.0,14.0,68,0.00,,---,0.00,0.00,VWS V14.00,2013-02-10 23:36:00,
2013-02-10 18:37:00,67.4,56.5,30.19,SE,136,7.0,14.0,68,0.00,,---,0.00,0.00,VWS V14.00,2013-02-10 23:37:00,
2013-02-10 18:38:00,67.4,56.5,30.19,ESE,102,8.0,14.0,68,0.00,,---,0.00,0.00,VWS V14.00,2013-02-10 23:38:00,
2013-02-10 18:39:00,67.4,56.5,30.19,SE,135,7.0,14.0,68,0.00,,---,0.00,0.00,VWS V14.00,2013-02-10 23:39:00,
2013-02-10 18:40:00,67.4,56.5,30.19,ESE,111,11.0,14.0,68,0.00,,---,0.00,0.00,VWS V14.00,2013-02-10 23:40:00,
2013-02-10 18:41:00,67.4,56.5,30.19,ESE,117,10.0,17.0,68,0.00,,---,0.00,0.00,VWS V14.00,2013-02-10 23:41:00,
2013-02-10 18:42:00,67.4,56.5,30.19,SE,145,5.0,17.0,68,0.00,,---,0.00,0.00,VWS V14.00,2013-02-10 23:42:00,
2013-02-10 18:43:00,67.4,56.5,30.19,SE,129,6.0,17.0,68,0.00,,---,0.00,0.00,VWS V14.00,2013-02-10 23:43:00,
2013-02-10 18:44:00,67.4,56.5,30.19,SE,134,6.0,17.0,68,0.00,,---,0.00,0.00,VWS V14.00,2013-02-10 23:44:00,
2013-02-10 18:45:00,67.4,56.5,30.19,SE,131,8.0,17.0,68,0.00,,---,0.00,0.00,VWS V14.00,2013-02-10 23:45:00,
2013-02-10 18:46:00,67.4,56.5,30.19,SE,143,9.0,17.0,68,0.00,,---,0.00,0.00,VWS V14.00,2013-02-10 23:46:00,
2013-02-10 18:47:00,67.4,56.5,30.19,SE,135,8.0,17.0,68,0.00,,---,0.00,0.00,VWS V14.00,2013-02-10 23:47:00,
2013-02-10 18:48:00,67.4,56.5,30.19,SE,137,6.0,17.0,68,0.00,,---,0.00,0.00,VWS V14.00,2013-02-10 23:48:00,
2013-02-10 18:49:00,67.4,56.5,30.19,SE,144,7.0,17.0,68,0.00,,---,0.00,0.00,VWS V14.00,2013-02-10 23:49:00,
2013-02-10 18:50:00,67.4,56.5,30.19,SE,134,5.0,17.0,68,0.00,,---,0.00,0.00,VWS V14.00,2013-02-10 23:50:00,
2013-02-10 18:51:00,67.4,56.5,30.19,ESE,119,9.0,17.0,68,0.00,,---,0.00,0.00,VWS V14.00,2013-02-10 23:51:00,
2013-02-10 18:52:00,67.4,56.9,30.19,SE,133,7.0,17.0,69,0.00,,---,0.00,0.00,VWS V14.00,2013-02-10 23:52:00,
2013-02-10 18:53:00,67.3,56.8,30.19,SSE,154,4.0,17.0,69,0.00,,---,0.00,0.00,VWS V14.00,2013-02-10 23:53:00,
2013-02-10 18:54:00,67.3,56.8,30.19,SE,146,6.0,17.0,69,0.00,,---,0.00,0.00,VWS V14.00,2013-02-10 23:54:00,
2013-02-10 18:55:00,67.2,56.7,30.19,SSE,163,5.0,17.0,69,0.00,,---,0.00,0.00,VWS V14.00,2013-02-10 23:55:00,
2013-02-10 18:56:00,67.2,56.7,30.19,SSE,151,5.0,17.0,69,0.00,,---,0.00,0.00,VWS V14.00,2013-02-10 23:56:00,
2013-02-10 18:57:00,67.2,56.7,30.19,South,175,13.0,17.0,69,0.00,,---,0.00,0.00,VWS V14.00,2013-02-10 23:57:00,
2013-02-10 18:58:00,67.2,56.7,30.19,SE,125,6.0,17.0,69,0.00,,---,0.00,0.00,VWS V14.00,2013-02-10 23:58:00,
2013-02-10 18:59:00,67.1,56.6,30.19,South,170,9.0,17.0,69,0.00,,---,0.00,0.00,VWS V14.00,2013-02-10 23:59:00,
2013-02-10 19:00:00,67.1,56.6,30.19,SE,126,8.0,17.0,69,0.00,,---,0.00,0.00,VWS V14.00,2013-02-11 00:00:00,
2013-02-10 19:01:00,67.1,56.6,30.19,South,180,2.0,8.0,69,0.00,,---,0.00,0.00,VWS V14.00,2013-02-11 00:01:00,
2013-02-10 19:02:00,67.0,56.9,30.19,SE,125,7.0,9.0,70,0.00,,---,0.00,0.00,VWS V14.00,2013-02-11 00:02:00,
2013-02-10 19:03:00,67.0,56.9,30.19,SSE,151,12.0,13.0,70,0.00,,---,0.00,0.00,VWS V14.00,2013-02-11 00:03:00,
2013-02-10 19:04:00,67.0,56.9,30.19,ESE,120,11.0,13.0,70,0.00,,---,0.00,0.00,VWS V14.00,2013-02-11 00:04:00,
2013-02-10 19:05:00,67.0,56.9,30.19,SE,129,10.0,13.0,70,0.00,,---,0.00,0.00,VWS V14.00,2013-02-11 00:05:00,
2013-02-10 19:06:00,67.0,56.9,30.19,ESE,120,7.0,13.0,70,0.00,,---,0.00,0.00,VWS V14.00,2013-02-11 00:06:00,
2013-02-10 19:07:00,67.0,56.9,30.19,SSE,153,5.0,13.0,70,0.00,,---,0.00,0.00,VWS V14.00,2013-02-11 00:07:00,
2013-02-10 19:08:00,67.0,56.9,30.19,SE,127,5.0,13.0,70,0.00,,---,0.00,0.00,VWS V14.00,2013-02-11 00:08:00,
2013-02-10 19:09:00,66.9,56.8,30.19,SE,131,4.0,13.0,70,0.00,,---,0.00,0.00,VWS V14.00,2013-02-11 00:09:00,
2013-02-10 19:10:00,66.9,56.8,30.19,SE,126,6.0,13.0,70,0.00,,---,0.00,0.00,VWS V14.00,2013-02-11 00:10:00,
2013-02-10 19:11:00,66.9,56.8,30.19,ESE,122,11.0,14.0,70,0.00,,---,0.00,0.00,VWS V14.00,2013-02-11 00:11:00,
2013-02-10 19:12:00,66.9,56.8,30.19,South,180,4.0,14.0,70,0.00,,---,0.00,0.00,VWS V14.00,2013-02-11 00:12:00,
2013-02-10 19:13:00,66.8,56.7,30.18,SE,135,6.0,14.0,70,0.00,,---,0.00,0.00,VWS V14.00,2013-02-11 00:13:00,
2013-02-10 19:14:00,66.8,56.7,30.18,ESE,118,5.0,14.0,70,0.00,,---,0.00,0.00,VWS V14.00,2013-02-11 00:14:00,
2013-02-10 19:15:00,66.8,56.7,30.19,SSE,149,12.0,14.0,70,0.00,,---,0.00,0.00,VWS V14.00,2013-02-11 00:15:00,
2013-02-10 19:16:00,66.8,56.7,30.18,SE,135,8.0,14.0,70,0.00,,---,0.00,0.00,VWS V14.00,2013-02-11 00:16:00,
2013-02-10 19:17:00,66.8,56.7,30.18,South,175,3.0,14.0,70,0.00,,---,0.00,0.00,VWS V14.00,2013-02-11 00:17:00,
2013-02-10 19:18:00,66.8,56.7,30.18,SE,129,2.0,14.0,70,0.00,,---,0.00,0.00,VWS V14.00,2013-02-11 00:18:00,
2013-02-10 19:19:00,66.8,56.7,30.18,SE,125,9.0,14.0,70,0.00,,---,0.00,0.00,VWS V14.00,2013-02-11 00:19:00,
2013-02-10 19:20:00,66.8,56.7,30.18,SSE,149,10.0,14.0,70,0.00,,---,0.00,0.00,VWS V14.00,2013-02-11 00:20:00,
2013-02-10 19:21:00,66.8,56.7,30.18,SE,137,6.0,14.0,70,0.00,,---,0.00,0.00,VWS V14.00,2013-02-11 00:21:00,
2013-02-10 19:22:00,66.8,56.7,30.18,ESE,119,6.0,14.0,70,0.00,,---,0.00,0.00,VWS V14.00,2013-02-11 00:22:00,
2013-02-10 19:23:00,66.8,56.7,30.18,SE,130,6.0,14.0,70,0.00,,---,0.00,0.00,VWS V14.00,2013-02-11 00:23:00,
2013-02-10 19:24:00,66.8,56.7,30.18,SSE,149,6.0,14.0,70,0.00,,---,0.00,0.00,VWS V14.00,2013-02-11 00:24:00,
2013-02-10 19:25:00,66.8,56.7,30.18,SE,129,13.0,14.0,70,0.00,,---,0.00,0.00,VWS V14.00,2013-02-11 00:25:00,
2013-02-10 19:26:00,66.8,56.7,30.18,SE,144,8.0,14.0,70,0.00,,---,0.00,0.00,VWS V14.00,2013-02-11 00:26:00,
2013-02-10 19:27:00,66.8,56.7,30.18,SE,141,4.0,14.0,70,0.00,,---,0.00,0.00,VWS V14.00,2013-02-11 00:27:00,
2013-02-10 19:28:00,66.8,56.7,30.18,South,170,5.0,14.0,70,0.00,,---,0.00,0.00,VWS V14.00,2013-02-11 00:28:00,
2013-02-10 19:29:00,66.8,56.7,30.18,ESE,118,5.0,14.0,70,0.00,,---,0.00,0.00,VWS V14.00,2013-02-11 00:29:00,
2013-02-10 19:30:00,66.7,56.6,30.18,SE,130,3.0,14.0,70,0.00,,---,0.00,0.00,VWS V14.00,2013-02-11 00:30:00,
2013-02-10 19:31:00,66.7,56.6,30.18,ESE,123,8.0,9.0,70,0.00,,---,0.00,0.00,VWS V14.00,2013-02-11 00:31:00,
2013-02-10 19:32:00,66.7,56.6,30.18,SE,126,9.0,10.0,70,0.00,,---,0.00,0.00,VWS V14.00,2013-02-11 00:32:00,
2013-02-10 19:33:00,66.7,56.6,30.18,ESE,116,8.0,15.0,70,0.00,,---,0.00,0.00,VWS V14.00,2013-02-11 00:33:00,
2013-02-10 19:34:00,66.8,56.7,30.18,SSE,147,10.0,15.0,70,0.00,,---,0.00,0.00,VWS V14.00,2013-02-11 00:34:00,
2013-02-10 19:35:00,66.8,56.7,30.17,SE,139,9.0,15.0,70,0.00,,---,0.00,0.00,VWS V14.00,2013-02-11 00:35:00,
2013-02-10 19:36:00,66.8,56.7,30.17,SE,135,11.0,15.0,70,0.00,,---,0.00,0.00,VWS V14.00,2013-02-11 00:36:00,
2013-02-10 19:37:00,66.8,56.7,30.17,SE,145,3.0,15.0,70,0.00,,---,0.00,0.00,VWS V14.00,2013-02-11 00:37:00,
2013-02-10 19:38:00,66.8,57.1,30.17,SE,127,9.0,15.0,71,0.00,,---,0.00,0.00,VWS V14.00,2013-02-11 00:38:00,
2013-02-10 19:39:00,66.7,56.6,30.17,South,171,6.0,15.0,70,0.00,,---,0.00,0.00,VWS V14.00,2013-02-11 00:39:00,
2013-02-10 19:40:00,66.7,56.6,30.17,SE,129,9.0,15.0,70,0.00,,---,0.00,0.00,VWS V14.00,2013-02-11 00:40:00,
2013-02-10 19:41:00,66.7,56.6,30.17,SSE,150,9.0,15.0,70,0.00,,---,0.00,0.00,VWS V14.00,2013-02-11 00:41:00,
2013-02-10 19:42:00,66.7,56.6,30.17,ESE,119,8.0,15.0,70,0.00,,---,0.00,0.00,VWS V14.00,2013-02-11 00:42:00,
2013-02-10 19:43:00,66.7,56.6,30.17,SE,134,11.0,15.0,70,0.00,,---,0.00,0.00,VWS V14.00,2013-02-11 00:43:00,
2013-02-10 19:44:00,66.8,56.7,30.17,SE,143,7.0,15.0,70,0.00,,---,0.00,0.00,VWS V14.00,2013-02-11 00:44:00,
2013-02-10 19:45:00,66.8,56.7,30.17,SE,124,6.0,15.0,70,0.00,,---,0.00,0.00,VWS V14.00,2013-02-11 00:45:00,
2013-02-10 19:46:00,66.7,57.0,30.17,SSE,157,5.0,15.0,71,0.00,,---,0.00,0.00,VWS V14.00,2013-02-11 00:46:00,
2013-02-10 19:47:00,66.7,56.6,30.17,ESE,114,6.0,15.0,70,0.00,,---,0.00,0.00,VWS V14.00,2013-02-11 00:47:00,
2013-02-10 19:48:00,66.7,56.6,30.17,SSE,167,8.0,15.0,70,0.00,,---,0.00,0.00,VWS V14.00,2013-02-11 00:48:00,
2013-02-10 19:49:00,66.7,57.0,30.17,SE,137,5.0,15.0,71,0.00,,---,0.00,0.00,VWS V14.00,2013-02-11 00:49:00,
2013-02-10 19:50:00,66.7,57.0,30.17,SE,129,7.0,15.0,71,0.00,,---,0.00,0.00,VWS V14.00,2013-02-11 00:50:00,
2013-02-10 19:51:00,66.7,57.0,30.17,SSE,164,5.0,15.0,71,0.00,,---,0.00,0.00,VWS V14.00,2013-02-11 00:51:00,
2013-02-10 19:52:00,66.7,57.0,30.18,SE,132,1.0,15.0,71,0.00,,---,0.00,0.00,VWS V14.00,2013-02-11 00:52:00,
2013-02-10 19:53:00,66.7,57.0,30.18,SSE,149,7.0,15.0,71,0.00,,---,0.00,0.00,VWS V14.00,2013-02-11 00:53:00,
2013-02-10 19:54:00,66.6,56.9,30.18,SSE,162,3.0,15.0,71,0.00,,---,0.00,0.00,VWS V14.00,2013-02-11 00:54:00,
2013-02-10 19:55:00,66.6,56.9,30.18,South,180,9.0,15.0,71,0.00,,---,0.00,0.00,VWS V14.00,2013-02-11 00:55:00,
2013-02-10 19:56:00,66.6,56.9,30.18,SE,145,10.0,15.0,71,0.00,,---,0.00,0.00,VWS V14.00,2013-02-11 00:56:00,
2013-02-10 19:57:00,66.7,57.0,30.18,SSE,158,5.0,15.0,71,0.00,,---,0.00,0.00,VWS V14.00,2013-02-11 00:57:00,
2013-02-10 19:58:00,66.7,57.0,30.18,SE,129,7.0,15.0,71,0.00,,---,0.00,0.00,VWS V14.00,2013-02-11 00:58:00,
2013-02-10 19:59:00,66.7,57.0,30.18,SSE,160,11.0,15.0,71,0.00,,---,0.00,0.00,VWS V14.00,2013-02-11 00:59:00,
2013-02-10 20:00:00,66.7,57.0,30.18,SE,143,7.0,15.0,71,0.00,,---,0.00,0.00,VWS V14.00,2013-02-11 01:00:00,
2013-02-10 20:01:00,66.7,57.0,30.18,SE,130,5.0,9.0,71,0.00,,---,0.00,0.00,VWS V14.00,2013-02-11 01:01:00,
2013-02-10 20:02:00,66.7,57.0,30.18,SE,128,10.0,12.0,71,0.00,,---,0.00,0.00,VWS V14.00,2013-02-11 01:02:00,
2013-02-10 20:03:00,66.7,57.0,30.18,SE,135,8.0,12.0,71,0.00,,---,0.00,0.00,VWS V14.00,2013-02-11 01:03:00,
2013-02-10 20:04:00,66.7,57.0,30.18,SSE,149,4.0,12.0,71,0.00,,---,0.00,0.00,VWS V14.00,2013-02-11 01:04:00,
2013-02-10 20:05:00,66.7,57.0,30.18,SSE,168,10.0,13.0,71,0.00,,---,0.00,0.00,VWS V14.00,2013-02-11 01:05:00,
2013-02-10 20:06:00,66.7,57.0,30.18,SE,127,6.0,13.0,71,0.00,,---,0.00,0.00,VWS V14.00,2013-02-11 01:06:00,
2013-02-10 20:07:00,66.7,57.0,30.18,SE,143,2.0,13.0,71,0.00,,---,0.00,0.00,VWS V14.00,2013-02-11 01:07:00,
2013-02-10 20:08:00,66.7,57.0,30.18,SE,146,8.0,13.0,71,0.00,,---,0.00,0.00,VWS V14.00,2013-02-11 01:08:00,
2013-02-10 20:09:00,66.7,57.0,30.18,SSE,158,6.0,13.0,71,0.00,,---,0.00,0.00,VWS V14.00,2013-02-11 01:09:00,
2013-02-10 20:10:00,66.7,57.0,30.18,SSE,151,5.0,13.0,71,0.00,,---,0.00,0.00,VWS V14.00,2013-02-11 01:10:00,
2013-02-10 20:11:00,66.7,57.0,30.18,SSE,158,7.0,13.0,71,0.00,,---,0.00,0.00,VWS V14.00,2013-02-11 01:11:00,
2013-02-10 20:12:00,66.7,57.0,30.18,SSE,163,6.0,13.0,71,0.00,,---,0.00,0.00,VWS V14.00,2013-02-11 01:12:00,
2013-02-10 20:13:00,66.6,56.9,30.18,SSE,151,4.0,13.0,71,0.00,,---,0.00,0.00,VWS V14.00,2013-02-11 01:13:00,
2013-02-10 20:14:00,66.6,57.3,30.18,SSE,151,5.0,13.0,72,0.00,,---,0.00,0.00,VWS V14.00,2013-02-11 01:14:00,
2013-02-10 20:15:00,66.6,56.9,30.18,SSE,156,0.0,13.0,71,0.00,,---,0.00,0.00,VWS V14.00,2013-02-11 01:15:00,
2013-02-10 20:16:00,66.6,57.3,30.18,ESE,122,5.0,13.0,72,0.00,,---,0.00,0.00,VWS V14.00,2013-02-11 01:16:00,
2013-02-10 20:17:00,66.6,57.3,30.18,SE,141,5.0,13.0,72,0.00,,---,0.00,0.00,VWS V14.00,2013-02-11 01:17:00,
2013-02-10 20:18:00,66.5,57.2,30.18,SE,133,7.0,13.0,72,0.00,,---,0.00,0.00,VWS V14.00,2013-02-11 01:18:00,
2013-02-10 20:19:00,66.5,57.2,30.18,SE,124,4.0,13.0,72,0.00,,---,0.00,0.00,VWS V14.00,2013-02-11 01:19:00,
2013-02-10 20:20:00,66.5,57.2,30.18,SE,127,8.0,13.0,72,0.00,,---,0.00,0.00,VWS V14.00,2013-02-11 01:20:00,
2013-02-10 20:21:00,66.5,57.2,30.18,SSE,152,5.0,13.0,72,0.00,,---,0.00,0.00,VWS V14.00,2013-02-11 01:21:00,
2013-02-10 20:22:00,66.5,57.2,30.18,SE,130,6.0,13.0,72,0.00,,---,0.00,0.00,VWS V14.00,2013-02-11 01:22:00,
2013-02-10 20:23:00,66.5,57.2,30.18,SSE,158,6.0,13.0,72,0.00,,---,0.00,0.00,VWS V14.00,2013-02-11 01:23:00,
2013-02-10 20:24:00,66.5,57.2,30.18,SE,124,5.0,13.0,72,0.00,,---,0.00,0.00,VWS V14.00,2013-02-11 01:24:00,
2013-02-10 20:25:00,66.5,57.2,30.18,SE,144,5.0,13.0,72,0.00,,---,0.00,0.00,VWS V14.00,2013-02-11 01:25:00,
2013-02-10 20:26:00,66.5,57.2,30.18,SE,144,1.0,13.0,72,0.00,,---,0.00,0.00,VWS V14.00,2013-02-11 01:26:00,
2013-02-10 20:27:00,66.5,57.2,30.18,SE,128,8.0,13.0,72,0.00,,---,0.00,0.00,VWS V14.00,2013-02-11 01:27:00,
2013-02-10 20:28:00,66.5,57.2,30.18,SE,141,7.0,13.0,72,0.00,,---,0.00,0.00,VWS V14.00,2013-02-11 01:28:00,
2013-02-10 20:29:00,66.5,57.2,30.18,SSE,150,7.0,13.0,72,0.00,,---,0.00,0.00,VWS V14.00,2013-02-11 01:29:00,
2013-02-10 20:30:00,66.5,57.2,30.18,SSE,156,8.0,13.0,72,0.00,,---,0.00,0.00,VWS V14.00,2013-02-11 01:30:00,
2013-02-10 20:31:00,66.5,57.2,30.18,SE,125,9.0,9.0,72,0.00,,---,0.00,0.00,VWS V14.00,2013-02-11 01:31:00,
2013-02-10 20:32:00,66.5,57.2,30.18,SE,133,7.0,10.0,72,0.00,,---,0.00,0.00,VWS V14.00,2013-02-11 01:32:00,
2013-02-10 20:33:00,66.5,57.2,30.18,SE,143,7.0,12.0,72,0.00,,---,0.00,0.00,VWS V14.00,2013-02-11 01:33:00,
2013-02-10 20:34:00,66.5,57.2,30.18,SSE,149,5.0,12.0,72,0.00,,---,0.00,0.00,VWS V14.00,2013-02-11 01:34:00,
2013-02-10 20:35:00,66.5,57.2,30.18,SE,135,8.0,12.0,72,0.00,,---,0.00,0.00,VWS V14.00,2013-02-11 01:35:00,
2013-02-10 20:36:00,66.5,57.2,30.18,SSE,162,7.0,12.0,72,0.00,,---,0.00,0.00,VWS V14.00,2013-02-11 01:36:00,
2013-02-10 20:37:00,66.5,57.2,30.18,SSE,150,6.0,12.0,72,0.00,,---,0.00,0.00,VWS V14.00,2013-02-11 01:37:00,
2013-02-10 20:38:00,66.5,57.2,30.18,SSE,150,4.0,12.0,72,0.00,,---,0.00,0.00,VWS V14.00,2013-02-11 01:38:00,
2013-02-10 20:39:00,66.5,57.2,30.18,SSE,165,3.0,12.0,72,0.00,,---,0.00,0.00,VWS V14.00,2013-02-11 01:39:00,
2013-02-10 20:40:00,66.5,57.2,30.18,SE,134,4.0,12.0,72,0.00,,---,0.00,0.00,VWS V14.00,2013-02-11 01:40:00,
2013-02-10 20:41:00,66.5,57.2,30.18,SE,129,5.0,12.0,72,0.00,,---,0.00,0.00,VWS V14.00,2013-02-11 01:41:00,
2013-02-10 20:42:00,66.5,57.2,30.18,SSE,166,8.0,12.0,72,0.00,,---,0.00,0.00,VWS V14.00,2013-02-11 01:42:00,
2013-02-10 20:43:00,66.5,57.2,30.18,SE,138,6.0,12.0,72,0.00,,---,0.00,0.00,VWS V14.00,2013-02-11 01:43:00,
2013-02-10 20:44:00,66.5,57.2,30.18,SE,126,7.0,12.0,72,0.00,,---,0.00,0.00,VWS V14.00,2013-02-11 01:44:00,
2013-02-10 20:45:00,66.6,57.3,30.18,South,175,13.0,13.0,72,0.00,,---,0.00,0.00,VWS V14.00,2013-02-11 01:45:00,
2013-02-10 20:46:00,66.6,57.3,30.18,SSE,149,5.0,13.0,72,0.00,,---,0.00,0.00,VWS V14.00,2013-02-11 01:46:00,
2013-02-10 20:47:00,66.6,57.3,30.18,ESE,113,6.0,13.0,72,0.00,,---,0.00,0.00,VWS V14.00,2013-02-11 01:47:00,
2013-02-10 20:48:00,66.6,57.3,30.18,SE,145,11.0,13.0,72,0.00,,---,0.00,0.00,VWS V14.00,2013-02-11 01:48:00,
2013-02-10 20:49:00,66.6,57.3,30.18,SSE,159,3.0,13.0,72,0.00,,---,0.00,0.00,VWS V14.00,2013-02-11 01:49:00,
2013-02-10 20:50:00,66.6,57.3,30.18,SE,145,6.0,13.0,72,0.00,,---,0.00,0.00,VWS V14.00,2013-02-11 01:50:00,
2013-02-10 20:51:00,66.6,57.3,30.18,ESE,112,7.0,13.0,72,0.00,,---,0.00,0.00,VWS V14.00,2013-02-11 01:51:00,
2013-02-10 20:52:00,66.6,57.3,30.18,SSE,163,7.0,13.0,72,0.00,,---,0.00,0.00,VWS V14.00,2013-02-11 01:52:00,
2013-02-10 20:53:00,66.6,57.3,30.18,SSE,149,5.0,13.0,72,0.00,,---,0.00,0.00,VWS V14.00,2013-02-11 01:53:00,
2013-02-10 20:54:00,66.6,57.3,30.18,SSE,151,3.0,14.0,72,0.00,,---,0.00,0.00,VWS V14.00,2013-02-11 01:54:00,
2013-02-10 20:55:00,66.6,57.3,30.17,SSE,162,6.0,14.0,72,0.00,,---,0.00,0.00,VWS V14.00,2013-02-11 01:55:00,
2013-02-10 20:56:00,66.6,57.3,30.17,SSE,160,5.0,14.0,72,0.00,,---,0.00,0.00,VWS V14.00,2013-02-11 01:56:00,
2013-02-10 20:57:00,66.5,57.2,30.17,SSE,149,8.0,14.0,72,0.00,,---,0.00,0.00,VWS V14.00,2013-02-11 01:57:00,
2013-02-10 20:58:00,66.5,57.2,30.17,SSE,148,5.0,14.0,72,0.00,,---,0.00,0.00,VWS V14.00,2013-02-11 01:58:00,
2013-02-10 20:59:00,66.5,57.2,30.17,SE,133,6.0,14.0,72,0.00,,---,0.00,0.00,VWS V14.00,2013-02-11 01:59:00,
2013-02-10 21:00:00,66.5,57.6,30.17,SSE,164,11.0,14.0,73,0.00,,---,0.00,0.00,VWS V14.00,2013-02-11 02:00:00,
2013-02-10 21:01:00,66.5,57.2,30.17,SSE,152,10.0,12.0,72,0.00,,---,0.00,0.00,VWS V14.00,2013-02-11 02:01:00,
2013-02-10 21:02:00,66.5,57.2,30.17,SSE,151,6.0,12.0,72,0.00,,---,0.00,0.00,VWS V14.00,2013-02-11 02:02:00,
2013-02-10 21:03:00,66.5,57.2,30.17,SE,129,7.0,12.0,72,0.00,,---,0.00,0.00,VWS V14.00,2013-02-11 02:03:00,
2013-02-10 21:04:00,66.5,57.2,30.17,SE,139,8.0,12.0,72,0.00,,---,0.00,0.00,VWS V14.00,2013-02-11 02:04:00,
2013-02-10 21:05:00,66.6,57.3,30.17,SE,143,9.0,12.0,72,0.00,,---,0.00,0.00,VWS V14.00,2013-02-11 02:05:00,
2013-02-10 21:06:00,66.6,57.3,30.17,SSE,147,7.0,12.0,72,0.00,,---,0.00,0.00,VWS V14.00,2013-02-11 02:06:00,
2013-02-10 21:07:00,66.5,57.2,30.17,SSE,149,0.0,12.0,72,0.00,,---,0.00,0.00,VWS V14.00,2013-02-11 02:07:00,
2013-02-10 21:08:00,66.5,57.6,30.17,SSE,156,8.0,12.0,73,0.00,,---,0.00,0.00,VWS V14.00,2013-02-11 02:08:00,
2013-02-10 21:09:00,66.6,57.3,30.18,SE,134,6.0,12.0,72,0.00,,---,0.00,0.00,VWS V14.00,2013-02-11 02:09:00,
2013-02-10 21:10:00,66.6,57.3,30.18,SSE,162,7.0,12.0,72,0.00,,---,0.00,0.00,VWS V14.00,2013-02-11 02:10:00,
2013-02-10 21:11:00,66.5,57.2,30.18,SE,133,7.0,12.0,72,0.00,,---,0.00,0.00,VWS V14.00,2013-02-11 02:11:00,
2013-02-10 21:12:00,66.5,57.2,30.18,SSE,154,5.0,12.0,72,0.00,,---,0.00,0.00,VWS V14.00,2013-02-11 02:12:00,
2013-02-10 21:13:00,66.5,57.6,30.18,SSE,159,4.0,12.0,73,0.00,,---,0.00,0.00,VWS V14.00,2013-02-11 02:13:00,
2013-02-10 21:14:00,66.5,57.2,30.17,South,180,11.0,12.0,72,0.00,,---,0.00,0.00,VWS V14.00,2013-02-11 02:14:00,
2013-02-10 21:15:00,66.5,57.2,30.18,SSE,147,5.0,12.0,72,0.00,,---,0.00,0.00,VWS V14.00,2013-02-11 02:15:00,
2013-02-10 21:16:00,66.5,57.6,30.17,SE,137,8.0,12.0,73,0.00,,---,0.00,0.00,VWS V14.00,2013-02-11 02:16:00,
2013-02-10 21:17:00,66.5,57.6,30.17,SE,138,7.0,12.0,73,0.00,,---,0.00,0.00,VWS V14.00,2013-02-11 02:17:00,
2013-02-10 21:18:00,66.5,57.6,30.17,SE,135,10.0,12.0,73,0.00,,---,0.00,0.00,VWS V14.00,2013-02-11 02:18:00,
2013-02-10 21:19:00,66.5,57.2,30.17,SE,143,6.0,13.0,72,0.00,,---,0.00,0.00,VWS V14.00,2013-02-11 02:19:00,
2013-02-10 21:20:00,66.5,57.6,30.17,SSE,151,7.0,13.0,73,0.00,,---,0.00,0.00,VWS V14.00,2013-02-11 02:20:00,
2013-02-10 21:21:00,66.5,57.2,30.17,SSE,151,6.0,13.0,72,0.00,,---,0.00,0.00,VWS V14.00,2013-02-11 02:21:00,
2013-02-10 21:22:00,66.5,57.6,30.17,SSE,159,7.0,13.0,73,0.00,,---,0.00,0.00,VWS V14.00,2013-02-11 02:22:00,
2013-02-10 21:23:00,66.5,57.6,30.17,SE,135,5.0,13.0,73,0.00,,---,0.00,0.00,VWS V14.00,2013-02-11 02:23:00,
2013-02-10 21:24:00,66.4,57.5,30.17,SE,146,4.0,13.0,73,0.00,,---,0.00,0.00,VWS V14.00,2013-02-11 02:24:00,
2013-02-10 21:25:00,66.4,57.5,30.17,SSE,161,7.0,13.0,73,0.00,,---,0.00,0.00,VWS V14.00,2013-02-11 02:25:00,
2013-02-10 21:26:00,66.3,57.4,30.17,SSE,163,5.0,13.0,73,0.00,,---,0.00,0.00,VWS V14.00,2013-02-11 02:26:00,
2013-02-10 21:27:00,66.4,57.5,30.17,SSE,159,5.0,13.0,73,0.00,,---,0.00,0.00,VWS V14.00,2013-02-11 02:27:00,
2013-02-10 21:28:00,66.3,57.4,30.17,SE,131,3.0,13.0,73,0.00,,---,0.00,0.00,VWS V14.00,2013-02-11 02:28:00,
2013-02-10 21:29:00,66.3,57.4,30.17,SE,145,8.0,13.0,73,0.00,,---,0.00,0.00,VWS V14.00,2013-02-11 02:29:00,
2013-02-10 21:30:00,66.3,57.4,30.17,SSE,148,5.0,13.0,73,0.00,,---,0.00,0.00,VWS V14.00,2013-02-11 02:30:00,
2013-02-10 21:31:00,66.3,57.4,30.17,SSE,147,6.0,6.0,73,0.00,,---,0.00,0.00,VWS V14.00,2013-02-11 02:31:00,
2013-02-10 21:32:00,66.3,57.4,30.17,SE,144,1.0,6.0,73,0.00,,---,0.00,0.00,VWS V14.00,2013-02-11 02:32:00,
2013-02-10 21:33:00,66.3,57.4,30.17,SSE,153,1.0,6.0,73,0.00,,---,0.00,0.00,VWS V14.00,2013-02-11 02:33:00,
2013-02-10 21:34:00,66.3,57.4,30.17,South,175,4.0,8.0,73,0.00,,---,0.00,0.00,VWS V14.00,2013-02-11 02:34:00,
2013-02-10 21:35:00,66.2,57.3,30.17,SSE,154,4.0,8.0,73,0.00,,---,0.00,0.00,VWS V14.00,2013-02-11 02:35:00,
2013-02-10 21:36:00,66.2,57.3,30.17,SE,139,11.0,11.0,73,0.00,,---,0.00,0.00,VWS V14.00,2013-02-11 02:36:00,
2013-02-10 21:37:00,66.3,57.4,30.17,SSE,164,5.0,15.0,73,0.00,,---,0.00,0.00,VWS V14.00,2013-02-11 02:37:00,
2013-02-10 21:38:00,66.3,57.4,30.17,SSE,165,2.0,15.0,73,0.00,,---,0.00,0.00,VWS V14.00,2013-02-11 02:38:00,
2013-02-10 21:39:00,66.3,57.4,30.17,SE,131,6.0,15.0,73,0.00,,---,0.00,0.00,VWS V14.00,2013-02-11 02:39:00,
2013-02-10 21:40:00,66.3,57.4,30.17,SSE,161,9.0,15.0,73,0.00,,---,0.00,0.00,VWS V14.00,2013-02-11 02:40:00,
2013-02-10 21:41:00,66.3,57.4,30.17,SSE,154,7.0,15.0,73,0.00,,---,0.00,0.00,VWS V14.00,2013-02-11 02:41:00,
2013-02-10 21:42:00,66.3,57.4,30.17,SSE,161,5.0,15.0,73,0.00,,---,0.00,0.00,VWS V14.00,2013-02-11 02:42:00,
2013-02-10 21:43:00,66.4,57.5,30.17,SSE,160,1.0,15.0,73,0.00,,---,0.00,0.00,VWS V14.00,2013-02-11 02:43:00,
2013-02-10 21:44:00,66.4,57.5,30.17,SE,133,6.0,15.0,73,0.00,,---,0.00,0.00,VWS V14.00,2013-02-11 02:44:00,
2013-02-10 21:45:00,66.3,57.4,30.17,SE,133,8.0,15.0,73,0.00,,---,0.00,0.00,VWS V14.00,2013-02-11 02:45:00,
2013-02-10 21:46:00,66.3,57.4,30.17,SSE,165,5.0,15.0,73,0.00,,---,0.00,0.00,VWS V14.00,2013-02-11 02:46:00,
2013-02-10 21:47:00,66.3,57.4,30.17,SSE,160,5.0,15.0,73,0.00,,---,0.00,0.00,VWS V14.00,2013-02-11 02:47:00,
2013-02-10 21:48:00,66.3,57.4,30.18,South,170,8.0,15.0,73,0.00,,---,0.00,0.00,VWS V14.00,2013-02-11 02:48:00,
2013-02-10 21:49:00,66.3,57.4,30.18,SSW,192,4.0,15.0,73,0.00,,---,0.00,0.00,VWS V14.00,2013-02-11 02:49:00,
2013-02-10 21:50:00,66.2,57.3,30.18,SSE,159,2.0,15.0,73,0.00,,---,0.00,0.00,VWS V14.00,2013-02-11 02:50:00,
2013-02-10 21:51:00,66.2,57.3,30.18,SE,135,5.0,15.0,73,0.00,,---,0.00,0.00,VWS V14.00,2013-02-11 02:51:00,
2013-02-10 21:52:00,66.2,57.3,30.18,SE,136,1.0,15.0,73,0.00,,---,0.00,0.00,VWS V14.00,2013-02-11 02:52:00,
2013-02-10 21:53:00,66.2,57.3,30.18,South,180,2.0,15.0,73,0.00,,---,0.00,0.00,VWS V14.00,2013-02-11 02:53:00,
2013-02-10 21:54:00,66.2,57.3,30.18,SSE,156,3.0,15.0,73,0.00,,---,0.00,0.00,VWS V14.00,2013-02-11 02:54:00,
2013-02-10 21:55:00,66.2,57.3,30.18,South,170,9.0,15.0,73,0.00,,---,0.00,0.00,VWS V14.00,2013-02-11 02:55:00,
2013-02-10 21:56:00,66.2,57.3,30.18,SSE,148,1.0,15.0,73,0.00,,---,0.00,0.00,VWS V14.00,2013-02-11 02:56:00,
2013-02-10 21:57:00,66.2,57.3,30.18,South,171,6.0,15.0,73,0.00,,---,0.00,0.00,VWS V14.00,2013-02-11 02:57:00,
2013-02-10 21:58:00,66.2,57.3,30.18,SE,126,5.0,15.0,73,0.00,,---,0.00,0.00,VWS V14.00,2013-02-11 02:58:00,
2013-02-10 21:59:00,66.2,57.3,30.18,South,171,4.0,15.0,73,0.00,,---,0.00,0.00,VWS V14.00,2013-02-11 02:59:00,
2013-02-10 22:00:00,66.2,57.3,30.18,South,171,2.0,15.0,73,0.00,,---,0.00,0.00,VWS V14.00,2013-02-11 03:00:00,
2013-02-10 22:01:00,66.2,57.3,30.18,South,175,6.0,7.0,73,0.00,,---,0.00,0.00,VWS V14.00,2013-02-11 03:01:00,
2013-02-10 22:02:00,66.2,57.3,30.18,SSE,158,4.0,7.0,73,0.00,,---,0.00,0.00,VWS V14.00,2013-02-11 03:02:00,
2013-02-10 22:03:00,66.2,57.3,30.18,South,170,3.0,7.0,73,0.00,,---,0.00,0.00,VWS V14.00,2013-02-11 03:03:00,
2013-02-10 22:04:00,66.2,57.3,30.18,South,170,5.0,7.0,73,0.00,,---,0.00,0.00,VWS V14.00,2013-02-11 03:04:00,
2013-02-10 22:05:00,66.2,57.3,30.18,South,169,6.0,7.0,73,0.00,,---,0.00,0.00,VWS V14.00,2013-02-11 03:05:00,
2013-02-10 22:06:00,66.2,57.3,30.18,SSE,166,4.0,7.0,73,0.00,,---,0.00,0.00,VWS V14.00,2013-02-11 03:06:00,
2013-02-10 22:07:00,66.2,57.3,30.18,SSE,166,1.0,7.0,73,0.00,,---,0.00,0.00,VWS V14.00,2013-02-11 03:07:00,
2013-02-10 22:08:00,66.2,57.3,30.18,SSE,147,2.0,7.0,73,0.00,,---,0.00,0.00,VWS V14.00,2013-02-11 03:08:00,
2013-02-10 22:09:00,66.2,57.3,30.18,SSE,147,2.0,7.0,73,0.00,,---,0.00,0.00,VWS V14.00,2013-02-11 03:09:00,
2013-02-10 22:10:00,66.2,57.3,30.18,SSE,168,6.0,7.0,73,0.00,,---,0.00,0.00,VWS V14.00,2013-02-11 03:10:00,
2013-02-10 22:11:00,66.2,57.3,30.18,SSE,160,3.0,7.0,73,0.00,,---,0.00,0.00,VWS V14.00,2013-02-11 03:11:00,
2013-02-10 22:12:00,66.2,57.7,30.18,SSE,160,3.0,7.0,74,0.00,,---,0.00,0.00,VWS V14.00,2013-02-11 03:12:00,
2013-02-10 22:13:00,66.2,57.3,30.18,SE,144,5.0,9.0,73,0.00,,---,0.00,0.00,VWS V14.00,2013-02-11 03:13:00,
2013-02-10 22:14:00,66.3,57.4,30.18,SSE,164,4.0,9.0,73,0.00,,---,0.00,0.00,VWS V14.00,2013-02-11 03:14:00,
2013-02-10 22:15:00,66.3,57.4,30.18,South,175,4.0,9.0,73,0.00,,---,0.00,0.00,VWS V14.00,2013-02-11 03:15:00,
2013-02-10 22:16:00,66.3,57.4,30.18,SE,133,6.0,9.0,73,0.00,,---,0.00,0.00,VWS V14.00,2013-02-11 03:16:00,
2013-02-10 22:17:00,66.3,57.4,30.18,South,175,5.0,9.0,73,0.00,,---,0.00,0.00,VWS V14.00,2013-02-11 03:17:00,
2013-02-10 22:18:00,66.3,57.4,30.18,South,170,6.0,9.0,73,0.00,,---,0.00,0.00,VWS V14.00,2013-02-11 03:18:00,
2013-02-10 22:19:00,66.3,57.4,30.18,South,170,0.0,9.0,73,0.00,,---,0.00,0.00,VWS V14.00,2013-02-11 03:19:00,
2013-02-10 22:20:00,66.3,57.4,30.18,South,169,9.0,9.0,73,0.00,,---,0.00,0.00,VWS V14.00,2013-02-11 03:20:00,
2013-02-10 22:21:00,66.3,57.4,30.18,SE,144,3.0,9.0,73,0.00,,---,0.00,0.00,VWS V14.00,2013-02-11 03:21:00,
2013-02-10 22:22:00,66.3,57.4,30.18,SE,137,5.0,10.0,73,0.00,,---,0.00,0.00,VWS V14.00,2013-02-11 03:22:00,
2013-02-10 22:23:00,66.3,57.4,30.17,South,175,4.0,10.0,73,0.00,,---,0.00,0.00,VWS V14.00,2013-02-11 03:23:00,
2013-02-10 22:24:00,66.3,57.4,30.17,South,175,5.0,10.0,73,0.00,,---,0.00,0.00,VWS V14.00,2013-02-11 03:24:00,
2013-02-10 22:25:00,66.3,57.4,30.18,SE,145,7.0,10.0,73,0.00,,---,0.00,0.00,VWS V14.00,2013-02-11 03:25:00,
2013-02-10 22:26:00,66.3,57.4,30.17,South,171,4.0,10.0,73,0.00,,---,0.00,0.00,VWS V14.00,2013-02-11 03:26:00,
2013-02-10 22:27:00,66.4,57.5,30.18,South,171,4.0,10.0,73,0.00,,---,0.00,0.00,VWS V14.00,2013-02-11 03:27:00,
2013-02-10 22:28:00,66.4,57.5,30.17,South,185,7.0,10.0,73,0.00,,---,0.00,0.00,VWS V14.00,2013-02-11 03:28:00,
2013-02-10 22:29:00,66.4,57.5,30.17,South,170,2.0,10.0,73,0.00,,---,0.00,0.00,VWS V14.00,2013-02-11 03:29:00,
2013-02-10 22:30:00,66.4,57.5,30.18,South,170,1.0,10.0,73,0.00,,---,0.00,0.00,VWS V14.00,2013-02-11 03:30:00,
2013-02-10 22:31:00,66.4,57.5,30.18,SSE,159,2.0,7.0,73,0.00,,---,0.00,0.00,VWS V14.00,2013-02-11 03:31:00,
2013-02-10 22:32:00,66.4,57.5,30.18,South,175,5.0,7.0,73,0.00,,---,0.00,0.00,VWS V14.00,2013-02-11 03:32:00,
2013-02-10 22:33:00,66.4,57.5,30.18,SSE,163,4.0,8.0,73,0.00,,---,0.00,0.00,VWS V14.00,2013-02-11 03:33:00,
2013-02-10 22:34:00,66.3,57.4,30.18,ESE,103,4.0,8.0,73,0.00,,---,0.00,0.00,VWS V14.00,2013-02-11 03:34:00,
2013-02-10 22:35:00,66.3,57.4,30.18,SW,216,5.0,8.0,73,0.00,,---,0.00,0.00,VWS V14.00,2013-02-11 03:35:00,
2013-02-10 22:36:00,66.3,57.4,30.18,SW,218,5.0,8.0,73,0.00,,---,0.00,0.00,VWS V14.00,2013-02-11 03:36:00,
2013-02-10 22:37:00,66.3,57.4,30.18,SW,214,4.0,8.0,73,0.00,,---,0.00,0.00,VWS V14.00,2013-02-11 03:37:00,
2013-02-10 22:38:00,66.3,57.4,30.18,South,185,1.0,8.0,73,0.00,,---,0.00,0.00,VWS V14.00,2013-02-11 03:38:00,
2013-02-10 22:39:00,66.2,57.3,30.17,SE,135,8.0,8.0,73,0.00,,---,0.00,0.00,VWS V14.00,2013-02-11 03:39:00,
2013-02-10 22:40:00,66.2,57.3,30.17,SSE,150,5.0,12.0,73,0.00,,---,0.00,0.00,VWS V14.00,2013-02-11 03:40:00,
2013-02-10 22:41:00,66.3,57.4,30.17,SE,141,9.0,12.0,73,0.00,,---,0.00,0.00,VWS V14.00,2013-02-11 03:41:00,
2013-02-10 22:42:00,66.3,57.4,30.17,SE,133,5.0,12.0,73,0.00,,---,0.00,0.00,VWS V14.00,2013-02-11 03:42:00,
2013-02-10 22:43:00,66.3,57.4,30.17,SSE,161,5.0,12.0,73,0.00,,---,0.00,0.00,VWS V14.00,2013-02-11 03:43:00,
2013-02-10 22:44:00,66.3,57.4,30.17,SSE,168,4.0,12.0,73,0.00,,---,0.00,0.00,VWS V14.00,2013-02-11 03:44:00,
2013-02-10 22:45:00,66.3,57.4,30.17,SSE,149,8.0,12.0,73,0.00,,---,0.00,0.00,VWS V14.00,2013-02-11 03:45:00,
2013-02-10 22:46:00,66.3,57.4,30.17,SSE,153,4.0,12.0,73,0.00,,---,0.00,0.00,VWS V14.00,2013-02-11 03:46:00,
2013-02-10 22:47:00,66.3,57.4,30.17,SSE,165,1.0,12.0,73,0.00,,---,0.00,0.00,VWS V14.00,2013-02-11 03:47:00,
2013-02-10 22:48:00,66.3,57.4,30.17,SSE,149,2.0,12.0,73,0.00,,---,0.00,0.00,VWS V14.00,2013-02-11 03:48:00,
2013-02-10 22:49:00,66.3,57.4,30.17,SSE,160,4.0,12.0,73,0.00,,---,0.00,0.00,VWS V14.00,2013-02-11 03:49:00,
2013-02-10 22:50:00,66.3,57.4,30.17,SSE,164,9.0,12.0,73,0.00,,---,0.00,0.00,VWS V14.00,2013-02-11 03:50:00,
2013-02-10 22:51:00,66.3,57.4,30.17,SSE,158,6.0,12.0,73,0.00,,---,0.00,0.00,VWS V14.00,2013-02-11 03:51:00,
2013-02-10 22:52:00,66.3,57.4,30.17,SSE,166,9.0,12.0,73,0.00,,---,0.00,0.00,VWS V14.00,2013-02-11 03:52:00,
2013-02-10 22:53:00,66.3,57.4,30.17,SSE,151,5.0,12.0,73,0.00,,---,0.00,0.00,VWS V14.00,2013-02-11 03:53:00,
2013-02-10 22:54:00,66.2,57.3,30.17,SSE,168,5.0,12.0,73,0.00,,---,0.00,0.00,VWS V14.00,2013-02-11 03:54:00,
2013-02-10 22:55:00,66.2,57.3,30.17,South,175,6.0,12.0,73,0.00,,---,0.00,0.00,VWS V14.00,2013-02-11 03:55:00,
2013-02-10 22:56:00,66.3,57.4,30.17,SSE,162,4.0,12.0,73,0.00,,---,0.00,0.00,VWS V14.00,2013-02-11 03:56:00,
2013-02-10 22:57:00,66.3,57.4,30.17,SSE,167,4.0,12.0,73,0.00,,---,0.00,0.00,VWS V14.00,2013-02-11 03:57:00,
2013-02-10 22:58:00,66.2,57.3,30.17,South,180,11.0,14.0,73,0.00,,---,0.00,0.00,VWS V14.00,2013-02-11 03:58:00,
2013-02-10 22:59:00,66.2,57.3,30.17,South,189,4.0,14.0,73,0.00,,---,0.00,0.00,VWS V14.00,2013-02-11 03:59:00,
2013-02-10 23:00:00,66.2,57.3,30.17,SSE,167,3.0,14.0,73,0.00,,---,0.00,0.00,VWS V14.00,2013-02-11 04:00:00,
2013-02-10 23:01:00,66.2,57.3,30.17,SSW,211,4.0,7.0,73,0.00,,---,0.00,0.00,VWS V14.00,2013-02-11 04:01:00,
2013-02-10 23:02:00,66.2,57.3,30.18,SSE,147,1.0,10.0,73,0.00,,---,0.00,0.00,VWS V14.00,2013-02-11 04:02:00,
2013-02-10 23:03:00,66.2,57.3,30.18,SE,144,9.0,10.0,73,0.00,,---,0.00,0.00,VWS V14.00,2013-02-11 04:03:00,
2013-02-10 23:04:00,66.2,57.3,30.18,South,175,3.0,10.0,73,0.00,,---,0.00,0.00,VWS V14.00,2013-02-11 04:04:00,
2013-02-10 23:05:00,66.2,57.3,30.17,South,185,6.0,11.0,73,0.00,,---,0.00,0.00,VWS V14.00,2013-02-11 04:05:00,
2013-02-10 23:06:00,66.2,57.3,30.18,SSE,161,4.0,11.0,73,0.00,,---,0.00,0.00,VWS V14.00,2013-02-11 04:06:00,
2013-02-10 23:07:00,66.2,57.3,30.17,SSE,151,10.0,11.0,73,0.00,,---,0.00,0.00,VWS V14.00,2013-02-11 04:07:00,
2013-02-10 23:08:00,66.3,57.4,30.17,SE,146,5.0,13.0,73,0.00,,---,0.00,0.00,VWS V14.00,2013-02-11 04:08:00,
2013-02-10 23:09:00,66.3,57.4,30.17,SSE,154,5.0,13.0,73,0.00,,---,0.00,0.00,VWS V14.00,2013-02-11 04:09:00,
2013-02-10 23:10:00,66.3,57.4,30.17,South,185,6.0,13.0,73,0.00,,---,0.00,0.00,VWS V14.00,2013-02-11 04:10:00,
2013-02-10 23:11:00,66.3,57.4,30.18,SSW,195,2.0,13.0,73,0.00,,---,0.00,0.00,VWS V14.00,2013-02-11 04:11:00,
2013-02-10 23:12:00,66.3,57.4,30.18,SSW,195,3.0,13.0,73,0.00,,---,0.00,0.00,VWS V14.00,2013-02-11 04:12:00,
2013-02-10 23:13:00,66.2,57.3,30.18,South,180,4.0,13.0,73,0.00,,---,0.00,0.00,VWS V14.00,2013-02-11 04:13:00,
2013-02-10 23:14:00,66.2,57.3,30.18,South,180,3.0,13.0,73,0.00,,---,0.00,0.00,VWS V14.00,2013-02-11 04:14:00,
2013-02-10 23:15:00,66.2,57.3,30.18,South,180,3.0,13.0,73,0.00,,---,0.00,0.00,VWS V14.00,2013-02-11 04:15:00,
2013-02-10 23:16:00,66.2,57.3,30.18,SSW,196,3.0,13.0,73,0.00,,---,0.00,0.00,VWS V14.00,2013-02-11 04:16:00,
2013-02-10 23:17:00,66.2,57.3,30.18,SSW,196,0.0,13.0,73,0.00,,---,0.00,0.00,VWS V14.00,2013-02-11 04:17:00,
2013-02-10 23:18:00,66.2,57.3,30.18,East,95,0.0,13.0,73,0.00,,---,0.00,0.00,VWS V14.00,2013-02-11 04:18:00,
2013-02-10 23:19:00,66.1,57.2,30.18,SSW,197,5.0,13.0,73,0.00,,---,0.00,0.00,VWS V14.00,2013-02-11 04:19:00,
2013-02-10 23:20:00,66.1,57.2,30.18,South,171,5.0,13.0,73,0.00,,---,0.00,0.00,VWS V14.00,2013-02-11 04:20:00,
2013-02-10 23:21:00,66.1,57.2,30.18,SSE,157,2.0,13.0,73,0.00,,---,0.00,0.00,VWS V14.00,2013-02-11 04:21:00,
2013-02-10 23:22:00,66.1,57.2,30.18,SSE,166,6.0,13.0,73,0.00,,---,0.00,0.00,VWS V14.00,2013-02-11 04:22:00,
2013-02-10 23:23:00,66.1,57.2,30.18,SSE,154,3.0,13.0,73,0.00,,---,0.00,0.00,VWS V14.00,2013-02-11 04:23:00,
2013-02-10 23:24:00,66.1,57.2,30.18,SSE,166,10.0,13.0,73,0.00,,---,0.00,0.00,VWS V14.00,2013-02-11 04:24:00,
2013-02-10 23:25:00,66.2,57.3,30.18,SSE,160,6.0,13.0,73,0.00,,---,0.00,0.00,VWS V14.00,2013-02-11 04:25:00,
2013-02-10 23:26:00,66.2,57.3,30.18,SSE,160,3.0,13.0,73,0.00,,---,0.00,0.00,VWS V14.00,2013-02-11 04:26:00,
2013-02-10 23:27:00,66.2,57.3,30.18,SSE,160,3.0,13.0,73,0.00,,---,0.00,0.00,VWS V14.00,2013-02-11 04:27:00,
2013-02-10 23:28:00,66.2,57.3,30.18,South,170,5.0,13.0,73,0.00,,---,0.00,0.00,VWS V14.00,2013-02-11 04:28:00,
2013-02-10 23:29:00,66.1,57.2,30.18,SE,143,6.0,13.0,73,0.00,,---,0.00,0.00,VWS V14.00,2013-02-11 04:29:00,
2013-02-10 23:30:00,66.1,57.2,30.18,South,175,5.0,13.0,73,0.00,,---,0.00,0.00,VWS V14.00,2013-02-11 04:30:00,
2013-02-10 23:31:00,66.1,57.2,30.18,South,171,1.0,5.0,73,0.00,,---,0.00,0.00,VWS V14.00,2013-02-11 04:31:00,
2013-02-10 23:32:00,66.1,57.2,30.19,South,171,0.0,5.0,73,0.00,,---,0.00,0.00,VWS V14.00,2013-02-11 04:32:00,
2013-02-10 23:33:00,66.1,57.2,30.19,South,170,0.0,5.0,73,0.00,,---,0.00,0.00,VWS V14.00,2013-02-11 04:33:00,
2013-02-10 23:34:00,66.1,57.2,30.19,South,171,1.0,5.0,73,0.00,,---,0.00,0.00,VWS V14.00,2013-02-11 04:34:00,
2013-02-10 23:35:00,66.1,57.2,30.19,South,171,0.0,5.0,73,0.00,,---,0.00,0.00,VWS V14.00,2013-02-11 04:35:00,
2013-02-10 23:36:00,66.0,57.1,30.19,SSW,213,4.0,5.0,73,0.00,,---,0.00,0.00,VWS V14.00,2013-02-11 04:36:00,
2013-02-10 23:37:00,66.0,57.1,30.19,SSW,210,4.0,5.0,73,0.00,,---,0.00,0.00,VWS V14.00,2013-02-11 04:37:00,
2013-02-10 23:38:00,66.0,57.1,30.19,SSE,153,5.0,7.0,73,0.00,,---,0.00,0.00,VWS V14.00,2013-02-11 04:38:00,
2013-02-10 23:39:00,66.0,57.5,30.19,South,180,3.0,7.0,74,0.00,,---,0.00,0.00,VWS V14.00,2013-02-11 04:39:00,
2013-02-10 23:40:00,66.0,57.5,30.18,South,171,5.0,9.0,74,0.00,,---,0.00,0.00,VWS V14.00,2013-02-11 04:40:00,
2013-02-10 23:41:00,66.0,57.5,30.18,SSW,200,8.0,9.0,74,0.00,,---,0.00,0.00,VWS V14.00,2013-02-11 04:41:00,
2013-02-10 23:42:00,66.0,57.1,30.18,South,175,4.0,9.0,73,0.00,,---,0.00,0.00,VWS V14.00,2013-02-11 04:42:00,
2013-02-10 23:43:00,66.0,57.1,30.18,South,175,5.0,9.0,73,0.00,,---,0.00,0.00,VWS V14.00,2013-02-11 04:43:00,
2013-02-10 23:44:00,66.0,57.5,30.19,SW,218,0.0,9.0,74,0.00,,---,0.00,0.00,VWS V14.00,2013-02-11 04:44:00,
2013-02-10 23:45:00,65.9,57.4,30.19,SW,219,2.0,9.0,74,0.00,,---,0.00,0.00,VWS V14.00,2013-02-11 04:45:00,
2013-02-10 23:46:00,65.9,57.4,30.18,SSE,147,8.0,9.0,74,0.00,,---,0.00,0.00,VWS V14.00,2013-02-11 04:46:00,
2013-02-10 23:47:00,65.9,57.4,30.18,South,180,4.0,9.0,74,0.00,,---,0.00,0.00,VWS V14.00,2013-02-11 04:47:00,
2013-02-10 23:48:00,65.9,57.4,30.18,SSE,164,5.0,9.0,74,0.00,,---,0.00,0.00,VWS V14.00,2013-02-11 04:48:00,
2013-02-10 23:49:00,65.9,57.0,30.18,South,171,5.0,9.0,73,0.00,,---,0.00,0.00,VWS V14.00,2013-02-11 04:49:00,
2013-02-10 23:50:00,65.9,57.0,30.18,West,275,5.0,9.0,73,0.00,,---,0.00,0.00,VWS V14.00,2013-02-11 04:50:00,
2013-02-10 23:51:00,65.9,57.0,30.18,SSW,193,8.0,10.0,73,0.00,,---,0.00,0.00,VWS V14.00,2013-02-11 04:51:00,
2013-02-10 23:52:00,65.9,57.0,30.18,SSW,206,4.0,10.0,73,0.00,,---,0.00,0.00,VWS V14.00,2013-02-11 04:52:00,
2013-02-10 23:53:00,66.0,57.1,30.18,SSE,162,2.0,10.0,73,0.00,,---,0.00,0.00,VWS V14.00,2013-02-11 04:53:00,
2013-02-10 23:54:00,66.0,57.1,30.18,SSE,154,4.0,10.0,73,0.00,,---,0.00,0.00,VWS V14.00,2013-02-11 04:54:00,
2013-02-10 23:55:00,66.0,57.1,30.18,SE,144,1.0,10.0,73,0.00,,---,0.00,0.00,VWS V14.00,2013-02-11 04:55:00,
2013-02-10 23:56:00,66.0,57.1,30.18,South,175,6.0,13.0,73,0.00,,---,0.00,0.00,VWS V14.00,2013-02-11 04:56:00,
2013-02-10 23:57:00,66.0,57.1,30.18,South,175,3.0,13.0,73,0.00,,---,0.00,0.00,VWS V14.00,2013-02-11 04:57:00,
2013-02-10 23:58:00,66.0,57.1,30.18,SSE,168,2.0,13.0,73,0.00,,---,0.00,0.00,VWS V14.00,2013-02-11 04:58:00,
2013-02-10 23:59:00,66.0,57.1,30.18,South,185,0.0,13.0,73,0.00,,---,0.00,0.00,VWS V14.00,2013-02-11 04:59:00,